ftp/pub/palmer/observations_modified/2019/June/AR190429_BASE.txt

Download

Sample DateTime	Unit Id	WS Avg 2min	WD Avg 2min	WGS 10min	WGD 10min	Air Temp	Rel Humidity	Dew Point	Pyranometer	Quantum	Air Pressure	Snow Level	Rainfall	PW Current	Visibility	CBase 1	CBase 2	CBase 3	Vert Vis
2019/04/29 00:00:05	BASE	23.09	10	26.24	6	2.3	100	2.2	0	0	978.9	NA	0.0000	-SN BR	4100	390	0	0	0
2019/04/29 00:01:02	BASE	23.29	12	26.24	6	2.3	100	2.3	0	0	978.9	NA	0.0000	-SN BR	4800	390	0	0	0
2019/04/29 00:02:05	BASE	22.46	12	26.24	6	2.3	100	2.3	0	0	978.9	NA	0.2540	-SN BR	5000	360	0	0	0
2019/04/29 00:03:05	BASE	22.57	12	26.24	6	2.3	100	2.3	0	0	978.8	NA	0.0000	-SN BR	4100	360	0	0	0
2019/04/29 00:04:06	BASE	23.66	16	26.24	6	2.3	100	2.3	0	0	978.8	NA	0.0000	-SN BR	3900	360	0	0	0
2019/04/29 00:05:05	BASE	23.42	16	26.24	6	2.3	100	2.3	0	0	978.9	NA	0.0000	-SN BR	3700	390	0	0	0
2019/04/29 00:06:04	BASE	24.08	16	28.86	21	2.2	100	2.2	0	0	978.8	NA	0.0000	-SN BR	4200	390	0	0	0
2019/04/29 00:07:01	BASE	26.20	19	28.86	21	2.2	100	2.2	0	0	978.7	NA	0.0000	-SN BR	4100	390	0	0	0
2019/04/29 00:08:04	BASE	26.61	21	28.91	23	2.2	100	2.2	0	0	978.7	NA	0.0000	-SN BR	3200	390	0	0	0
2019/04/29 00:09:05	BASE	26.17	21	28.91	23	2.2	100	2.2	0	0	978.8	NA	0.2540	-SN BR	3000	390	0	0	0
2019/04/29 00:10:02	BASE	26.58	21	28.91	23	2.2	100	2.2	0	0	978.7	NA	0.0000	-SN BR	3200	660	0	0	0
2019/04/29 00:11:04	BASE	26.81	20	28.91	23	2.2	100	2.2	0	0	978.7	NA	0.0000	-SN BR	4000	390	0	0	0
2019/04/29 00:12:04	BASE	26.40	21	28.91	23	2.3	100	2.3	0	0	978.8	NA	0.0000	-SN BR	3900	390	0	0	0
2019/04/29 00:13:05	BASE	26.32	22	28.91	23	2.3	100	2.3	0	0	978.7	NA	0.0000	-SN BR	3400	360	0	0	0
2019/04/29 00:14:02	BASE	26.79	22	29.07	23	2.3	100	2.3	0	0	978.7	NA	0.2540	-SN BR	3900	360	0	0	0
2019/04/29 00:15:04	BASE	27.52	22	30.35	20	2.3	100	2.3	0	0	978.7	NA	0.0000	-SN BR	3800	330	0	0	0
2019/04/29 00:16:05	BASE	27.31	23	30.35	20	2.3	100	2.3	0	0	978.7	NA	0.0000	-SN BR	3600	330	0	0	0
2019/04/29 00:17:07	BASE	26.02	22	30.35	20	2.3	100	2.3	0	0	978.7	NA	0.0000	-SN BR	3500	330	0	0	0
2019/04/29 00:18:06	BASE	24.61	20	30.35	20	2.2	100	2.2	0	0	978.8	NA	0.0000	-SN BR	3400	330	0	0	0
2019/04/29 00:19:02	BASE	25.00	22	30.35	20	2.2	100	2.2	0	0	978.7	NA	0.0000	-SN BR	3300	330	0	0	0
2019/04/29 00:20:04	BASE	26.78	22	30.35	20	2.2	100	2.2	0	0	978.6	NA	0.2540	-SN BR	3100	330	0	0	0
2019/04/29 00:21:05	BASE	27.60	23	30.35	20	2.2	100	2.2	0	0	978.6	NA	0.0000	-SN BR	3100	330	0	0	0
2019/04/29 00:22:05	BASE	27.39	24	30.35	20	2.2	100	2.2	0	0	978.6	NA	0.0000	-SN BR	3200	0	0	0	2920
2019/04/29 00:23:04	BASE	27.09	23	30.35	20	2.2	100	2.2	0	0	978.6	NA	0.0000	-SN BR	3100	360	0	0	0
2019/04/29 00:24:02	BASE	27.26	23	30.35	20	2.2	100	2.2	0	0	978.6	NA	0.2540	-SN BR	3100	360	0	0	0
2019/04/29 00:25:05	BASE	26.55	24	29.68	26	2.2	100	2.2	0	0	978.7	NA	0.0000	-SN BR	3200	360	0	0	0
2019/04/29 00:26:05	BASE	26.31	25	31.12	28	2.2	100	2.2	0	0	978.6	NA	0.0000	-SN BR	3400	360	0	0	0
2019/04/29 00:27:04	BASE	27.52	23	31.64	25	2.2	100	2.2	0	0	978.6	NA	0.0000	-SN BR	3100	360	0	0	0
2019/04/29 00:28:04	BASE	27.17	23	31.64	25	2.2	100	2.2	0	0	978.6	NA	0.0000	-SN BR	3200	390	0	0	0
2019/04/29 00:29:02	BASE	27.00	23	31.64	25	2.2	100	2.2	0	0	978.5	NA	0.2540	-SN BR	3500	390	0	0	0
2019/04/29 00:30:05	BASE	27.76	23	31.64	25	2.2	100	2.2	0	0	978.5	NA	0.0000	-SN BR	3600	390	0	0	0
2019/04/29 00:31:01	BASE	27.60	24	31.64	25	2.3	100	2.3	0	0	978.5	NA	0.0000	-SN BR	3900	390	0	0	0
2019/04/29 00:32:05	BASE	27.78	23	31.64	25	2.3	100	2.3	0	0	978.5	NA	0.0000	-SN BR	3900	390	0	0	0
2019/04/29 00:33:05	BASE	27.53	23	31.64	25	2.4	100	2.4	0	0	978.5	NA	0.0000	-SN BR	3600	1050	0	0	0
2019/04/29 00:34:02	BASE	26.43	23	31.64	25	2.4	100	2.4	0	0	978.6	NA	0.0000	-SN BR	4900	430	0	0	0
2019/04/29 00:35:04	BASE	25.75	25	31.64	25	2.4	100	2.4	0	0	978.6	NA	0.0000	-SN BR	5000	1050	0	0	0
2019/04/29 00:36:04	BASE	27.05	25	31.64	25	2.4	100	2.4	0	0	978.5	NA	0.2540	-SN BR	4000	430	0	0	0
2019/04/29 00:37:06	BASE	28.11	26	30.30	19	2.4	100	2.4	0	0	978.5	NA	0.0000	-SN BR	3700	390	0	0	0
2019/04/29 00:38:05	BASE	27.42	26	30.30	19	2.4	100	2.4	0	0	978.5	NA	0.0000	-SN BR	3500	390	0	0	0
2019/04/29 00:39:02	BASE	26.98	26	30.30	19	2.4	100	2.4	0	0	978.5	NA	0.0000	-SN BR	3600	390	0	0	0
2019/04/29 00:40:05	BASE	27.32	24	30.30	19	2.4	100	2.4	0	0	978.5	NA	0.0000	-SN BR	3900	390	0	0	0
2019/04/29 00:41:04	BASE	27.26	25	29.73	21	2.4	100	2.4	0	0	978.5	NA	0.0000	-SN BR	4500	390	0	0	0
2019/04/29 00:42:04	BASE	26.89	26	29.84	16	2.4	100	2.4	0	0	978.5	NA	0.2540	-SN BR	4200	390	0	0	0
2019/04/29 00:43:04	BASE	26.85	26	29.84	16	2.4	100	2.4	0	0	978.5	NA	0.0000	-SN BR	3500	390	0	0	0
2019/04/29 00:44:01	BASE	25.57	27	29.84	16	2.5	100	2.4	0	0	978.5	NA	0.0000	-SN BR	3600	390	0	0	0
2019/04/29 00:45:05	BASE	24.79	27	29.84	16	2.5	100	2.5	0	0	978.5	NA	0.0000	-SN BR	3700	360	1120	0	0
2019/04/29 00:46:04	BASE	26.27	25	29.84	16	2.5	100	2.5	0	0	978.4	NA	0.0000	-SN BR	3500	360	1150	0	0
2019/04/29 00:47:04	BASE	26.74	25	29.84	16	2.5	100	2.5	0	0	978.5	NA	0.2540	-SN BR	3400	360	0	0	0
2019/04/29 00:48:04	BASE	26.72	27	31.54	29	2.5	100	2.5	0	0	978.4	NA	0.0000	-SN BR	3500	360	0	0	0
2019/04/29 00:49:01	BASE	27.15	28	31.54	29	2.5	100	2.5	0	0	978.4	NA	0.0000	-SN BR	3300	360	0	0	0
2019/04/29 00:50:05	BASE	27.20	27	32.56	27	2.5	100	2.5	0	0	978.3	NA	0.0000	-SN BR	3300	360	1120	0	0
2019/04/29 00:51:04	BASE	26.85	26	32.56	27	2.5	100	2.5	0	0	978.4	NA	0.0000	-SN BR	3700	360	1120	0	0
2019/04/29 00:52:04	BASE	25.34	24	32.56	27	2.5	100	2.5	0	0	978.4	NA	0.0000	-SN BR	4100	360	1050	0	0
2019/04/29 00:53:04	BASE	25.46	27	32.56	27	2.5	100	2.5	0	0	978.4	NA	0.2540	-SN BR	4700	360	0	0	0
2019/04/29 00:54:01	BASE	25.51	29	32.56	27	2.5	100	2.5	0	0	978.5	NA	0.0000	-SN BR	4200	360	0	0	0
2019/04/29 00:55:04	BASE	24.50	27	32.56	27	2.5	100	2.5	0	0	978.5	NA	0.0000	-SN BR	3500	330	1120	0	0
2019/04/29 00:56:04	BASE	24.09	25	32.56	27	2.5	100	2.5	0	0	978.6	NA	0.0000	-SN BR	4900	330	1050	0	0
2019/04/29 00:57:05	BASE	24.12	25	32.56	27	2.5	100	2.5	0	0	978.5	NA	0.0000	-SN BR	4800	330	1120	0	0
2019/04/29 00:58:04	BASE	24.95	27	32.56	27	2.5	100	2.5	0	0	978.5	NA	0.0000	-SN BR	3900	330	1120	0	0
2019/04/29 00:59:05	BASE	25.35	27	32.56	27	2.5	100	2.5	0	0	978.5	NA	0.2540	-SN BR	3400	330	0	0	0
2019/04/29 01:00:02	BASE	25.27	24	29.27	35	2.5	100	2.5	0	0	978.5	NA	0.0000	-SN BR	3400	300	0	0	0
2019/04/29 01:01:05	BASE	24.71	22	29.27	35	2.5	100	2.5	0	0	978.5	NA	0.0000	-SN BR	3700	300	0	0	0
2019/04/29 01:02:04	BASE	25.05	22	29.27	35	2.5	100	2.5	0	0	978.5	NA	0.0000	-SN BR	3700	330	0	0	0
2019/04/29 01:03:04	BASE	25.75	23	28.29	31	2.4	100	2.4	0	0	978.5	NA	0.0000	-SN BR	3600	360	0	0	0
2019/04/29 01:04:05	BASE	25.13	22	28.35	23	2.4	100	2.4	0	0	978.6	NA	0.2540	-SN BR	3400	330	0	0	0
2019/04/29 01:05:04	BASE	25.08	23	28.50	20	2.4	100	2.4	0	0	978.4	NA	0.0000	-SN BR	3600	330	1050	0	0
2019/04/29 01:06:04	BASE	26.17	24	30.40	27	2.4	100	2.4	0	0	978.5	NA	0.0000	-SN BR	3800	330	0	0	0
2019/04/29 01:07:04	BASE	26.38	24	30.40	27	2.5	100	2.5	0	0	978.4	NA	0.0000	-SN BR	3700	330	0	0	0
2019/04/29 01:08:05	BASE	26.10	23	30.40	27	2.5	100	2.5	0	0	978.5	NA	0.0000	-SN BR	4500	330	0	0	0
2019/04/29 01:09:05	BASE	27.14	23	31.07	22	2.5	100	2.5	0	0	978.3	NA	0.2540	-SN BR	4000	0	0	0	2560
2019/04/29 01:10:05	BASE	27.24	22	31.07	22	2.5	100	2.5	0	0	978.4	NA	0.0000	-SN BR	3600	330	1150	0	0
2019/04/29 01:11:04	BASE	26.12	23	31.07	22	2.5	100	2.5	0	0	978.4	NA	0.0000	-SN BR	4600	330	0	0	0
2019/04/29 01:12:05	BASE	26.98	25	31.07	22	2.5	100	2.5	0	0	978.4	NA	0.0000	-SN BR	5000	330	0	0	0
2019/04/29 01:13:05	BASE	26.47	25	31.07	22	2.5	100	2.5	0	0	978.5	NA	0.0000	-SN BR	4200	2490	0	0	0
2019/04/29 01:14:02	BASE	25.74	23	31.07	22	2.5	100	2.5	0	0	978.4	NA	0.0000	-SN BR	4000	330	0	0	0
2019/04/29 01:15:05	BASE	26.65	22	31.07	22	2.4	100	2.4	0	0	978.4	NA	0.0000	-SN BR	3800	330	0	0	0
2019/04/29 01:16:04	BASE	27.10	23	31.07	22	2.4	100	2.4	0	0	978.4	NA	0.2540	-SN BR	5000	360	0	0	0
2019/04/29 01:17:04	BASE	26.91	22	31.07	22	2.4	100	2.4	0	0	978.4	NA	0.0000	-SN BR	5000	360	0	0	0
2019/04/29 01:18:04	BASE	26.65	21	31.07	22	2.4	100	2.4	0	0	978.4	NA	0.0000	-SN BR	5000	360	0	0	0
2019/04/29 01:19:05	BASE	26.05	22	30.76	22	2.4	100	2.4	0	0	978.4	NA	0.0000	-SN BR	7000	360	0	0	0
2019/04/29 01:20:05	BASE	25.49	24	30.76	22	2.4	100	2.4	0	0	978.4	NA	0.0000	-SN BR	8000	0	0	0	2620
2019/04/29 01:21:04	BASE	26.52	24	30.76	22	2.4	100	2.4	0	0	978.3	NA	0.0000	-SN BR	7000	2300	0	0	0
2019/04/29 01:22:04	BASE	26.44	22	29.37	23	2.4	100	2.4	0	0	978.4	NA	0.0000	-SN BR	8000	0	0	0	2820
2019/04/29 01:23:06	BASE	25.91	23	29.37	23	2.5	100	2.5	0	0	978.4	NA	0.0000	-SN BR	8000	360	0	0	0
2019/04/29 01:24:01	BASE	26.38	24	29.37	23	2.5	100	2.5	0	0	978.3	NA	0.0000	-SN BR	8000	0	0	0	2720
2019/04/29 01:25:04	BASE	25.38	24	29.37	23	2.5	100	2.5	0	0	978.4	NA	0.2540	-SN BR	8000	390	0	0	0
2019/04/29 01:26:04	BASE	25.15	23	29.32	22	2.5	100	2.5	0	0	978.3	NA	0.0000	-SN BR	9000	360	0	0	0
2019/04/29 01:27:05	BASE	24.89	25	29.32	22	2.5	100	2.5	0	0	978.3	NA	0.0000	-SN BR	8000	390	0	0	0
2019/04/29 01:28:04	BASE	23.84	26	29.12	22	2.5	100	2.5	0	0	978.3	NA	0.0000	-SN BR	8000	390	0	0	0
2019/04/29 01:29:04	BASE	25.49	23	30.20	20	2.5	100	2.5	0	0	978.2	NA	0.0000	-SN BR	9999	360	0	0	0
2019/04/29 01:30:05	BASE	27.51	23	30.20	20	2.5	100	2.5	0	0	978.2	NA	0.0000	-SN BR	7000	330	0	0	0
2019/04/29 01:31:05	BASE	27.06	24	30.20	20	2.5	100	2.5	0	0	978.2	NA	0.0000	-SN BR	6000	360	0	0	0
2019/04/29 01:32:04	BASE	24.59	23	30.20	20	2.5	100	2.5	0	0	978.3	NA	0.0000	-SN BR	6000	390	0	0	0
2019/04/29 01:33:04	BASE	24.32	22	30.20	20	2.6	100	2.6	0	0	978.2	NA	0.0000	-SN BR	4400	430	1840	0	0
2019/04/29 01:34:05	BASE	26.19	22	30.40	26	2.6	100	2.6	0	0	978.2	NA	0.0000	-SN BR	3800	390	0	0	0
2019/04/29 01:35:05	BASE	25.71	22	30.40	26	2.6	100	2.6	0	0	978.2	NA	0.2540	-SN BR	4700	1740	0	0	0
2019/04/29 01:36:04	BASE	26.25	23	30.40	26	2.6	100	2.6	0	0	978.1	NA	0.0000	-SN BR	4800	1710	0	0	0
2019/04/29 01:37:04	BASE	27.15	25	30.40	26	2.5	100	2.5	0	0	978.1	NA	0.0000	-SN BR	4500	1710	0	0	0
2019/04/29 01:38:04	BASE	27.35	26	30.40	26	2.5	100	2.5	0	0	978.1	NA	0.0000	-SN BR	4400	1710	0	0	0
2019/04/29 01:39:05	BASE	27.79	27	30.40	26	2.5	100	2.5	0	0	978.0	NA	0.0000	-SN BR	6000	1440	0	0	0
2019/04/29 01:40:05	BASE	25.36	27	30.40	26	2.5	100	2.5	0	0	978.2	NA	0.0000	-SN BR	4800	1670	0	0	0
2019/04/29 01:41:04	BASE	23.56	28	30.40	26	2.5	100	2.5	0	0	978.2	NA	0.0000	-SN BR	5000	1800	0	0	0
2019/04/29 01:42:04	BASE	23.91	25	30.40	26	2.5	100	2.5	0	0	978.2	NA	0.0000	-SN BR	9999	1710	0	0	0
2019/04/29 01:43:05	BASE	24.73	22	30.40	26	2.5	100	2.5	0	0	978.2	NA	0.0000	-SN BR	6000	430	0	0	0
2019/04/29 01:44:01	BASE	25.34	21	30.20	28	2.6	100	2.6	0	0	978.2	NA	0.0000	-SN BR	5000	1770	0	0	0
2019/04/29 01:45:04	BASE	25.32	22	30.20	28	2.6	100	2.6	0	0	978.2	NA	0.0000	-SN BR	7000	390	0	0	0
2019/04/29 01:46:04	BASE	25.69	23	30.20	28	2.6	100	2.6	0	0	978.2	NA	0.2540	-SN BR	6000	360	1670	0	0
2019/04/29 01:47:05	BASE	26.12	21	30.20	28	2.5	100	2.5	0	0	978.2	NA	0.0000	-SN BR	8000	1670	0	0	0
2019/04/29 01:48:04	BASE	26.49	22	30.56	20	2.5	100	2.5	0	0	978.1	NA	0.0000	-SN BR	6000	360	0	0	0
2019/04/29 01:49:01	BASE	27.41	23	30.56	20	2.5	100	2.5	0	0	978.1	NA	0.0000	-SN BR	5000	1670	0	0	0
2019/04/29 01:50:04	BASE	27.91	23	31.54	29	2.5	100	2.5	0	0	978.1	NA	0.0000	-SN BR	7000	390	0	0	0
2019/04/29 01:51:04	BASE	27.61	23	31.54	29	2.5	100	2.5	0	0	978.1	NA	0.0000	-SN BR	6000	1670	0	0	0
2019/04/29 01:52:04	BASE	27.36	21	31.54	29	2.5	100	2.5	0	0	978.1	NA	0.0000	-SN BR	4600	360	0	0	0
2019/04/29 01:53:04	BASE	26.79	20	31.54	29	2.5	100	2.5	0	0	978.1	NA	0.0000	-SN BR	4700	1670	0	0	0
2019/04/29 01:54:04	BASE	26.70	21	31.54	29	2.5	100	2.5	0	0	978.1	NA	0.0000	-SN BR	5000	430	0	0	0
2019/04/29 01:55:05	BASE	27.31	21	31.54	29	2.5	100	2.5	0	0	978.1	NA	0.0000	-SN BR	5000	390	0	0	0
2019/04/29 01:56:04	BASE	26.84	21	31.54	29	2.5	100	2.5	0	0	978.1	NA	0.0000	-SN BR	8000	390	0	0	0
2019/04/29 01:57:04	BASE	27.09	21	31.54	29	2.5	100	2.5	0	0	978.1	NA	0.2540	-SN BR	8000	430	0	0	0
2019/04/29 01:58:04	BASE	27.14	20	31.54	29	2.5	100	2.5	0	0	978.2	NA	0.0000	-SN BR	5000	390	0	0	0
2019/04/29 01:59:07	BASE	26.34	18	31.54	29	2.5	100	2.5	0	0	978.2	NA	0.0000	-SN BR	5000	390	0	0	0
2019/04/29 02:00:02	BASE	26.19	17	30.51	23	2.5	100	2.5	0	0	978.2	NA	0.0000	-SN BR	6000	360	0	0	0
2019/04/29 02:01:04	BASE	24.95	15	30.51	23	2.5	100	2.5	0	0	978.3	NA	0.0000	-SN BR	9999	1610	0	0	0
2019/04/29 02:02:05	BASE	23.86	15	30.51	23	2.5	100	2.5	0	0	978.2	NA	0.0000	-SN BR	9000	390	1710	0	0
2019/04/29 02:03:05	BASE	25.32	19	30.51	23	2.5	100	2.5	0	0	978.1	NA	0.0000	-SN BR	6000	360	0	0	0
2019/04/29 02:04:04	BASE	26.67	20	30.51	23	2.4	100	2.4	0	0	978.1	NA	0.0000	-SN BR	7000	1640	0	0	0
2019/04/29 02:05:04	BASE	26.19	19	30.51	23	2.4	100	2.4	0	0	978.1	NA	0.0000	-SN BR	9000	1640	0	0	0
2019/04/29 02:06:04	BASE	26.09	20	30.51	23	2.4	100	2.4	0	0	978.1	NA	0.0000	-SN BR	9999	1640	0	0	0
2019/04/29 02:07:04	BASE	26.85	20	29.58	20	2.4	100	2.4	0	0	978.1	NA	0.2540	-SN BR	8000	1510	0	0	0
2019/04/29 02:08:04	BASE	26.33	20	29.58	20	2.4	100	2.4	0	0	978.1	NA	0.0000	-SN BR	6000	1280	0	0	0
2019/04/29 02:09:02	BASE	26.25	18	30.20	17	2.4	100	2.4	0	0	978.0	NA	0.0000	-SN BR	6000	1480	0	0	0
2019/04/29 02:10:05	BASE	26.24	18	30.20	17	2.4	100	2.4	0	0	978.1	NA	0.0000	-SN BR	4900	1440	0	0	0
2019/04/29 02:11:02	BASE	25.71	18	30.20	17	2.4	100	2.4	0	0	978.1	NA	0.0000	-SN BR	4300	360	0	0	0
2019/04/29 02:12:04	BASE	25.28	14	30.20	17	2.4	100	2.4	0	0	978.2	NA	0.0000	-SN BR	6000	360	0	0	0
2019/04/29 02:13:05	BASE	24.34	12	30.20	17	2.4	100	2.4	0	0	978.2	NA	0.0000	-SN BR	6000	390	0	0	0
2019/04/29 02:14:04	BASE	24.05	14	30.20	17	2.4	100	2.4	0	0	978.3	NA	0.0000	-SN BR	6000	360	1570	0	0
2019/04/29 02:15:05	BASE	23.79	15	30.20	17	2.4	100	2.4	0	0	978.3	NA	0.0000	-SN BR	8000	1540	0	0	0
2019/04/29 02:16:04	BASE	24.30	16	30.20	17	2.4	100	2.4	0	0	978.2	NA	0.0000	-SN BR	7000	390	0	0	0
2019/04/29 02:17:05	BASE	25.07	17	31.33	16	2.4	100	2.4	0	0	978.2	NA	0.2540	-SN BR	7000	1250	0	0	0
2019/04/29 02:18:04	BASE	25.79	17	31.33	16	2.4	100	2.4	0	0	978.1	NA	0.0000	-SN BR	4300	430	0	0	0
2019/04/29 02:19:02	BASE	26.31	16	31.33	16	2.4	100	2.4	0	0	978.1	NA	0.0000	-SN BR	5000	1150	0	0	0
2019/04/29 02:20:04	BASE	26.36	16	31.33	16	2.5	100	2.5	0	0	978.1	NA	0.0000	-SN BR	9000	920	0	0	0
2019/04/29 02:21:05	BASE	26.60	15	31.33	16	2.5	100	2.5	0	0	978.1	NA	0.0000	-SN BR	8000	820	0	0	0
2019/04/29 02:22:04	BASE	26.97	16	31.33	16	2.5	100	2.5	0	0	978.1	NA	0.0000	-SN BR	4500	820	0	0	0
2019/04/29 02:23:04	BASE	27.33	17	31.33	16	2.5	100	2.5	0	0	978.1	NA	0.0000	-SN BR	4100	430	0	0	0
2019/04/29 02:24:01	BASE	27.02	17	31.33	16	2.5	100	2.5	0	0	978.1	NA	0.0000	-SN BR	5000	1280	0	0	0
2019/04/29 02:25:05	BASE	25.55	16	31.33	16	2.4	100	2.4	0	0	978.1	NA	0.0000	-SN BR	5000	1440	0	0	0
2019/04/29 02:26:04	BASE	25.06	15	31.33	16	2.4	100	2.4	0	0	978.2	NA	0.2540	-SN BR	7000	790	0	0	0
2019/04/29 02:27:04	BASE	25.52	17	29.12	14	2.4	100	2.4	0	0	978.1	NA	0.0000	-SN BR	6000	390	0	0	0
2019/04/29 02:28:05	BASE	25.88	18	29.12	14	2.4	100	2.4	0	0	978.2	NA	0.0000	-SN BR	8000	1480	0	0	0
2019/04/29 02:29:04	BASE	25.89	17	29.12	14	2.4	100	2.4	0	0	978.1	NA	0.0000	-SN BR	9999	1480	0	0	0
2019/04/29 02:30:04	BASE	25.30	17	28.91	18	2.4	100	2.4	0	0	978.2	NA	0.0000	-SN BR	9999	1410	0	0	0
2019/04/29 02:31:05	BASE	25.08	17	28.91	18	2.4	100	2.4	0	0	978.2	NA	0.0000	-SN BR	8000	430	0	0	0
2019/04/29 02:32:04	BASE	24.56	15	28.91	18	2.4	100	2.4	0	0	978.2	NA	0.0000	-SN BR	9000	1640	0	0	0
2019/04/29 02:33:05	BASE	23.07	13	28.91	18	2.4	100	2.4	0	0	978.3	NA	0.0000	-SN BR	9999	1570	0	0	0
2019/04/29 02:34:05	BASE	22.37	13	28.91	18	2.4	100	2.4	0	0	978.3	NA	0.0000	-SN BR	9999	1540	0	0	0
2019/04/29 02:35:02	BASE	23.69	16	28.91	18	2.4	100	2.4	0	0	978.2	NA	0.0000	-SN BR	9999	430	0	0	0
2019/04/29 02:36:05	BASE	24.59	16	28.91	18	2.4	100	2.4	0	0	978.2	NA	0.0000	-SN	9999	1310	0	0	0
2019/04/29 02:37:02	BASE	23.64	12	28.24	23	2.4	100	2.4	0	0	978.3	NA	0.0000	-SN	8000	1150	0	0	0
2019/04/29 02:38:05	BASE	23.24	11	28.24	23	2.4	100	2.4	0	0	978.3	NA	0.2540	-SN	9999	360	0	0	0
2019/04/29 02:39:05	BASE	23.70	7	28.24	23	2.4	100	2.4	0	0	978.3	NA	0.0000	-SN	9999	390	0	0	0
2019/04/29 02:40:05	BASE	23.24	7	28.24	23	2.4	100	2.4	0	0	978.3	NA	0.0000	-SN BR	7000	390	0	0	0
2019/04/29 02:41:05	BASE	23.10	10	28.24	23	2.5	100	2.5	0	0	978.3	NA	0.0000	-SN BR	5000	1480	0	0	0
2019/04/29 02:42:05	BASE	24.08	9	28.24	23	2.5	100	2.5	0	0	978.2	NA	0.0000	-SN BR	5000	390	1610	0	0
2019/04/29 02:43:05	BASE	24.32	8	28.24	23	2.5	100	2.5	0	0	978.3	NA	0.0000	-SN BR	5000	390	1540	0	0
2019/04/29 02:44:02	BASE	23.67	9	28.24	23	2.5	100	2.5	0	0	978.3	NA	0.0000	-SN BR	7000	390	0	0	0
2019/04/29 02:45:06	BASE	23.75	12	27.63	6	2.5	100	2.5	0	0	978.2	NA	0.0000	-SN BR	6000	390	0	0	0
2019/04/29 02:46:04	BASE	24.41	15	27.63	6	2.4	100	2.4	0	0	978.2	NA	0.0000	-SN BR	7000	390	1540	0	0
2019/04/29 02:47:05	BASE	24.60	16	27.63	6	2.4	100	2.4	0	0	978.1	NA	0.2540	-SN BR	8000	390	0	0	0
2019/04/29 02:48:04	BASE	25.22	17	27.63	6	2.4	100	2.4	0	0	978.2	NA	0.0000	-SN BR	7000	390	0	0	0
2019/04/29 02:49:05	BASE	26.49	19	30.76	19	2.3	100	2.3	0	0	978.0	NA	0.0000	-SN BR	5000	1540	0	0	0
2019/04/29 02:50:04	BASE	26.33	19	30.76	19	2.3	100	2.3	0	0	978.1	NA	0.0000	-SN BR	6000	1410	0	0	0
2019/04/29 02:51:04	BASE	25.67	19	30.76	19	2.3	100	2.3	0	0	978.1	NA	0.0000	-SN BR	5000	390	0	0	0
2019/04/29 02:52:01	BASE	26.60	20	30.76	19	2.3	100	2.3	0	0	978.0	NA	0.0000	-SN BR	5000	1510	0	0	0
2019/04/29 02:53:05	BASE	27.40	22	30.76	19	2.3	100	2.3	0	0	978.0	NA	0.0000	-SN BR	9999	1440	0	0	0
2019/04/29 02:54:04	BASE	27.51	23	30.76	19	2.3	100	2.3	0	0	978.0	NA	0.0000	-SN BR	9999	1480	0	0	0
2019/04/29 02:55:02	BASE	27.23	23	30.76	19	2.3	100	2.3	0	0	978.0	NA	0.0000	-SN BR	9999	1480	0	0	0
2019/04/29 02:56:04	BASE	27.17	22	30.76	22	2.3	100	2.3	0	0	978.0	NA	0.0000	-SN BR	9000	1440	0	0	0
2019/04/29 02:57:05	BASE	26.64	20	30.76	22	2.3	100	2.3	0	0	978.0	NA	0.2540	-SN BR	7000	390	0	0	0
2019/04/29 02:58:04	BASE	26.63	19	30.76	22	2.3	100	2.3	0	0	978.0	NA	0.0000	-SN BR	6000	390	0	0	0
2019/04/29 02:59:05	BASE	25.93	17	30.76	22	2.3	100	2.3	0	0	978.1	NA	0.0000	-SN BR	8000	1410	0	0	0
2019/04/29 03:00:04	BASE	24.26	15	30.76	22	2.3	100	2.3	0	0	978.2	NA	0.0000	-SN BR	9999	1610	0	0	0
2019/04/29 03:01:05	BASE	24.52	15	30.76	22	2.3	100	2.3	0	0	978.1	NA	0.0000	-SN BR	9999	390	0	0	0
2019/04/29 03:02:05	BASE	24.46	15	30.76	22	2.3	100	2.3	0	0	978.2	NA	0.0000	-SN BR	9999	1050	0	0	0
2019/04/29 03:03:05	BASE	24.54	16	30.76	22	2.3	100	2.3	0	0	978.1	NA	0.0000	-SN BR	9999	1570	0	0	0
2019/04/29 03:04:02	BASE	25.04	16	30.76	22	2.3	100	2.3	0	0	978.1	NA	0.0000	-SN BR	9999	1610	0	0	0
2019/04/29 03:05:05	BASE	23.84	12	30.76	22	2.3	100	2.3	0	0	978.2	NA	0.0000	-SN BR	9999	1540	0	0	0
2019/04/29 03:06:02	BASE	22.47	10	30.51	10	2.3	100	2.3	0	0	978.2	NA	0.0000	-SN BR	9000	360	0	0	0
2019/04/29 03:07:05	BASE	21.68	13	30.51	10	2.3	100	2.3	0	0	978.2	NA	0.0000	-SN BR	9000	390	1570	0	0
2019/04/29 03:08:05	BASE	24.12	19	30.35	25	2.3	100	2.3	0	0	978.0	NA	0.0000	-SN BR	6000	330	0	0	0
2019/04/29 03:09:02	BASE	25.55	17	32.82	13	2.3	100	2.3	0	0	978.0	NA	0.2540	-SN BR	5000	360	0	0	0
2019/04/29 03:10:05	BASE	23.97	17	32.82	13	2.3	100	2.3	0	0	978.1	NA	0.0000	-SN BR	8000	330	1120	0	0
2019/04/29 03:11:02	BASE	24.90	21	32.82	13	2.3	100	2.3	0	0	977.9	NA	0.0000	-SN BR	7000	390	0	0	0
2019/04/29 03:12:04	BASE	26.52	21	32.82	13	2.4	100	2.4	0	0	977.9	NA	0.0000	-SN BR	7000	1480	0	0	0
2019/04/29 03:13:05	BASE	27.04	22	32.82	13	2.4	100	2.4	0	0	977.9	NA	0.0000	-SN BR	9999	390	0	0	0
2019/04/29 03:14:02	BASE	26.97	21	32.82	13	2.4	100	2.4	0	0	977.9	NA	0.0000	-SN BR	5000	1480	0	0	0
2019/04/29 03:15:05	BASE	26.96	22	32.82	13	2.4	100	2.4	0	0	977.8	NA	0.0000	-SN BR	6000	1480	0	0	0
2019/04/29 03:17:00	BASE	26.01	21	32.82	13	2.4	100	2.4	0	0	977.9	NA	0.0000	-SN BR	7000	360	1570	0	0
2019/04/29 03:18:00	BASE	24.88	19	32.82	13	2.4	100	2.4	0	0	977.9	NA	0.0000	-SN BR	7000	360	0	0	0
2019/04/29 03:19:00	BASE	24.43	19	30.40	18	2.4	100	2.4	0	0	977.9	NA	0.0000	-SN BR	8000	360	0	0	0
2019/04/29 03:20:00	BASE	24.23	17	30.40	18	2.4	100	2.4	0	0	978.0	NA	0.0000	-SN BR	6000	360	0	0	0
2019/04/29 03:21:00	BASE	23.29	15	30.40	18	2.4	100	2.4	0	0	978.0	NA	0.0000	-SN BR	5000	0	0	0	3350
2019/04/29 03:22:00	BASE	22.94	15	30.40	18	2.5	100	2.5	0	0	978.0	NA	0.2540	-SN BR	9000	0	0	0	3120
2019/04/29 03:23:00	BASE	22.94	15	28.91	19	2.5	100	2.5	0	0	978.0	NA	0.0000	-SN BR	8000	0	0	0	3580
2019/04/29 03:24:00	BASE	23.06	16	28.04	22	2.5	100	2.5	0	0	977.9	NA	0.0000	-SN BR	6000	360	0	0	0
2019/04/29 03:25:00	BASE	23.76	18	27.93	22	2.5	100	2.5	0	0	978.0	NA	0.0000	-SN BR	6000	0	0	0	3840
2019/04/29 03:26:00	BASE	23.84	18	27.06	15	2.5	100	2.5	0	0	978.0	NA	0.0000	-SN BR	5000	0	0	0	3310
2019/04/29 03:27:00	BASE	24.30	19	26.34	19	2.5	100	2.5	0	0	977.9	NA	0.0000	-SN BR	9999	0	0	0	3120
2019/04/29 03:28:00	BASE	24.46	19	26.13	13	2.5	100	2.5	0	0	977.9	NA	0.0000	-SN BR	9999	0	0	0	3350
2019/04/29 03:29:00	BASE	24.08	19	26.13	13	2.5	100	2.5	0	0	977.9	NA	0.0000	-SN BR	9999	390	0	0	0
2019/04/29 03:30:00	BASE	24.81	19	27.27	22	2.5	100	2.5	0	0	977.9	NA	0.0000	-SN BR	9999	330	0	0	0
2019/04/29 03:31:00	BASE	24.27	21	27.27	22	2.5	100	2.5	0	0	978.0	NA	0.0000	-SN BR	8000	360	0	0	0
2019/04/29 03:32:00	BASE	23.00	19	27.27	22	2.5	100	2.5	0	0	978.0	NA	0.0000	-SN BR	4800	330	1250	0	0
2019/04/29 03:33:00	BASE	22.29	17	27.27	22	2.5	100	2.5	0	0	978.0	NA	0.2540	-SN BR	4400	330	0	0	0
2019/04/29 03:34:00	BASE	21.34	15	27.27	22	2.5	100	2.5	0	0	978.0	NA	0.0000	-SN BR	6000	360	0	0	0
2019/04/29 03:35:00	BASE	21.27	17	27.27	22	2.5	100	2.5	0	0	978.0	NA	0.0000	-SN BR	9000	2000	0	0	0
2019/04/29 03:36:00	BASE	22.38	20	27.27	22	2.5	100	2.5	0	0	978.0	NA	0.0000	-SN BR	8000	390	1540	0	0
2019/04/29 03:37:00	BASE	23.18	19	27.27	22	2.5	100	2.5	0	0	977.9	NA	0.0000	-SN BR	5000	0	0	0	3580
2019/04/29 03:38:00	BASE	22.92	19	27.27	22	2.5	100	2.5	0	0	977.9	NA	0.0000	-SN BR	7000	360	0	0	0
2019/04/29 03:39:00	BASE	23.00	21	27.27	22	2.5	100	2.5	0	0	977.9	NA	0.0000	-SN BR	7000	1840	0	0	0
2019/04/29 03:40:00	BASE	23.92	23	27.06	16	2.5	100	2.5	0	0	977.8	NA	0.0000	-SN BR	7000	1610	0	0	0
2019/04/29 03:41:00	BASE	24.50	21	27.06	16	2.5	100	2.5	0	0	977.8	NA	0.0000	-SN BR	9999	390	0	0	0
2019/04/29 03:42:00	BASE	24.16	20	27.06	16	2.6	100	2.6	0	0	977.8	NA	0.0000	-SN BR	9999	1610	0	0	0
2019/04/29 03:43:00	BASE	23.35	18	27.06	16	2.6	100	2.6	0	0	977.9	NA	0.0000	-SN BR	9999	1640	0	0	0
2019/04/29 03:44:00	BASE	22.55	15	27.06	16	2.6	100	2.6	0	0	977.9	NA	0.0000	-SN BR	9000	430	2070	0	0
2019/04/29 03:45:00	BASE	22.25	13	27.06	16	2.6	100	2.6	0	0	977.9	NA	0.0000	-SN BR	9999	1540	2100	0	0
2019/04/29 03:46:00	BASE	22.23	11	27.06	16	2.7	100	2.7	0	0	977.9	NA	0.0000	-SN BR	9999	1610	0	0	0
2019/04/29 03:47:00	BASE	22.02	8	26.75	18	2.7	100	2.7	0	0	977.9	NA	0.0000	-SN	9999	1510	0	0	0
2019/04/29 03:48:00	BASE	21.51	6	26.75	18	2.7	100	2.7	0	0	978.0	NA	0.0000	-SN	9999	1540	0	0	0
2019/04/29 03:49:00	BASE	20.99	3	26.75	18	2.7	100	2.7	0	0	978.0	NA	0.0000	-SN	9999	1640	0	0	0
2019/04/29 03:50:00	BASE	21.18	4	26.75	18	2.7	100	2.7	0	0	978.0	NA	0.0000	-SN	9999	1540	0	0	0
2019/04/29 03:51:00	BASE	21.27	7	25.67	19	2.8	100	2.8	0	0	978.0	NA	0.0000	-SN	9999	1610	0	0	0
2019/04/29 03:52:00	BASE	21.04	7	25.46	20	2.8	100	2.8	0	0	978.0	NA	0.0000	-SN	9999	1540	0	0	0
2019/04/29 03:53:00	BASE	21.37	6	25.46	20	2.7	100	2.7	0	0	978.0	NA	0.0000	-SN	9999	1510	0	0	0
2019/04/29 03:54:00	BASE	22.41	7	25.16	7	2.7	100	2.7	0	0	978.0	NA	0.2540		9999	1540	0	0	0
2019/04/29 03:55:00	BASE	22.76	8	25.16	7	2.7	100	2.7	0	0	978.0	NA	0.0000		8000	1540	0	0	0
2019/04/29 03:56:00	BASE	23.02	7	26.91	9	2.7	100	2.7	0	0	977.9	NA	0.0000		5000	1670	0	0	0
2019/04/29 03:57:00	BASE	24.95	10	28.24	18	2.7	100	2.7	0	0	977.8	NA	0.0000	-SN	8000	390	0	0	0
2019/04/29 03:58:00	BASE	26.59	13	29.63	12	2.8	100	2.8	0	0	977.7	NA	0.0000	-SN	5000	1570	0	0	0
2019/04/29 03:59:00	BASE	26.56	10	29.63	12	2.8	100	2.8	0	0	977.7	NA	0.0000	-SN BR	9000	360	0	0	0
2019/04/29 04:00:00	BASE	25.65	10	29.63	12	2.8	100	2.8	0	0	977.8	NA	0.0000	-SN BR	8000	430	0	0	0
2019/04/29 04:01:00	BASE	26.15	14	31.18	22	2.8	100	2.8	0	0	977.7	NA	0.0000	-SN BR	9999	1540	0	0	0
2019/04/29 04:02:00	BASE	26.72	18	31.18	22	2.8	100	2.8	0	0	977.7	NA	0.0000	-SN BR	9999	1540	0	0	0
2019/04/29 04:03:00	BASE	25.21	17	31.18	22	2.8	100	2.8	0	0	977.8	NA	0.0000	-SN BR	9999	360	0	0	0
2019/04/29 04:04:00	BASE	25.05	15	31.18	22	2.8	100	2.8	0	0	977.7	NA	0.0000	-SN BR	7000	330	0	0	0
2019/04/29 04:05:00	BASE	25.78	16	31.18	22	2.8	100	2.8	0	0	977.8	NA	0.0000	-SN BR	9999	1440	0	0	0
2019/04/29 04:06:00	BASE	24.77	16	31.18	22	2.7	100	2.7	0	0	977.8	NA	0.0000	-SN BR	9999	430	0	0	0
2019/04/29 04:07:00	BASE	24.35	16	31.18	22	2.7	100	2.7	0	0	977.8	NA	0.0000	-SN BR	9000	430	0	0	0
2019/04/29 04:08:00	BASE	23.84	13	31.18	22	2.7	100	2.7	0	0	977.8	NA	0.0000	-SN BR	6000	390	0	0	0
2019/04/29 04:09:00	BASE	23.38	12	31.18	22	2.7	100	2.7	0	0	977.8	NA	0.0000	-SN	9999	430	0	0	0
2019/04/29 04:10:00	BASE	24.73	13	31.18	22	2.7	100	2.7	0	0	977.7	NA	0.0000	-SN	9999	460	0	0	0
2019/04/29 04:11:00	BASE	25.98	16	29.63	14	2.7	100	2.7	0	0	977.7	NA	0.0000	-SN	9999	430	0	0	0
2019/04/29 04:12:00	BASE	25.52	17	29.63	14	2.7	100	2.7	0	0	977.7	NA	0.0000	-SN	9999	390	0	0	0
2019/04/29 04:13:00	BASE	24.36	17	29.63	14	2.7	100	2.7	0	0	977.7	NA	0.2540	-SN	9999	360	0	0	0
2019/04/29 04:14:00	BASE	24.67	17	28.71	13	2.6	100	2.6	0	0	977.6	NA	0.0000	-SN	7000	300	0	0	0
2019/04/29 04:15:00	BASE	25.73	17	29.58	15	2.6	100	2.6	0	0	977.6	NA	0.0000	-SN BR	7000	360	0	0	0
2019/04/29 04:16:00	BASE	25.71	16	29.58	15	2.6	100	2.6	0	0	977.7	NA	0.0000	-SN BR	7000	360	1180	0	0
2019/04/29 04:17:00	BASE	25.53	15	29.58	15	2.6	100	2.6	0	0	977.6	NA	0.0000	-SN BR	6000	360	1250	0	0
2019/04/29 04:18:00	BASE	25.57	17	29.58	15	2.6	100	2.6	0	0	977.7	NA	0.0000	-SN BR	4600	300	1250	0	0
2019/04/29 04:19:00	BASE	25.25	18	29.58	15	2.6	100	2.6	0	0	977.7	NA	0.0000	-SN BR	4900	330	0	0	0
2019/04/29 04:20:00	BASE	25.43	19	29.58	15	2.5	100	2.5	0	0	977.6	NA	0.2540	-SN BR	6000	330	0	0	0
2019/04/29 04:21:00	BASE	25.54	19	29.58	15	2.5	100	2.5	0	0	977.7	NA	0.0000	-SN BR	5000	0	0	0	3150
2019/04/29 04:22:00	BASE	24.72	17	29.58	15	2.4	100	2.4	0	0	977.7	NA	0.0000	-SN BR	6000	0	0	0	3250
2019/04/29 04:23:00	BASE	24.20	16	29.58	15	2.4	100	2.4	0	0	977.7	NA	0.0000	-SN BR	7000	360	1540	0	0
2019/04/29 04:24:00	BASE	24.36	16	29.58	15	2.4	100	2.4	0	0	977.7	NA	0.0000	-SN BR	7000	360	0	0	0
2019/04/29 04:25:00	BASE	24.11	17	28.35	17	2.5	100	2.5	0	0	977.7	NA	0.0000	-SN BR	6000	360	0	0	0
2019/04/29 04:26:00	BASE	24.39	16	28.35	17	2.5	100	2.5	0	0	977.7	NA	0.0000	-SN BR	6000	390	0	0	0
2019/04/29 04:27:00	BASE	24.57	17	28.35	17	2.5	100	2.5	0	0	977.7	NA	0.0000	-SN BR	4900	360	1210	0	0
2019/04/29 04:28:00	BASE	24.64	18	28.35	17	2.5	100	2.5	0	0	977.7	NA	0.2540	-SN BR	4300	360	0	0	0
2019/04/29 04:29:00	BASE	25.41	19	28.35	17	2.5	100	2.5	0	0	977.6	NA	0.0000	-SN BR	9000	360	0	0	0
2019/04/29 04:30:00	BASE	25.86	20	27.83	15	2.5	100	2.5	0	0	977.6	NA	0.0000	-SN BR	8000	390	0	0	0
2019/04/29 04:31:00	BASE	25.92	20	28.71	21	2.5	100	2.5	0	0	977.6	NA	0.0000	-SN BR	6000	390	0	0	0
2019/04/29 04:32:00	BASE	26.29	20	28.71	21	2.5	100	2.5	0	0	977.6	NA	0.0000	-SN BR	4900	360	1540	0	0
2019/04/29 04:33:00	BASE	26.26	21	28.71	21	2.5	100	2.5	0	0	977.6	NA	0.0000	-SN BR	5000	330	0	0	0
2019/04/29 04:34:00	BASE	25.62	21	28.71	21	2.5	100	2.5	0	0	977.6	NA	0.0000	-SN BR	4100	360	1970	0	0
2019/04/29 04:35:00	BASE	25.62	22	28.71	21	2.5	100	2.5	0	0	977.7	NA	0.0000	-SN BR	4500	360	0	0	0
2019/04/29 04:36:00	BASE	25.65	24	28.71	21	2.4	100	2.4	0	0	977.7	NA	0.0000	-SN BR	4300	360	0	0	0
2019/04/29 04:37:00	BASE	25.58	23	28.71	21	2.4	100	2.4	0	0	977.7	NA	0.2540	-SN BR	5000	390	0	0	0
2019/04/29 04:38:00	BASE	25.79	21	28.71	21	2.4	100	2.4	0	0	977.6	NA	0.0000	-SN BR	6000	390	1570	0	0
2019/04/29 04:39:00	BASE	26.32	21	28.71	21	2.5	100	2.5	0	0	977.6	NA	0.0000	-SN BR	4600	390	0	0	0
2019/04/29 04:40:00	BASE	26.37	23	28.71	21	2.5	100	2.5	0	0	977.6	NA	0.0000	-SN BR	4400	390	0	0	0
2019/04/29 04:41:00	BASE	26.14	22	28.65	19	2.5	100	2.5	0	0	977.6	NA	0.0000	-SN BR	5000	330	1280	0	0
2019/04/29 04:42:00	BASE	25.20	22	28.65	19	2.5	100	2.5	0	0	977.7	NA	0.0000	-SN BR	6000	360	1280	0	0
2019/04/29 04:43:00	BASE	23.97	21	28.65	19	2.5	100	2.5	0	0	977.7	NA	0.0000	-SN BR	3900	360	1180	0	0
2019/04/29 04:44:00	BASE	24.24	22	28.65	19	2.5	100	2.5	0	0	977.7	NA	0.0000	-SN BR	4200	360	1310	0	0
2019/04/29 04:45:00	BASE	24.06	22	28.65	19	2.4	100	2.4	0	0	977.8	NA	0.0000	-SN BR	5000	360	0	0	0
2019/04/29 04:46:00	BASE	24.14	21	28.65	19	2.4	100	2.4	0	0	977.7	NA	0.2540	-SN BR	4300	360	0	0	0
2019/04/29 04:47:00	BASE	24.62	20	28.65	19	2.4	100	2.4	0	0	977.7	NA	0.0000	-SN BR	5000	330	0	0	0
2019/04/29 04:48:00	BASE	24.82	19	28.65	19	2.4	100	2.4	0	0	977.7	NA	0.0000	-SN BR	6000	330	0	0	0
2019/04/29 04:49:00	BASE	24.10	19	28.65	19	2.4	100	2.4	0	0	977.8	NA	0.0000	-SN BR	4400	330	0	0	0
2019/04/29 04:50:00	BASE	23.66	19	28.65	19	2.4	100	2.4	0	0	977.7	NA	0.0000	-SN BR	4100	330	0	0	0
2019/04/29 04:51:00	BASE	23.25	18	26.85	22	2.4	100	2.4	0	0	977.8	NA	0.0000	-SN BR	6000	360	1310	0	0
2019/04/29 04:52:00	BASE	22.02	17	26.85	22	2.4	100	2.4	0	0	977.8	NA	0.0000	-SN BR	7000	330	1180	0	0
2019/04/29 04:53:00	BASE	21.23	17	26.85	22	2.4	100	2.4	0	0	977.8	NA	0.2540	-SN BR	8000	330	0	0	0
2019/04/29 04:54:00	BASE	22.01	14	26.85	22	2.4	100	2.4	0	0	977.7	NA	0.0000	-SN BR	7000	360	0	0	0
2019/04/29 04:55:00	BASE	23.21	14	26.85	22	2.4	100	2.4	0	0	977.7	NA	0.0000	-SN BR	5000	390	0	0	0
2019/04/29 04:56:00	BASE	23.01	15	26.70	12	2.5	100	2.5	0	0	977.7	NA	0.0000	-SN BR	5000	360	1080	0	0
2019/04/29 04:57:00	BASE	23.04	14	26.70	12	2.5	100	2.5	0	0	977.7	NA	0.0000	-SN BR	5000	360	1150	0	0
2019/04/29 04:58:00	BASE	22.28	16	26.70	12	2.5	100	2.5	0	0	977.7	NA	0.0000	-SN BR	5000	360	0	0	0
2019/04/29 04:59:00	BASE	22.03	17	26.70	12	2.5	100	2.5	0	0	977.7	NA	0.0000	-SN BR	5000	360	1210	0	0
2019/04/29 05:00:00	BASE	23.17	17	26.70	12	2.5	100	2.5	0	0	977.7	NA	0.2540	-SN BR	5000	330	1150	0	0
2019/04/29 05:01:00	BASE	22.91	18	26.70	12	2.5	100	2.5	0	0	977.7	NA	0.0000	-SN BR	8000	330	1250	0	0
2019/04/29 05:02:00	BASE	22.20	17	26.70	12	2.5	100	2.5	0	0	977.7	NA	0.0000	-SN BR	7000	330	0	0	0
2019/04/29 05:03:00	BASE	22.49	16	26.70	12	2.5	100	2.5	0	0	977.8	NA	0.0000	-SN BR	6000	360	0	0	0
2019/04/29 05:04:00	BASE	22.28	14	26.49	12	2.5	100	2.5	0	0	977.8	NA	0.0000	-SN BR	7000	330	1120	0	0
2019/04/29 05:05:00	BASE	22.07	14	26.49	12	2.5	100	2.5	0	0	977.7	NA	0.0000	-SN BR	9000	360	1250	0	0
2019/04/29 05:06:00	BASE	22.65	15	26.19	16	2.5	100	2.5	0	0	977.7	NA	0.0000	-SN BR	7000	330	1120	0	0
2019/04/29 05:07:00	BASE	22.55	12	26.19	16	2.6	100	2.6	0	0	977.7	NA	0.0000	-SN BR	4700	360	1080	0	0
2019/04/29 05:08:00	BASE	22.61	13	26.24	13	2.6	100	2.6	0	0	977.7	NA	0.2540	-SN BR	5000	330	1120	0	0
2019/04/29 05:09:00	BASE	23.49	13	27.01	18	2.6	100	2.6	0	0	977.7	NA	0.0000	-SN BR	4800	330	1150	0	0
2019/04/29 05:10:00	BASE	22.75	11	27.01	18	2.6	100	2.6	0	0	977.7	NA	0.0000	-SN BR	5000	360	0	0	0
2019/04/29 05:11:00	BASE	22.22	12	27.01	18	2.6	100	2.6	0	0	977.7	NA	0.0000	-SN BR	7000	360	0	0	0
2019/04/29 05:12:00	BASE	22.92	13	27.01	18	2.6	100	2.6	0	0	977.7	NA	0.0000	-SN BR	6000	0	0	0	2490
2019/04/29 05:13:00	BASE	23.61	14	27.01	18	2.6	100	2.6	0	0	977.7	NA	0.0000	-SN BR	5000	360	0	0	0
2019/04/29 05:14:00	BASE	23.67	14	27.01	18	2.6	100	2.6	0	0	977.7	NA	0.2540	-SN BR	5000	360	1280	0	0
2019/04/29 05:15:00	BASE	23.16	14	27.01	18	2.6	100	2.6	0	0	977.7	NA	0.0000	-SN BR	5000	360	1350	0	0
2019/04/29 05:16:00	BASE	23.38	14	27.01	18	2.6	100	2.6	0	0	977.6	NA	0.0000	-SN BR	9999	360	0	0	0
2019/04/29 05:17:00	BASE	22.95	15	27.01	18	2.6	100	2.6	0	0	977.7	NA	0.0000	-SN BR	9999	360	0	0	0
2019/04/29 05:18:00	BASE	22.35	17	27.01	18	2.6	100	2.6	0	0	977.6	NA	0.0000	-SN BR	9999	390	0	0	0
2019/04/29 05:19:00	BASE	22.92	18	26.60	6	2.5	100	2.5	0	0	977.6	NA	0.0000	-SN BR	6000	360	0	0	0
2019/04/29 05:20:00	BASE	23.37	18	26.60	6	2.5	100	2.5	0	0	977.6	NA	0.0000	-SN BR	3900	360	1180	0	0
2019/04/29 05:21:00	BASE	23.74	17	26.96	15	2.5	100	2.5	0	0	977.6	NA	0.0000	-SN BR	5000	360	0	0	0
2019/04/29 05:22:00	BASE	23.77	15	26.96	15	2.5	100	2.5	0	0	977.6	NA	0.0000	-SN BR	9999	360	0	0	0
2019/04/29 05:23:00	BASE	22.72	12	26.96	15	2.5	100	2.5	0	0	977.6	NA	0.0000	-SN BR	8000	390	0	0	0
2019/04/29 05:24:00	BASE	22.57	10	26.96	15	2.6	100	2.6	0	0	977.6	NA	0.0000	-SN BR	9000	0	0	0	2820
2019/04/29 05:25:00	BASE	23.80	12	26.96	15	2.6	100	2.6	0	0	977.5	NA	0.0000	-SN BR	9999	360	0	0	0
2019/04/29 05:26:00	BASE	24.55	15	26.96	15	2.6	100	2.6	0	0	977.6	NA	0.2540	-SN BR	9999	0	0	0	2760
2019/04/29 05:27:00	BASE	23.61	16	26.96	15	2.6	100	2.6	0	0	977.6	NA	0.0000	-SN BR	8000	360	0	0	0
2019/04/29 05:28:00	BASE	23.15	16	26.96	15	2.6	100	2.6	0	0	977.6	NA	0.0000	-SN BR	8000	330	1080	0	0
2019/04/29 05:29:00	BASE	24.86	15	28.35	17	2.6	100	2.6	0	0	977.4	NA	0.0000	-SN BR	7000	330	1120	0	0
2019/04/29 05:30:00	BASE	25.43	15	28.35	17	2.6	100	2.6	0	0	977.5	NA	0.0000	-SN BR	6000	330	0	0	0
2019/04/29 05:31:00	BASE	25.52	15	28.65	8	2.6	100	2.6	0	0	977.5	NA	0.0000	-SN BR	6000	330	0	0	0
2019/04/29 05:32:00	BASE	25.14	13	28.65	8	2.6	100	2.6	0	0	977.5	NA	0.0000	-SN BR	5000	330	1120	0	0
2019/04/29 05:33:00	BASE	24.76	12	28.65	8	2.6	100	2.6	0	0	977.5	NA	0.0000	-SN BR	4400	330	0	0	0
2019/04/29 05:34:00	BASE	25.17	12	28.65	8	2.6	100	2.6	0	0	977.5	NA	0.0000	-SN BR	5000	300	0	0	0
2019/04/29 05:35:00	BASE	24.86	10	28.65	8	2.6	100	2.6	0	0	977.5	NA	0.2540	-SN BR	4700	330	0	0	0
2019/04/29 05:36:00	BASE	25.43	12	28.65	8	2.6	100	2.6	0	0	977.5	NA	0.0000	-SN BR	7000	330	0	0	0
2019/04/29 05:37:00	BASE	26.46	13	28.65	8	2.5	100	2.5	0	0	977.4	NA	0.0000	-SN BR	8000	330	0	0	0
2019/04/29 05:38:00	BASE	26.32	13	28.65	8	2.5	100	2.5	0	0	977.5	NA	0.0000	-SN BR	8000	330	0	0	0
2019/04/29 05:39:00	BASE	25.81	13	28.65	8	2.5	100	2.5	0	0	977.5	NA	0.0000	-SN BR	6000	330	0	0	0
2019/04/29 05:40:00	BASE	24.10	10	28.65	8	2.4	100	2.4	0	0	977.6	NA	0.0000	-SN BR	5000	330	0	0	0
2019/04/29 05:41:00	BASE	22.27	6	28.04	19	2.4	100	2.4	0	0	977.6	NA	0.0000	-SN BR	7000	0	0	0	2460
2019/04/29 05:42:00	BASE	22.75	7	28.04	19	2.4	100	2.4	0	0	977.6	NA	0.0000	-SN BR	9999	0	0	0	2460
2019/04/29 05:43:00	BASE	23.18	10	28.04	19	2.4	100	2.4	0	0	977.6	NA	0.0000	-SN BR	8000	0	0	0	2400
2019/04/29 05:44:00	BASE	22.53	11	28.04	19	2.4	100	2.4	0	0	977.7	NA	0.2540	-SN BR	7000	0	0	0	2430
2019/04/29 05:45:00	BASE	22.28	10	28.04	19	2.4	100	2.4	0	0	977.6	NA	0.0000	-SN BR	6000	0	0	0	2620
2019/04/29 05:46:00	BASE	24.20	10	27.83	12	2.4	100	2.4	0	0	977.5	NA	0.0000	-SN BR	4500	360	1480	0	0
2019/04/29 05:47:00	BASE	25.36	13	27.83	12	2.4	100	2.4	0	0	977.5	NA	0.0000	-SN BR	4700	330	0	0	0
2019/04/29 05:48:00	BASE	23.80	15	27.83	12	2.4	100	2.4	0	0	977.6	NA	0.0000	-SN BR	7000	330	0	0	0
2019/04/29 05:49:00	BASE	23.20	17	27.83	12	2.4	100	2.4	0	0	977.5	NA	0.0000	-SN BR	6000	330	0	0	0
2019/04/29 05:50:00	BASE	24.72	18	27.83	12	2.4	100	2.4	0	0	977.4	NA	0.0000	-SN BR	5000	360	0	0	0
2019/04/29 05:51:00	BASE	26.45	17	28.96	18	2.3	100	2.3	0	0	977.4	NA	0.0000	-SN BR	5000	360	0	0	0
2019/04/29 05:52:00	BASE	26.17	16	28.96	18	2.3	100	2.3	0	0	977.5	NA	0.2540	-SN BR	4600	0	0	0	2560
2019/04/29 05:53:00	BASE	24.68	13	28.96	18	2.3	100	2.3	0	0	977.5	NA	0.0000	-SN BR	4400	0	0	0	2590
2019/04/29 05:54:00	BASE	23.84	9	28.96	18	2.3	100	2.3	0	0	977.6	NA	0.0000	-SN BR	4600	0	0	0	2690
2019/04/29 05:55:00	BASE	22.88	9	28.96	18	2.3	100	2.3	0	0	977.6	NA	0.0000	-SN BR	6000	0	0	0	2760
2019/04/29 05:56:00	BASE	22.34	12	28.96	18	2.3	100	2.3	0	0	977.6	NA	0.0000	-SN BR	9000	690	0	0	0
2019/04/29 05:57:00	BASE	22.72	15	28.96	18	2.3	100	2.3	0	0	977.5	NA	0.0000	-SN BR	9999	0	0	0	2820
2019/04/29 05:58:00	BASE	24.96	19	29.07	11	2.3	100	2.3	0	0	977.3	NA	0.2540	-SN BR	9000	0	0	0	2890
2019/04/29 05:59:00	BASE	26.64	20	29.07	11	2.3	100	2.3	0	0	977.4	NA	0.0000	-SN BR	7000	0	0	0	2760
2019/04/29 06:00:00	BASE	26.79	21	30.66	22	2.4	100	2.4	0	0	977.4	NA	0.0000	-SN BR	9000	0	0	0	2820
2019/04/29 06:01:00	BASE	27.02	20	30.66	22	2.4	100	2.4	0	0	977.3	NA	0.0000	-SN BR	5000	0	0	0	2820
2019/04/29 06:02:00	BASE	25.45	18	30.66	22	2.4	100	2.4	0	0	977.5	NA	0.0000	-SN BR	4800	0	0	0	2890
2019/04/29 06:03:00	BASE	24.48	20	30.66	22	2.4	100	2.4	0	0	977.4	NA	0.0000	-SN BR	9999	0	0	0	2760
2019/04/29 06:04:00	BASE	24.68	20	30.66	22	2.4	100	2.4	0	0	977.4	NA	0.0000	-SN BR	9999	0	0	0	2720
2019/04/29 06:05:00	BASE	23.88	22	30.66	22	2.4	100	2.4	0	0	977.5	NA	0.0000	-SN BR	7000	390	0	0	0
2019/04/29 06:06:00	BASE	24.42	26	30.66	22	2.4	100	2.4	0	0	977.4	NA	0.0000	-SN BR	5000	620	0	0	0
2019/04/29 06:07:00	BASE	25.74	27	30.66	22	2.4	100	2.4	0	0	977.4	NA	0.0000	-SN BR	5000	1670	0	0	0
2019/04/29 06:08:00	BASE	25.39	25	30.66	22	2.4	100	2.4	0	0	977.4	NA	0.0000	-SN BR	4100	360	0	0	0
2019/04/29 06:09:00	BASE	25.52	24	30.66	22	2.4	100	2.4	0	0	977.4	NA	0.2540	-SN BR	4800	0	0	0	2530
2019/04/29 06:10:00	BASE	25.96	24	30.61	12	2.4	100	2.4	0	0	977.4	NA	0.0000	-SN BR	3900	360	0	0	0
2019/04/29 06:11:00	BASE	25.23	24	28.40	25	2.4	100	2.4	0	0	977.4	NA	0.0000	-SN BR	4100	0	0	0	2430
2019/04/29 06:12:00	BASE	25.30	25	29.07	26	2.4	100	2.4	0	0	977.4	NA	0.0000	-SN BR	4800	0	0	0	2300
2019/04/29 06:13:00	BASE	25.44	25	29.07	26	2.4	100	2.4	0	0	977.4	NA	0.0000	-SN BR	4000	0	0	0	2430
2019/04/29 06:14:00	BASE	25.54	24	29.07	26	2.4	100	2.4	0	0	977.4	NA	0.0000	-SN BR	4200	390	0	0	0
2019/04/29 06:15:00	BASE	26.35	23	29.07	26	2.4	100	2.4	0	0	977.4	NA	0.0000	-SN BR	7000	0	0	0	2560
2019/04/29 06:16:00	BASE	25.51	22	29.07	26	2.4	100	2.4	0	0	977.5	NA	0.0000	-SN BR	6000	0	0	0	2560
2019/04/29 06:17:00	BASE	24.53	23	29.07	26	2.3	100	2.3	0	0	977.5	NA	0.2540	-SN BR	5000	0	0	0	2620
2019/04/29 06:18:00	BASE	24.74	22	29.07	26	2.3	100	2.3	0	0	977.5	NA	0.0000	-SN BR	4100	0	0	0	2590
2019/04/29 06:19:00	BASE	24.77	21	29.07	26	2.3	100	2.3	0	0	977.5	NA	0.0000	-SN BR	3400	360	0	0	0
2019/04/29 06:20:00	BASE	23.80	22	29.07	26	2.3	100	2.3	0	0	977.5	NA	0.0000	-SN BR	3600	390	0	0	0
2019/04/29 06:21:01	BASE	23.70	23	29.07	26	2.3	100	2.3	0	0	977.5	NA	0.0000	-SN BR	4300	850	0	0	0
2019/04/29 06:22:01	BASE	24.04	23	28.55	23	2.3	100	2.3	0	0	977.5	NA	0.2540	-SN BR	5000	390	0	0	0
2019/04/29 06:23:01	BASE	23.65	23	28.55	23	2.2	100	2.2	0	0	977.5	NA	0.0000	-SN BR	3500	690	0	0	0
2019/04/29 06:24:01	BASE	23.36	23	28.55	23	2.2	100	2.2	0	0	977.5	NA	0.0000	-SN BR	3800	660	0	0	0
2019/04/29 06:25:01	BASE	23.17	22	27.37	15	2.2	100	2.2	0	0	977.5	NA	0.0000	-SN BR	4400	0	0	0	2760
2019/04/29 06:26:01	BASE	23.15	23	27.37	15	2.2	100	2.2	0	0	977.5	NA	0.0000	-SN BR	5000	0	0	0	3020
2019/04/29 06:27:01	BASE	23.46	24	27.37	15	2.2	100	2.2	0	0	977.4	NA	0.0000	-SN BR	4100	0	0	0	3080
2019/04/29 06:28:01	BASE	24.45	27	28.14	26	2.2	100	2.2	0	0	977.4	NA	0.0000	-SN BR	3800	0	0	0	3250
2019/04/29 06:29:01	BASE	24.99	26	28.14	26	2.3	100	2.3	0	0	977.3	NA	0.0000	-SN BR	4000	0	0	0	3080
2019/04/29 06:30:01	BASE	25.16	24	28.14	26	2.3	100	2.3	0	0	977.3	NA	0.2540	-SN BR	5000	0	0	0	3810
2019/04/29 06:31:01	BASE	23.43	25	28.14	26	2.3	100	2.3	0	0	977.4	NA	0.0000	-SN BR	9000	0	0	0	5250
2019/04/29 06:32:01	BASE	21.78	27	28.14	26	2.3	100	2.3	0	0	977.4	NA	0.0000	-SN BR	9000	0	0	0	5710
2019/04/29 06:33:01	BASE	21.81	26	28.14	26	2.3	100	2.3	0	0	977.4	NA	0.0000	-SN BR	9000	0	0	0	820
2019/04/29 06:34:01	BASE	21.16	24	28.14	26	2.3	100	2.3	0	0	977.4	NA	0.0000	-SN BR	8000	0	0	0	720
2019/04/29 06:35:01	BASE	21.36	24	28.14	26	2.3	100	2.3	0	0	977.3	NA	0.0000	-SN BR	9999	0	0	0	4170
2019/04/29 06:36:01	BASE	21.69	26	28.14	26	2.3	100	2.3	0	0	977.3	NA	0.0000	-SN BR	9999	0	0	0	3770
2019/04/29 06:37:01	BASE	21.98	27	28.14	26	2.4	100	2.4	0	0	977.3	NA	0.0000	-SN BR	8000	0	0	0	3810
2019/04/29 06:38:01	BASE	22.45	26	27.88	21	2.4	100	2.4	0	0	977.2	NA	0.0000	-SN BR	7000	0	0	0	3740
2019/04/29 06:39:01	BASE	22.75	27	27.88	21	2.5	100	2.5	0	0	977.1	NA	0.0000	-SN BR	9999	0	0	0	3510
2019/04/29 06:40:01	BASE	24.44	30	30.04	32	2.5	100	2.5	0	0	977.1	NA	0.0000	-SN	9999	0	0	0	3480
2019/04/29 06:41:01	BASE	25.12	28	30.04	32	2.5	100	2.5	0	0	977.1	NA	0.0000	-SN	9999	0	0	0	3250
2019/04/29 06:42:01	BASE	24.16	24	30.04	32	2.5	100	2.5	0	0	977.1	NA	0.0000	-SN	7000	790	0	0	0
2019/04/29 06:43:01	BASE	23.77	25	30.04	32	2.6	100	2.6	0	0	977.1	NA	0.0000	-SN BR	6000	0	0	0	3150
2019/04/29 06:44:01	BASE	24.91	25	30.04	32	2.6	100	2.6	0	0	977.1	NA	0.0000	-SN BR	4500	0	0	0	3250
2019/04/29 06:45:01	BASE	25.80	24	30.04	32	2.6	100	2.6	0	0	977.1	NA	0.0000	-SN BR	4700	390	0	0	0
2019/04/29 06:46:01	BASE	24.68	24	30.04	32	2.6	100	2.6	0	0	977.2	NA	0.0000	-SN BR	5000	0	0	0	3710
2019/04/29 06:47:01	BASE	24.69	23	30.04	32	2.7	100	2.7	0	0	977.1	NA	0.2540	-SN BR	5000	920	0	0	0
2019/04/29 06:48:01	BASE	26.29	23	30.25	27	2.7	100	2.7	0	0	977.1	NA	0.0000	-SN BR	8000	0	0	0	3180
2019/04/29 06:49:01	BASE	26.11	24	30.25	27	2.7	100	2.7	0	0	977.2	NA	0.0000	-SN BR	6000	2300	0	0	0
2019/04/29 06:50:01	BASE	26.09	24	30.25	27	2.7	100	2.7	0	0	977.1	NA	0.0000	-SN BR	9999	1770	0	0	0
2019/04/29 06:51:01	BASE	26.92	22	30.25	27	2.8	100	2.8	0	0	977.1	NA	0.0000	-SN BR	9999	1710	0	0	0
2019/04/29 06:52:01	BASE	25.79	21	30.25	27	2.8	100	2.8	0	0	977.2	NA	0.0000	-SN BR	9999	1840	0	0	0
2019/04/29 06:53:01	BASE	25.10	18	30.25	27	2.8	100	2.8	0	0	977.3	NA	0.0000	-SN BR	9999	1870	0	0	0
2019/04/29 06:54:01	BASE	25.33	17	30.25	27	2.8	100	2.8	0	0	977.2	NA	0.0000	-SN BR	9999	1870	0	0	0
2019/04/29 06:55:01	BASE	24.60	20	30.25	27	2.8	100	2.8	0	0	977.3	NA	0.0000	-SN BR	9999	0	0	0	3150
2019/04/29 06:56:01	BASE	23.63	19	30.25	27	2.8	100	2.8	0	0	977.3	NA	0.0000	-SN	9999	430	0	0	0
2019/04/29 06:57:01	BASE	23.09	19	30.25	27	2.7	100	2.7	0	0	977.3	NA	0.0000	-SN	9000	2070	0	0	0
2019/04/29 06:58:01	BASE	23.55	19	29.27	15	2.7	100	2.7	0	0	977.3	NA	0.0000	-SN	9999	0	0	0	3670
2019/04/29 06:59:01	BASE	24.37	19	29.27	15	2.6	100	2.6	0	0	977.2	NA	0.0000	-SN	8000	1770	0	0	0
2019/04/29 07:00:01	BASE	24.41	20	29.27	15	2.6	100	2.6	0	0	977.3	NA	0.0000	-SN	9999	1050	1740	0	0
2019/04/29 07:01:01	BASE	24.30	19	28.50	23	2.6	100	2.6	0	0	977.2	NA	0.0000	-SN	9999	1710	0	0	0
2019/04/29 07:02:01	BASE	23.72	21	28.19	15	2.6	100	2.6	0	0	977.2	NA	0.0000	-SN	9999	1080	0	0	0
2019/04/29 07:03:01	BASE	23.97	21	28.19	15	2.6	100	2.6	0	0	977.2	NA	0.0000	-SN	9999	1870	0	0	0
2019/04/29 07:04:01	BASE	23.85	19	28.19	15	2.6	100	2.6	0	0	977.3	NA	0.0000	-SN	9999	1740	0	0	0
2019/04/29 07:05:01	BASE	23.39	20	28.19	15	2.7	100	2.7	0	0	977.2	NA	0.0000	-SN	9999	1740	0	0	0
2019/04/29 07:06:01	BASE	24.10	20	28.19	15	2.7	100	2.7	0	0	977.2	NA	0.0000	-SN	9999	1150	0	0	0
2019/04/29 07:07:01	BASE	24.17	20	28.19	15	2.7	100	2.7	0	0	977.2	NA	0.0000	-SN	9999	1020	0	0	0
2019/04/29 07:08:01	BASE	24.62	20	28.19	15	2.7	100	2.7	0	0	977.2	NA	0.0000	-SN	9999	1120	0	0	0
2019/04/29 07:09:01	BASE	24.83	20	28.40	29	2.7	100	2.7	0	0	977.2	NA	0.0000	-SN	9999	1710	0	0	0
2019/04/29 07:10:00	BASE	23.57	22	28.40	29	2.7	100	2.7	0	0	977.3	NA	0.0000	-SN	9999	1840	0	0	0
2019/04/29 07:11:01	BASE	22.52	22	28.40	29	2.7	100	2.7	0	0	977.3	NA	0.0000	-SN	9999	1770	0	0	0
2019/04/29 07:12:00	BASE	22.02	18	28.40	29	2.8	100	2.8	0	0	977.4	NA	0.0000	-SN	9999	1770	0	0	0
2019/04/29 07:13:00	BASE	21.72	14	28.40	29	2.8	100	2.8	0	0	977.3	NA	0.0000	-SN	9999	1800	0	0	0
2019/04/29 07:14:00	BASE	22.31	16	28.40	29	2.7	100	2.7	0	0	977.3	NA	0.0000	-SN	9999	1510	0	0	0
2019/04/29 07:15:00	BASE	22.80	20	28.40	29	2.8	100	2.8	0	0	977.3	NA	0.0000	-SN	9999	0	0	0	3480
2019/04/29 07:16:00	BASE	23.96	21	28.40	29	2.8	100	2.8	0	0	977.2	NA	0.0000	-SN	9999	390	0	0	0
2019/04/29 07:17:00	BASE	25.50	20	29.43	20	2.8	100	2.8	0	0	977.2	NA	0.0000	-SN	9999	0	0	0	4000
2019/04/29 07:18:00	BASE	23.74	18	29.43	20	2.8	100	2.8	0	0	977.3	NA	0.0000	-SN	9999	1210	0	0	0
2019/04/29 07:19:00	BASE	21.38	18	29.43	20	2.8	100	2.8	0	0	977.4	NA	0.0000	-SN	9999	0	0	0	3870
2019/04/29 07:20:01	BASE	20.54	14	29.43	20	2.7	100	2.7	0	0	977.4	NA	0.0000	-SN	9999	0	0	0	3580
2019/04/29 07:21:00	BASE	19.39	8	29.43	20	2.7	100	2.7	0	0	977.4	NA	0.0000	-SN	9999	0	0	0	3410
2019/04/29 07:22:00	BASE	19.28	5	29.43	20	2.6	100	2.6	0	0	977.4	NA	0.0000	-SN	9999	0	0	0	3510
2019/04/29 07:23:01	BASE	19.04	6	29.43	20	2.6	100	2.6	0	0	977.4	NA	0.0000	-SN	9999	820	0	0	0
2019/04/29 07:24:00	BASE	19.14	10	29.43	20	2.5	100	2.5	0	0	977.4	NA	0.2540	-SN	9999	850	0	0	0
2019/04/29 07:25:00	BASE	19.29	11	29.43	20	2.5	100	2.5	0	0	977.4	NA	0.0000	-SN	9999	790	1740	0	0
2019/04/29 07:26:01	BASE	18.52	8	29.43	20	2.5	100	2.5	0	0	977.3	NA	0.0000		9999	660	0	0	0
2019/04/29 07:27:01	BASE	19.31	8	25.00	21	2.5	100	2.5	0	0	977.3	NA	0.0000		9999	620	1510	0	0
2019/04/29 07:28:01	BASE	21.27	12	24.54	8	2.6	100	2.6	0	0	977.2	NA	0.0000		9999	820	0	0	0
2019/04/29 07:29:00	BASE	23.13	15	27.68	24	2.6	100	2.6	0	0	977.2	NA	0.0000		8000	390	0	0	0
2019/04/29 07:30:00	BASE	25.05	17	29.84	17	2.6	100	2.6	0	0	977.0	NA	0.0000	-SN	6000	360	0	0	0
2019/04/29 07:31:00	BASE	26.31	18	29.84	17	2.6	100	2.6	0	0	977.0	NA	0.0000	-SN	6000	360	0	0	0
2019/04/29 07:32:00	BASE	26.20	20	29.84	17	2.6	100	2.6	0	0	977.1	NA	0.0000	-SN BR	4600	0	0	0	2890
2019/04/29 07:33:00	BASE	25.44	18	29.84	17	2.6	100	2.6	0	0	977.0	NA	0.0000	-SN BR	3900	0	0	0	2820
2019/04/29 07:34:00	BASE	25.91	19	29.84	15	2.5	100	2.5	0	0	977.0	NA	0.0000	-SN BR	5000	390	0	0	0
2019/04/29 07:35:00	BASE	27.74	22	31.74	25	2.5	100	2.5	0	0	976.9	NA	0.0000	-SN BR	5000	360	0	0	0
2019/04/29 07:36:00	BASE	27.23	23	31.74	25	2.5	100	2.5	0	0	976.9	NA	0.2540	-SN BR	3700	360	0	0	0
2019/04/29 07:37:00	BASE	25.34	23	31.74	25	2.5	100	2.5	0	0	977.0	NA	0.0000	-SN BR	4400	390	0	0	0
2019/04/29 07:38:00	BASE	26.19	22	31.74	25	2.5	100	2.5	0	0	976.9	NA	0.0000	-SN BR	4100	360	0	0	0
2019/04/29 07:39:00	BASE	26.65	22	31.74	25	2.5	100	2.5	0	0	977.0	NA	0.0000	-SN BR	4000	360	0	0	0
2019/04/29 07:40:00	BASE	26.11	20	31.74	25	2.5	100	2.5	0	0	977.0	NA	0.0000	-SN BR	4000	360	1380	0	0
2019/04/29 07:41:00	BASE	25.70	18	31.74	25	2.5	100	2.5	0	0	977.0	NA	0.0000	-SN BR	3600	330	1510	0	0
2019/04/29 07:42:00	BASE	24.32	19	31.74	25	2.5	100	2.5	0	0	977.1	NA	0.2540	-SN BR	4400	430	0	0	0
2019/04/29 07:43:00	BASE	23.36	19	31.74	25	2.5	100	2.5	0	0	977.1	NA	0.0000	-SN BR	5000	0	0	0	2760
2019/04/29 07:44:00	BASE	23.31	18	31.74	25	2.5	100	2.5	0	0	977.1	NA	0.0000	-SN BR	5000	0	0	0	3080
2019/04/29 07:45:00	BASE	23.93	19	29.12	19	2.5	100	2.5	0	0	977.0	NA	0.0000	-SN BR	8000	430	0	0	0
2019/04/29 07:46:00	BASE	24.64	21	29.12	19	2.5	100	2.5	0	0	977.0	NA	0.0000	-SN BR	9000	390	0	0	0
2019/04/29 07:47:00	BASE	24.28	20	29.12	19	2.5	100	2.5	0	0	977.0	NA	0.0000	-SN BR	5000	330	0	0	0
2019/04/29 07:48:00	BASE	23.90	19	29.07	20	2.5	100	2.5	0	0	977.0	NA	0.0000	-SN BR	6000	360	0	0	0
2019/04/29 07:49:01	BASE	24.94	20	29.07	20	2.5	100	2.5	0	0	976.9	NA	0.0000	-SN BR	7000	360	0	0	0
2019/04/29 07:50:01	BASE	25.67	19	29.07	20	2.5	100	2.5	0	0	976.9	NA	0.0000	-SN BR	6000	360	0	0	0
2019/04/29 07:51:01	BASE	24.48	19	29.07	20	2.5	100	2.5	0	0	977.0	NA	0.0000	-SN BR	9999	0	0	0	3710
2019/04/29 07:52:01	BASE	24.14	20	30.56	21	2.5	100	2.5	0	0	976.9	NA	0.0000	-SN BR	9999	0	0	0	3580
2019/04/29 07:53:01	BASE	25.87	21	30.56	21	2.6	100	2.6	0	0	976.9	NA	0.2540	-SN BR	9000	0	0	0	3580
2019/04/29 07:54:01	BASE	25.65	20	30.56	21	2.6	100	2.6	0	0	976.9	NA	0.0000	-SN BR	7000	390	0	0	0
2019/04/29 07:55:00	BASE	23.96	18	30.56	21	2.6	100	2.6	0	0	976.9	NA	0.0000	-SN BR	8000	0	0	0	3900
2019/04/29 07:56:00	BASE	24.74	17	30.56	21	2.6	100	2.6	0	0	976.8	NA	0.0000	-SN BR	9999	0	0	0	3970
2019/04/29 07:57:00	BASE	26.34	19	30.56	21	2.6	100	2.6	0	0	976.8	NA	0.0000	-SN BR	7000	0	0	0	3810
2019/04/29 07:58:00	BASE	27.33	20	30.56	21	2.5	100	2.5	0	0	976.8	NA	0.0000	-SN BR	5000	360	0	0	0
2019/04/29 07:59:00	BASE	28.16	21	32.20	18	2.5	100	2.5	0	0	976.7	NA	0.0000	-SN BR	6000	360	0	0	0
2019/04/29 08:00:00	BASE	28.01	21	32.20	18	2.5	100	2.5	0	0	976.8	NA	0.0000	-SN BR	5000	360	0	0	0
2019/04/29 08:01:00	BASE	27.31	20	32.20	18	2.6	100	2.6	0	0	976.8	NA	0.0000	-SN BR	5000	0	0	0	4430
2019/04/29 08:02:00	BASE	27.34	20	32.20	18	2.6	100	2.6	0	0	976.8	NA	0.0000	-SN BR	4700	0	0	0	3770
2019/04/29 08:03:00	BASE	26.83	20	32.20	18	2.6	100	2.6	0	0	976.9	NA	0.0000	-SN BR	2500	0	0	0	4230
2019/04/29 08:04:01	BASE	26.14	21	32.20	18	2.5	100	2.5	0	0	976.8	NA	0.0000	-SN BR	3000	850	0	0	0
2019/04/29 08:05:00	BASE	26.25	21	32.20	18	2.5	100	2.5	0	0	976.8	NA	0.2540	-SN BR	4400	950	0	0	0
2019/04/29 08:06:00	BASE	26.16	21	32.20	18	2.5	100	2.5	0	0	976.8	NA	0.0000	-SN BR	6000	850	0	0	0
2019/04/29 08:07:00	BASE	26.63	20	32.20	18	2.5	100	2.5	0	0	976.8	NA	0.0000	-SN BR	9999	0	0	0	4460
2019/04/29 08:08:00	BASE	27.02	17	32.20	18	2.5	100	2.5	0	0	976.8	NA	0.0000	-SN BR	7000	0	0	0	3940
2019/04/29 08:09:00	BASE	27.42	18	30.97	19	2.5	100	2.5	0	0	976.8	NA	0.0000	-SN BR	6000	0	0	0	4820
2019/04/29 08:10:00	BASE	27.82	20	30.51	22	2.5	100	2.5	0	0	976.7	NA	0.0000	-SN BR	9999	0	0	0	4890
2019/04/29 08:11:00	BASE	28.43	22	30.66	22	2.5	100	2.5	0	0	976.7	NA	0.0000	-SN BR	9999	0	0	0	4530
2019/04/29 08:12:00	BASE	27.76	22	30.66	22	2.5	100	2.5	0	0	976.7	NA	0.0000	-SN BR	9999	0	0	0	3810
2019/04/29 08:13:00	BASE	26.21	19	30.66	22	2.5	100	2.5	0	0	976.8	NA	0.0000	-SN BR	9999	0	0	0	3840
2019/04/29 08:14:00	BASE	25.96	20	30.66	22	2.5	100	2.5	0	0	976.7	NA	0.0000	-SN BR	7000	0	0	0	3970
2019/04/29 08:15:01	BASE	26.17	21	30.66	22	2.5	100	2.5	0	0	976.7	NA	0.0000	-SN BR	5000	0	0	0	3670
2019/04/29 08:16:01	BASE	25.53	20	30.66	22	2.5	100	2.5	0	0	976.8	NA	0.0000	-SN BR	6000	0	0	0	3670
2019/04/29 08:17:01	BASE	24.90	19	30.66	22	2.5	100	2.5	0	0	976.7	NA	0.0000	-SN BR	7000	0	0	0	4920
2019/04/29 08:18:00	BASE	24.52	19	30.66	22	2.5	100	2.5	0	0	976.8	NA	0.0000	-SN BR	9999	0	0	0	4920
2019/04/29 08:19:01	BASE	24.11	20	30.66	22	2.5	100	2.5	0	0	976.8	NA	0.0000	-SN BR	9999	0	0	0	5450
2019/04/29 08:20:00	BASE	23.47	21	30.66	22	2.5	100	2.5	0	0	976.8	NA	0.0000	-SN BR	9999	0	0	0	6500
2019/04/29 08:21:00	BASE	23.49	22	29.32	20	2.5	100	2.5	0	0	976.8	NA	0.0000	-SN BR	9999	0	0	0	5740
2019/04/29 08:22:00	BASE	24.00	20	28.81	22	2.5	100	2.5	0	0	976.7	NA	0.0000	-SN BR	9000	0	0	0	5680
2019/04/29 08:23:00	BASE	24.56	22	28.81	22	2.5	100	2.5	0	0	976.7	NA	0.0000	-SN BR	7000	0	0	0	4990
2019/04/29 08:24:00	BASE	24.31	22	28.81	22	2.5	100	2.5	0	0	976.7	NA	0.0000	-SN BR	8000	0	0	0	4330
2019/04/29 08:25:00	BASE	22.60	22	27.63	32	2.5	100	2.5	0	0	976.7	NA	0.0000	-SN BR	9999	0	0	0	3970
2019/04/29 08:26:00	BASE	23.24	22	27.63	32	2.5	100	2.5	0	0	976.6	NA	0.0000	-SN BR	9999	0	0	0	5020
2019/04/29 08:27:00	BASE	24.41	22	27.63	32	2.5	100	2.5	0	0	976.6	NA	0.0000	-SN	9999	0	0	0	6040
2019/04/29 08:28:00	BASE	24.42	22	27.63	32	2.5	100	2.5	0	0	976.6	NA	0.2540	-SN	9999	0	0	0	5970
2019/04/29 08:29:00	BASE	25.37	23	28.81	31	2.5	100	2.5	0	0	976.5	NA	0.0000	-SN	9999	0	0	0	5020
2019/04/29 08:30:00	BASE	25.79	23	28.81	31	2.5	100	2.5	0	0	976.5	NA	0.0000	-SN	9999	0	0	0	5250
2019/04/29 08:31:00	BASE	26.46	22	31.28	23	2.5	100	2.5	0	0	976.5	NA	0.0000	-SN	9999	0	0	0	5410
2019/04/29 08:32:00	BASE	27.67	24	31.28	23	2.5	100	2.5	0	0	976.4	NA	0.0000	-SN	9999	0	0	0	5280
2019/04/29 08:33:00	BASE	27.69	23	31.28	23	2.5	100	2.5	0	0	976.4	NA	0.0000	-SN	9999	0	0	0	5320
2019/04/29 08:34:00	BASE	27.08	22	31.28	23	2.5	100	2.5	0	0	976.5	NA	0.0000	-SN	9999	720	0	0	0
2019/04/29 08:35:00	BASE	26.51	22	31.28	23	2.5	100	2.5	0	0	976.5	NA	0.0000	-SN	9999	0	0	0	5580
2019/04/29 08:36:00	BASE	26.95	23	31.28	23	2.5	100	2.5	0	0	976.5	NA	0.0000	-SN	8000	0	0	0	5410
2019/04/29 08:37:00	BASE	28.02	22	31.74	22	2.5	100	2.5	0	0	976.3	NA	0.0000	-SN	6000	0	0	0	4530
2019/04/29 08:38:00	BASE	28.18	22	31.74	22	2.5	100	2.5	0	0	976.4	NA	0.0000	-SN BR	5000	0	0	0	4560
2019/04/29 08:39:00	BASE	27.72	22	31.74	22	2.5	100	2.5	0	0	976.4	NA	0.0000	-SN BR	8000	0	0	0	4130
2019/04/29 08:40:00	BASE	28.10	22	31.74	22	2.5	100	2.5	0	0	976.4	NA	0.0000	-SN BR	8000	0	0	0	3840
2019/04/29 08:41:00	BASE	28.34	22	31.74	22	2.5	100	2.5	0	0	976.4	NA	0.0000	-SN BR	7000	0	0	0	3940
2019/04/29 08:42:00	BASE	27.87	21	31.74	22	2.5	100	2.5	0	0	976.4	NA	0.0000	-SN BR	5000	0	0	0	3640
2019/04/29 08:43:00	BASE	28.16	21	31.74	22	2.5	100	2.5	0	0	976.4	NA	0.0000	-SN BR	5000	0	0	0	2950
2019/04/29 08:44:00	BASE	27.91	20	31.74	22	2.5	100	2.5	0	0	976.4	NA	0.0000	-SN BR	4400	430	0	0	0
2019/04/29 08:45:00	BASE	27.05	21	31.74	22	2.5	100	2.5	0	0	976.5	NA	0.0000	-SN BR	5000	430	0	0	0
2019/04/29 08:46:00	BASE	26.98	22	31.74	22	2.5	100	2.5	0	0	976.5	NA	0.2540	-SN BR	7000	0	0	0	3540
2019/04/29 08:47:00	BASE	27.28	21	31.38	23	2.5	100	2.5	0	0	976.4	NA	0.0000	-SN BR	8000	430	0	0	0
2019/04/29 08:48:00	BASE	27.89	21	31.38	23	2.5	100	2.5	0	0	976.4	NA	0.0000	-SN BR	4800	0	0	0	3310
2019/04/29 08:49:00	BASE	27.88	21	30.76	23	2.5	100	2.5	0	0	976.4	NA	0.0000	-SN BR	4500	0	0	0	3280
2019/04/29 08:50:00	BASE	27.02	20	30.76	23	2.5	100	2.5	0	0	976.5	NA	0.0000	-SN BR	5000	390	0	0	0
2019/04/29 08:51:00	BASE	27.27	21	30.40	23	2.5	100	2.5	0	0	976.5	NA	0.0000	-SN BR	5000	430	0	0	0
2019/04/29 08:52:00	BASE	27.45	22	30.40	23	2.5	100	2.5	0	0	976.5	NA	0.0000	-SN BR	4100	430	0	0	0
2019/04/29 08:53:00	BASE	26.94	22	31.38	21	2.4	100	2.4	0	0	976.5	NA	0.0000	-SN BR	3600	430	0	0	0
2019/04/29 08:54:00	BASE	27.54	22	31.38	24	2.4	100	2.4	0	0	976.4	NA	0.0000	-SN BR	4400	430	0	0	0
2019/04/29 08:55:00	BASE	27.23	23	31.38	24	2.4	100	2.4	0	0	976.5	NA	0.0000	-SN BR	3700	430	0	0	0
2019/04/29 08:56:00	BASE	26.64	25	31.38	24	2.4	100	2.4	0	0	976.5	NA	0.0000	-SN BR	3300	390	1350	0	0
2019/04/29 08:57:00	BASE	26.72	25	31.38	24	2.4	100	2.4	0	0	976.5	NA	0.0000	-SN BR	3500	390	0	0	0
2019/04/29 08:58:00	BASE	25.07	25	31.38	24	2.4	100	2.4	0	0	976.5	NA	0.0000	-SN BR	3500	620	1410	0	0
2019/04/29 08:59:00	BASE	24.96	24	31.38	24	2.4	100	2.4	0	0	976.5	NA	0.0000	-SN BR	4200	390	1440	0	0
2019/04/29 09:00:00	BASE	25.84	24	31.38	24	2.4	100	2.4	0	0	976.5	NA	0.0000	-SN BR	4200	430	0	0	0
2019/04/29 09:01:00	BASE	24.11	23	31.38	24	2.4	100	2.4	0	0	976.6	NA	0.0000	-SN BR	5000	1800	0	0	0
2019/04/29 09:02:01	BASE	23.30	23	31.38	24	2.4	100	2.4	0	0	976.6	NA	0.2540	-SN BR	4700	590	0	0	0
2019/04/29 09:03:01	BASE	24.41	23	31.38	24	2.4	100	2.4	0	0	976.5	NA	0.0000	-SN BR	4000	0	0	0	2530
2019/04/29 09:04:01	BASE	25.19	23	30.51	27	2.4	100	2.4	0	0	976.5	NA	0.0000	-SN BR	4200	0	0	0	2560
2019/04/29 09:05:01	BASE	24.90	24	30.51	27	2.5	100	2.5	0	0	976.5	NA	0.0000	-SN BR	4900	790	0	0	0
2019/04/29 09:06:01	BASE	24.69	25	30.51	27	2.5	100	2.5	0	0	976.5	NA	0.0000	-SN BR	4000	0	0	0	2790
2019/04/29 09:07:01	BASE	23.39	24	29.94	26	2.5	100	2.5	0	0	976.6	NA	0.0000	-SN BR	5000	0	0	0	2990
2019/04/29 09:08:01	BASE	22.06	23	29.94	26	2.6	100	2.6	0	0	976.6	NA	0.0000	-SN BR	8000	0	0	0	3150
2019/04/29 09:09:00	BASE	22.26	25	29.01	31	2.6	100	2.6	0	0	976.6	NA	0.0000	-SN BR	8000	0	0	0	2890
2019/04/29 09:10:01	BASE	21.98	22	29.01	31	2.6	100	2.6	0	0	976.6	NA	0.0000	-SN BR	9999	390	0	0	0
2019/04/29 09:11:00	BASE	22.76	20	29.01	31	2.6	100	2.6	0	0	976.6	NA	0.0000	-SN BR	5000	390	0	0	0
2019/04/29 09:12:00	BASE	22.73	22	29.01	31	2.7	100	2.7	0	0	976.7	NA	0.0000	-SN BR	5000	390	0	0	0
2019/04/29 09:13:00	BASE	22.74	21	29.01	31	2.7	100	2.7	0	0	976.6	NA	0.2540	-SN BR	7000	360	0	0	0
2019/04/29 09:14:00	BASE	23.53	20	27.47	36	2.7	100	2.7	0	0	976.6	NA	0.0000	-SN BR	6000	360	0	0	0
2019/04/29 09:15:00	BASE	23.78	21	27.47	36	2.8	100	2.8	0	0	976.6	NA	0.0000	-SN BR	7000	360	0	0	0
2019/04/29 09:16:00	BASE	23.98	21	26.24	20	2.8	100	2.8	0	0	976.6	NA	0.0000	-SN BR	6000	390	0	0	0
2019/04/29 09:17:00	BASE	23.22	19	27.27	18	2.8	100	2.8	0	0	976.7	NA	0.0000	-SN BR	6000	360	0	0	0
2019/04/29 09:18:00	BASE	22.82	18	27.27	18	2.8	100	2.8	0	0	976.7	NA	0.0000	-SN BR	6000	360	0	0	0
2019/04/29 09:19:00	BASE	22.67	18	27.27	18	2.8	100	2.8	0	0	976.7	NA	0.0000	-SN BR	6000	360	0	0	0
2019/04/29 09:20:00	BASE	21.68	19	27.27	18	2.8	100	2.8	0	0	976.8	NA	0.0000	-SN BR	9000	360	0	0	0
2019/04/29 09:21:00	BASE	21.50	20	27.27	18	2.8	100	2.8	0	0	976.8	NA	0.0000	-SN BR	9999	360	0	0	0
2019/04/29 09:22:00	BASE	22.13	18	27.27	18	2.8	100	2.8	0	0	976.8	NA	0.0000	-SN BR	9000	360	0	0	0
2019/04/29 09:23:00	BASE	22.12	17	27.27	18	2.8	100	2.8	0	0	976.8	NA	0.0000	-SN BR	6000	360	0	0	0
2019/04/29 09:24:00	BASE	22.01	16	27.27	18	2.8	100	2.8	0	0	976.8	NA	0.2540	-SN BR	5000	360	0	0	0
2019/04/29 09:25:00	BASE	20.79	17	27.27	18	2.7	100	2.7	0	0	976.9	NA	0.0000	-SN BR	7000	360	0	0	0
2019/04/29 09:26:00	BASE	19.59	18	27.27	18	2.7	100	2.7	0	0	976.9	NA	0.0000	-SN BR	9000	390	0	0	0
2019/04/29 09:27:00	BASE	20.33	17	25.67	21	2.7	100	2.7	0	0	976.8	NA	0.0000	-SN BR	8000	390	0	0	0
2019/04/29 09:28:00	BASE	20.56	18	24.54	21	2.7	100	2.7	0	0	976.9	NA	0.0000	-SN BR	7000	360	0	0	0
2019/04/29 09:29:00	BASE	20.39	16	24.54	21	2.7	100	2.7	0	0	976.8	NA	0.0000	-SN BR	8000	390	0	0	0
2019/04/29 09:30:00	BASE	20.25	12	24.54	21	2.7	100	2.7	0	0	976.8	NA	0.0000	-SN BR	9999	390	0	0	0
2019/04/29 09:31:00	BASE	20.19	11	24.54	21	2.7	100	2.7	0	0	976.9	NA	0.0000	-SN BR	8000	390	0	0	0
2019/04/29 09:32:00	BASE	20.18	13	24.54	21	2.7	100	2.7	0	0	976.9	NA	0.0000	-SN BR	9000	390	0	0	0
2019/04/29 09:33:00	BASE	21.10	12	25.16	6	2.7	100	2.7	0	0	976.8	NA	0.0000	-SN BR	9999	850	0	0	0
2019/04/29 09:34:00	BASE	21.50	11	25.16	6	2.7	100	2.7	0	0	976.9	NA	0.0000	-SN BR	9999	390	0	0	0
2019/04/29 09:35:00	BASE	20.52	15	25.16	6	2.7	100	2.7	0	0	976.9	NA	0.0000	-SN BR	9999	0	0	0	2530
2019/04/29 09:36:00	BASE	20.99	16	25.16	6	2.6	100	2.6	0	0	976.9	NA	0.0000	-SN BR	9999	0	0	0	2620
2019/04/29 09:37:00	BASE	21.87	16	26.03	13	2.6	100	2.6	0	0	976.8	NA	0.0000	-SN BR	7000	0	0	0	2720
2019/04/29 09:38:00	BASE	22.36	17	26.03	13	2.6	100	2.6	0	0	976.8	NA	0.2540	-SN BR	7000	0	0	0	2690
2019/04/29 09:39:00	BASE	22.75	18	26.55	13	2.6	100	2.6	0	0	976.7	NA	0.0000	-SN BR	9999	0	0	0	2820
2019/04/29 09:40:00	BASE	22.26	19	26.55	13	2.6	100	2.6	0	0	976.8	NA	0.0000	-SN BR	9999	820	0	0	0
2019/04/29 09:41:00	BASE	23.20	19	27.11	17	2.6	100	2.6	0	0	976.7	NA	0.0000	-SN	9999	750	0	0	0
2019/04/29 09:42:00	BASE	24.35	18	27.11	17	2.6	100	2.6	0	0	976.7	NA	0.0000	-SN	9999	390	0	0	0
2019/04/29 09:43:00	BASE	23.62	18	27.11	17	2.6	100	2.6	0	0	976.7	NA	0.0000	-SN BR	7000	690	0	0	0
2019/04/29 09:44:00	BASE	22.12	18	27.11	17	2.6	100	2.6	0	0	976.9	NA	0.0000	-SN BR	9000	660	0	0	0
2019/04/29 09:45:00	BASE	20.55	18	27.11	17	2.5	100	2.5	0	0	976.9	NA	0.0000	-SN BR	9999	660	0	0	0
2019/04/29 09:46:00	BASE	21.21	18	27.11	17	2.5	100	2.5	0	0	976.8	NA	0.0000	-SN BR	9999	620	0	0	0
2019/04/29 09:47:00	BASE	21.72	18	27.11	17	2.5	100	2.5	0	0	976.8	NA	0.0000	-SN BR	6000	620	0	0	0
2019/04/29 09:48:00	BASE	22.51	18	27.21	15	2.5	100	2.5	0	0	976.7	NA	0.0000	-SN BR	6000	0	0	0	2360
2019/04/29 09:49:00	BASE	22.70	16	27.21	15	2.5	100	2.5	0	0	976.8	NA	0.0000	-SN BR	8000	620	0	0	0
2019/04/29 09:50:00	BASE	21.95	16	27.21	15	2.5	100	2.5	0	0	976.7	NA	0.0000	-SN BR	8000	590	0	0	0
2019/04/29 09:51:00	BASE	22.07	17	27.21	15	2.5	100	2.5	0	0	976.8	NA	0.0000	-SN BR	8000	590	0	0	0
2019/04/29 09:52:00	BASE	21.71	18	27.21	15	2.5	100	2.5	0	0	976.8	NA	0.0000	-SN BR	9999	590	0	0	0
2019/04/29 09:53:00	BASE	21.58	19	27.21	15	2.5	100	2.5	0	0	976.8	NA	0.2540	-SN BR	9000	620	0	0	0
2019/04/29 09:54:00	BASE	22.54	19	27.21	15	2.5	100	2.5	0	0	976.8	NA	0.0000	-SN BR	7000	560	0	0	0
2019/04/29 09:55:00	BASE	22.41	18	27.21	15	2.4	100	2.4	0	0	976.8	NA	0.0000	-SN BR	7000	430	0	0	0
2019/04/29 09:56:00	BASE	22.44	19	28.50	18	2.4	100	2.4	0	0	976.7	NA	0.0000	-SN BR	6000	520	0	0	0
2019/04/29 09:57:00	BASE	23.96	19	28.50	18	2.4	100	2.4	0	0	976.7	NA	0.0000	-SN BR	4600	390	0	0	0
2019/04/29 09:58:00	BASE	24.05	18	28.50	18	2.3	100	2.3	0	0	976.7	NA	0.0000	-SN BR	4500	390	0	0	0
2019/04/29 09:59:00	BASE	23.80	19	28.50	18	2.3	100	2.3	0	0	976.7	NA	0.0000	-SN BR	4900	430	0	0	0
2019/04/29 10:00:00	BASE	24.60	21	28.50	18	2.3	100	2.3	0	0	976.7	NA	0.0000	-SN BR	4100	0	0	0	2230
2019/04/29 10:01:00	BASE	24.89	20	28.50	18	2.3	100	2.3	0	0	976.7	NA	0.0000	-SN BR	4100	0	0	0	2400
2019/04/29 10:02:00	BASE	25.10	21	28.81	21	2.3	100	2.3	0	0	976.6	NA	0.2540	-SN BR	4500	660	0	0	0
2019/04/29 10:03:00	BASE	25.73	23	28.81	21	2.3	100	2.3	0	0	976.5	NA	0.0000	-SN BR	3900	750	0	0	0
2019/04/29 10:04:00	BASE	25.69	21	28.81	21	2.3	100	2.3	0	0	976.5	NA	0.0000	-SN BR	3800	0	0	0	2460
2019/04/29 10:05:00	BASE	24.30	23	28.81	21	2.3	100	2.3	0	0	976.6	NA	0.0000	-SN BR	5000	0	0	0	2690
2019/04/29 10:06:00	BASE	24.46	24	28.81	21	2.2	100	2.2	0	0	976.5	NA	0.0000	-SN BR	4500	0	0	0	2820
2019/04/29 10:07:00	BASE	25.62	25	29.48	18	2.2	100	2.2	0	0	976.6	NA	0.0000	-SN BR	3700	0	0	0	2820
2019/04/29 10:08:00	BASE	26.04	24	29.48	18	2.2	100	2.2	0	0	976.5	NA	0.0000	-SN BR	4800	330	0	0	0
2019/04/29 10:09:00	BASE	26.21	21	29.48	18	2.2	100	2.2	0	0	976.6	NA	0.0000	-SN BR	6000	850	0	0	0
2019/04/29 10:10:00	BASE	25.71	23	29.48	18	2.2	100	2.2	0	0	976.5	NA	0.0000	-SN BR	4600	660	0	0	0
2019/04/29 10:11:00	BASE	26.32	25	29.48	18	2.2	100	2.2	0	0	976.4	NA	0.2540	-SN BR	4800	0	0	0	3120
2019/04/29 10:12:00	BASE	26.05	24	29.48	18	2.2	100	2.2	0	0	976.5	NA	0.0000	-SN BR	5000	0	0	0	3670
2019/04/29 10:13:00	BASE	25.25	22	29.48	18	2.2	100	2.2	0	0	976.5	NA	0.0000	-SN BR	4900	390	0	0	0
2019/04/29 10:14:00	BASE	24.79	23	29.48	18	2.2	100	2.2	0	0	976.5	NA	0.0000	-SN BR	3900	0	0	0	4070
2019/04/29 10:15:00	BASE	23.46	25	29.48	18	2.2	100	2.2	0	0	976.6	NA	0.0000	-SN BR	5000	560	0	0	0
2019/04/29 10:16:00	BASE	23.03	25	29.48	18	2.2	100	2.2	0	0	976.6	NA	0.0000	-SN BR	8000	560	0	0	0
2019/04/29 10:17:00	BASE	23.41	22	29.12	31	2.2	100	2.2	0	0	976.5	NA	0.0000	-SN BR	9000	590	0	0	0
2019/04/29 10:18:00	BASE	23.46	20	29.12	31	2.3	100	2.3	0	0	976.6	NA	0.0000	-SN BR	7000	460	0	0	0
2019/04/29 10:19:00	BASE	23.46	21	29.12	31	2.3	100	2.3	0	0	976.5	NA	0.0000	-SN BR	4600	460	0	0	0
2019/04/29 10:20:00	BASE	23.37	21	29.12	31	2.3	100	2.3	0	0	976.6	NA	0.0000	-SN BR	6000	430	0	0	0
2019/04/29 10:21:00	BASE	23.64	21	28.24	13	2.3	100	2.3	0	0	976.5	NA	0.0000	-SN BR	9999	0	0	0	3020
2019/04/29 10:22:00	BASE	24.25	20	28.24	13	2.3	100	2.3	0	0	976.5	NA	0.0000	-SN BR	9000	0	0	0	3280
2019/04/29 10:23:00	BASE	23.62	19	28.19	20	2.3	100	2.3	0	0	976.6	NA	0.0000	-SN BR	7000	430	0	0	0
2019/04/29 10:24:00	BASE	23.62	20	28.19	20	2.3	100	2.3	0	0	976.5	NA	0.0000	-SN BR	6000	0	0	0	3670
2019/04/29 10:25:00	BASE	24.34	21	28.19	20	2.3	100	2.3	0	0	976.5	NA	0.0000	-SN BR	9000	0	0	0	3640
2019/04/29 10:26:00	BASE	24.67	22	28.19	20	2.2	100	2.2	0	0	976.4	NA	0.2540	-SN BR	9999	590	0	0	0
2019/04/29 10:27:00	BASE	25.19	23	28.19	20	2.2	100	2.2	0	0	976.5	NA	0.0000	-SN BR	9999	0	0	0	3580
2019/04/29 10:28:00	BASE	25.37	23	27.78	20	2.2	100	2.2	0	0	976.5	NA	0.0000	-SN BR	8000	430	0	0	0
2019/04/29 10:29:00	BASE	25.85	21	28.71	16	2.3	100	2.3	0	0	976.5	NA	0.0000	-SN BR	6000	430	0	0	0
2019/04/29 10:30:00	BASE	26.03	22	29.43	24	2.3	100	2.3	0	0	976.4	NA	0.0000	-SN BR	7000	0	0	0	3120
2019/04/29 10:31:00	BASE	25.80	22	29.43	24	2.3	100	2.3	0	0	976.5	NA	0.0000	-SN BR	6000	430	0	0	0
2019/04/29 10:32:00	BASE	26.26	24	29.99	28	2.3	100	2.3	0	0	976.5	NA	0.0000	-SN BR	5000	430	0	0	0
2019/04/29 10:33:00	BASE	24.78	25	29.99	28	2.3	100	2.3	0	0	976.6	NA	0.0000	-SN BR	4000	460	0	0	0
2019/04/29 10:34:00	BASE	23.43	24	29.99	28	2.3	100	2.3	0	0	976.5	NA	0.0000	-SN BR	4600	0	0	0	3220
2019/04/29 10:35:00	BASE	24.13	24	29.99	28	2.3	100	2.3	0	0	976.5	NA	0.0000	-SN BR	9999	0	0	0	3080
2019/04/29 10:36:00	BASE	24.14	24	29.99	28	2.3	100	2.3	0	0	976.5	NA	0.0000	-SN BR	9999	0	0	0	2820
2019/04/29 10:37:00	BASE	24.03	25	29.99	28	2.3	100	2.3	0	0	976.5	NA	0.0000	-SN BR	8000	0	0	0	2720
2019/04/29 10:38:00	BASE	24.64	26	29.99	28	2.3	100	2.3	0	0	976.5	NA	0.0000	-SN BR	6000	0	0	0	2760
2019/04/29 10:39:00	BASE	24.18	26	29.99	28	2.4	100	2.4	0	0	976.6	NA	0.0000	-SN BR	4600	920	0	0	0
2019/04/29 10:40:00	BASE	23.50	26	29.99	28	2.4	100	2.4	0	0	976.5	NA	0.0000	-SN BR	4200	390	0	0	0
2019/04/29 10:41:00	BASE	23.77	26	29.99	28	2.4	100	2.4	0	0	976.6	NA	0.0000	-SN BR	4800	390	0	0	0
2019/04/29 10:42:00	BASE	23.96	27	28.71	21	2.3	100	2.3	0	0	976.6	NA	0.0000	-SN BR	4500	0	0	0	2660
2019/04/29 10:43:00	BASE	23.92	27	28.71	21	2.3	100	2.3	0	0	976.5	NA	0.0000	-SN BR	5000	0	0	0	2820
2019/04/29 10:44:00	BASE	23.00	26	28.71	21	2.4	100	2.4	0	0	976.6	NA	0.0000	-SN BR	9000	0	0	0	2920
2019/04/29 10:45:00	BASE	22.35	26	28.71	21	2.4	100	2.4	0	0	976.6	NA	0.2540	-SN BR	9000	0	0	0	3120
2019/04/29 10:46:00	BASE	22.58	25	28.71	21	2.4	100	2.4	0	0	976.6	NA	0.0000	-SN BR	9999	0	0	0	3120
2019/04/29 10:47:00	BASE	21.48	26	28.71	21	2.4	100	2.4	0	0	976.6	NA	0.0000	-SN BR	9999	0	0	0	3220
2019/04/29 10:48:00	BASE	20.33	28	28.40	29	2.4	100	2.4	0	0	976.6	NA	0.0000	-SN BR	9999	920	0	0	0
2019/04/29 10:49:00	BASE	20.72	27	28.40	29	2.4	100	2.4	0	0	976.6	NA	0.0000	-SN BR	9999	0	0	0	2820
2019/04/29 10:50:00	BASE	21.04	29	28.40	29	2.4	100	2.4	0	0	976.6	NA	0.0000	-SN BR	9999	0	0	0	2690
2019/04/29 10:51:00	BASE	21.62	29	28.40	29	2.4	100	2.4	0	0	976.6	NA	0.0000	-SN BR	7000	460	0	0	0
2019/04/29 10:52:00	BASE	21.89	27	26.80	21	2.4	100	2.4	0	0	976.6	NA	0.0000	-SN BR	4600	1150	0	0	0
2019/04/29 10:53:00	BASE	21.58	24	26.80	21	2.4	100	2.4	0	0	976.7	NA	0.0000	-SN BR	6000	0	0	0	2720
2019/04/29 10:54:00	BASE	20.78	21	26.80	21	2.4	100	2.4	0	0	976.7	NA	0.0000	-SN BR	9999	0	0	0	2850
2019/04/29 10:55:00	BASE	20.03	23	26.80	21	2.4	100	2.4	0	0	976.7	NA	0.0000	-SN BR	9999	2720	0	0	0
2019/04/29 10:56:00	BASE	19.96	25	26.80	21	2.4	100	2.4	0	0	976.7	NA	0.0000	-SN BR	9999	2660	0	0	0
2019/04/29 10:57:00	BASE	20.00	26	26.80	21	2.4	100	2.4	0	0	976.7	NA	0.0000	-SN BR	9999	950	0	0	0
2019/04/29 10:58:00	BASE	20.72	28	26.80	21	2.4	100	2.4	0	0	976.6	NA	0.0000	-SN BR	7000	0	0	0	2850
2019/04/29 10:59:00	BASE	21.75	28	26.80	21	2.4	100	2.4	0	0	976.6	NA	0.0000	-SN BR	7000	1310	0	0	0
2019/04/29 11:00:00	BASE	22.26	27	28.91	23	2.4	100	2.4	0	0	976.6	NA	0.0000	-SN BR	9999	0	0	0	2760
2019/04/29 11:01:00	BASE	22.06	28	28.91	23	2.4	100	2.4	0	0	976.6	NA	0.0000	-SN BR	6000	0	0	0	2950
2019/04/29 11:02:00	BASE	21.84	30	28.91	23	2.4	100	2.4	0	0	976.6	NA	0.0000	-SN BR	5000	0	0	0	2820
2019/04/29 11:03:00	BASE	21.93	31	28.91	23	2.5	100	2.5	0	0	976.5	NA	0.2540	-SN BR	7000	0	0	0	2530
2019/04/29 11:04:00	BASE	21.57	33	28.91	23	2.5	100	2.5	0	0	976.6	NA	0.0000	-SN BR	6000	2300	0	0	0
2019/04/29 11:05:00	BASE	21.21	32	28.91	23	2.5	100	2.5	0	0	976.6	NA	0.0000	-SN BR	7000	0	0	0	2490
2019/04/29 11:06:00	BASE	21.14	27	28.91	23	2.5	100	2.5	0	0	976.6	NA	0.0000	-SN BR	9999	0	0	0	2620
2019/04/29 11:07:00	BASE	20.77	24	28.91	23	2.5	100	2.5	0	0	976.6	NA	0.0000	-SN BR	9999	0	0	0	2620
2019/04/29 11:08:00	BASE	19.91	26	28.91	23	2.5	100	2.5	0	0	976.7	NA	0.0000	-SN BR	9999	0	0	0	2620
2019/04/29 11:09:00	BASE	19.74	25	28.91	23	2.5	100	2.5	0	0	976.6	NA	0.0000	-SN BR	9999	0	0	0	2950
2019/04/29 11:10:00	BASE	19.95	24	24.85	43	2.5	100	2.5	0	0	976.6	NA	0.0000	-SN BR	9999	0	0	0	2890
2019/04/29 11:11:00	BASE	19.42	24	24.85	43	2.5	100	2.5	0	0	976.6	NA	0.0000	-SN BR	9999	0	0	0	2990
2019/04/29 11:12:00	BASE	20.36	26	24.85	29	2.5	100	2.5	0	0	976.6	NA	0.0000	-SN	9999	0	0	0	2850
2019/04/29 11:13:00	BASE	21.89	27	24.85	29	2.5	100	2.5	0	0	976.6	NA	0.0000	-SN BR	6000	0	0	0	2850
2019/04/29 11:14:00	BASE	21.11	23	24.85	29	2.6	100	2.6	0	0	976.6	NA	0.0000	-SN BR	7000	0	0	0	2820
2019/04/29 11:15:00	BASE	20.03	23	24.85	29	2.5	100	2.5	0	0	976.6	NA	0.0000	-SN	9999	0	0	0	2920
2019/04/29 11:16:00	BASE	19.82	26	24.85	29	2.6	100	2.6	0	0	976.6	NA	0.0000	-SN	9999	0	0	0	2950
2019/04/29 11:17:00	BASE	20.72	26	24.85	29	2.6	100	2.6	0	0	976.6	NA	0.0000	-SN	9999	0	0	0	2950
2019/04/29 11:18:00	BASE	20.97	26	24.85	29	2.6	100	2.6	0	0	976.6	NA	0.0000	-SN	9999	0	0	0	2990
2019/04/29 11:19:00	BASE	20.11	25	24.85	29	2.6	100	2.6	0	0	976.6	NA	0.0000	-SN	9999	0	0	0	2920
2019/04/29 11:20:00	BASE	20.15	22	24.85	29	2.6	100	2.6	0	0	976.7	NA	0.0000	-SN	9999	0	0	0	2790
2019/04/29 11:21:00	BASE	20.58	22	24.85	29	2.6	100	2.6	0	0	976.6	NA	0.0000	-SN	9999	0	0	0	2690
2019/04/29 11:22:00	BASE	21.12	22	24.28	25	2.6	100	2.6	0	0	976.6	NA	0.0000	-SN	9999	0	0	0	2820
2019/04/29 11:23:00	BASE	20.59	23	24.28	25	2.6	100	2.6	0	0	976.7	NA	0.0000	-SN	9000	0	0	0	2820
2019/04/29 11:24:00	BASE	19.91	24	24.28	25	2.6	100	2.6	0	0	976.7	NA	0.0000	-SN	9000	0	0	0	2690
2019/04/29 11:25:00	BASE	20.99	24	24.28	25	2.6	100	2.6	0	0	976.7	NA	0.0000	-SN	9999	0	0	0	2690
2019/04/29 11:26:00	BASE	21.27	26	24.28	25	2.6	100	2.6	0	0	976.7	NA	0.2540	-SN	9999	0	0	0	2660
2019/04/29 11:27:00	BASE	21.11	27	24.28	25	2.6	100	2.6	0	0	976.7	NA	0.0000	-SN	8000	0	0	0	2690
2019/04/29 11:28:00	BASE	21.06	27	24.28	25	2.6	100	2.6	0	0	976.7	NA	0.0000	-SN	7000	0	0	0	2620
2019/04/29 11:29:00	BASE	20.98	25	24.33	32	2.5	100	2.5	0	0	976.7	NA	0.0000	-SN	9000	0	0	0	2620
2019/04/29 11:30:00	BASE	21.36	23	24.33	32	2.5	100	2.5	0	0	976.7	NA	0.0000	-SN BR	9999	0	0	0	2200
2019/04/29 11:31:00	BASE	20.98	23	24.33	32	2.5	100	2.5	0	0	976.8	NA	0.0000	-SN BR	9000	0	0	0	2300
2019/04/29 11:32:00	BASE	21.14	24	24.33	32	2.5	100	2.5	0	0	976.8	NA	0.0000	-SN BR	8000	590	0	0	0
2019/04/29 11:33:00	BASE	22.47	24	28.40	20	2.5	100	2.5	0	0	976.7	NA	0.0000	-SN BR	6000	520	0	0	0
2019/04/29 11:34:00	BASE	22.70	25	28.40	20	2.4	100	2.4	0	0	976.8	NA	0.0000	-SN BR	6000	520	0	0	0
2019/04/29 11:35:00	BASE	21.93	26	28.40	20	2.4	100	2.4	0	0	976.8	NA	0.0000	-SN BR	7000	590	0	0	0
2019/04/29 11:36:00	BASE	21.93	25	28.40	20	2.4	100	2.4	0	0	976.8	NA	0.0000	-SN BR	8000	560	0	0	0
2019/04/29 11:37:00	BASE	21.48	24	28.40	20	2.4	100	2.4	0	0	976.8	NA	0.0000	-SN BR	5000	490	0	0	0
2019/04/29 11:38:00	BASE	21.54	26	28.40	20	2.4	100	2.4	0	0	976.8	NA	0.0000	-SN BR	5000	460	0	0	0
2019/04/29 11:39:00	BASE	21.52	26	28.40	20	2.4	100	2.4	0	0	976.8	NA	0.0000	-SN BR	6000	460	0	0	0
2019/04/29 11:40:00	BASE	21.84	23	28.40	20	2.4	100	2.4	0	0	976.7	NA	0.0000	-SN BR	6000	490	0	0	0
2019/04/29 11:41:00	BASE	21.92	25	28.40	20	2.4	100	2.4	0	0	976.8	NA	0.2540	-SN BR	8000	460	0	0	0
2019/04/29 11:42:00	BASE	21.43	26	28.40	20	2.4	100	2.4	0	0	976.7	NA	0.0000	-SN BR	4900	460	0	0	0
2019/04/29 11:43:00	BASE	22.15	26	27.42	29	2.3	100	2.3	0	0	976.7	NA	0.0000	-SN BR	5000	460	0	0	0
2019/04/29 11:44:00	BASE	22.14	24	27.42	29	2.3	100	2.3	0	0	976.7	NA	0.0000	-SN BR	4700	460	0	0	0
2019/04/29 11:45:00	BASE	22.14	24	25.52	26	2.3	100	2.3	0	0	976.7	NA	0.0000	-SN BR	4500	490	0	0	0
2019/04/29 11:46:00	BASE	22.37	23	25.52	26	2.3	100	2.3	0	0	976.7	NA	0.0000	-SN BR	6000	0	0	0	2030
2019/04/29 11:47:00	BASE	22.02	21	25.52	26	2.3	100	2.3	0	0	976.7	NA	0.0000	-SN BR	8000	490	0	0	0
2019/04/29 11:48:00	BASE	21.97	23	25.52	26	2.3	100	2.3	0	0	976.7	NA	0.0000	-SN BR	9000	460	0	0	0
2019/04/29 11:49:00	BASE	21.52	24	25.52	26	2.3	100	2.3	0	0	976.7	NA	0.0000	-SN BR	9999	460	0	0	0
2019/04/29 11:50:00	BASE	20.77	24	25.52	26	2.3	100	2.3	0	0	976.7	NA	0.0000	-SN BR	7000	430	0	0	0
2019/04/29 11:51:00	BASE	20.01	24	25.52	26	2.3	100	2.3	0	0	976.8	NA	0.0000	-SN BR	6000	460	0	0	0
2019/04/29 11:52:00	BASE	20.16	23	25.52	26	2.2	100	2.2	0	0	976.7	NA	0.0000	-SN BR	8000	460	0	0	0
2019/04/29 11:53:00	BASE	21.53	22	25.52	26	2.2	100	2.2	0	0	976.7	NA	0.0000	-SN BR	5000	460	0	0	0
2019/04/29 11:54:00	BASE	22.43	23	25.52	26	2.2	100	2.2	0	0	976.7	NA	0.0000	-SN BR	4900	980	0	0	0
2019/04/29 11:55:00	BASE	22.54	25	24.90	22	2.3	100	2.3	0	0	976.7	NA	0.2540	-SN BR	4000	430	0	0	0
2019/04/29 11:56:00	BASE	22.42	24	24.85	22	2.3	100	2.3	0	0	976.7	NA	0.0000	-SN BR	4600	430	0	0	0
2019/04/29 11:57:00	BASE	21.95	21	24.85	22	2.3	100	2.3	0	0	976.7	NA	0.0000	-SN BR	5000	460	0	0	0
2019/04/29 11:58:00	BASE	21.62	21	24.85	22	2.3	100	2.3	0	0	976.7	NA	0.0000	-SN BR	4500	430	0	0	0
2019/04/29 11:59:00	BASE	21.83	20	24.85	22	2.3	100	2.3	0	0	976.7	NA	0.0000	-SN BR	4900	430	0	0	0
2019/04/29 12:00:00	BASE	22.02	22	25.10	31	2.2	100	2.2	0	0	976.7	NA	0.0000	-SN BR	6000	490	0	0	0
2019/04/29 12:01:00	BASE	22.42	23	25.72	25	2.2	100	2.2	0	0	976.7	NA	0.0000	-SN BR	7000	460	0	0	0
2019/04/29 12:02:00	BASE	22.51	23	25.72	25	2.2	100	2.2	0	0	976.7	NA	0.0000	-SN BR	6000	0	0	0	2000
2019/04/29 12:03:00	BASE	22.63	23	25.72	25	2.2	100	2.2	0	0	976.7	NA	0.0000	-SN BR	7000	0	0	0	1940
2019/04/29 12:04:00	BASE	22.06	20	25.72	25	2.2	100	2.2	0	0	976.8	NA	0.0000	-SN BR	5000	460	0	0	0
2019/04/29 12:05:00	BASE	21.96	20	25.72	25	2.2	100	2.2	0	0	976.7	NA	0.0000	-SN BR	5000	460	0	0	0
2019/04/29 12:06:00	BASE	22.87	22	27.11	21	2.2	100	2.2	0	0	976.7	NA	0.0000	-SN BR	6000	460	0	0	0
2019/04/29 12:07:00	BASE	22.37	24	27.11	21	2.2	100	2.2	0	0	976.8	NA	0.0000	-SN BR	8000	460	0	0	0
2019/04/29 12:08:00	BASE	21.55	25	27.11	21	2.2	100	2.2	0	0	976.8	NA	0.2540	-SN BR	8000	460	0	0	0
2019/04/29 12:09:00	BASE	21.63	23	27.11	21	2.1	100	2.1	0	0	976.7	NA	0.0000	-SN BR	9000	430	0	0	0
2019/04/29 12:10:01	BASE	21.67	22	27.11	21	2.1	100	2.1	0	0	976.7	NA	0.0000	-SN BR	7000	460	0	0	0
2019/04/29 12:11:00	BASE	21.69	22	27.11	21	2.1	100	2.1	0	0	976.8	NA	0.0000	-SN BR	5000	0	0	0	1870
2019/04/29 12:12:00	BASE	21.54	22	27.11	21	2.1	100	2.1	0	0	976.8	NA	0.0000	-SN BR	7000	0	0	0	1900
2019/04/29 12:13:00	BASE	20.78	22	27.11	21	2.2	100	2.2	0	0	976.8	NA	0.0000	-SN BR	9999	0	0	0	2200
2019/04/29 12:14:00	BASE	20.63	23	27.11	21	2.2	100	2.2	0	0	976.7	NA	0.0000	-SN BR	9999	520	0	0	0
2019/04/29 12:15:00	BASE	20.92	24	27.11	21	2.2	100	2.2	0	0	976.8	NA	0.0000	-SN BR	9999	520	0	0	0
2019/04/29 12:16:00	BASE	21.50	24	26.08	28	2.2	100	2.2	0	0	976.8	NA	0.0000	-SN BR	9999	520	0	0	0
2019/04/29 12:17:00	BASE	22.33	22	24.90	19	2.2	100	2.2	0	0	976.7	NA	0.0000	-SN BR	9000	460	0	0	0
2019/04/29 12:18:00	BASE	21.63	22	24.90	19	2.3	100	2.3	0	0	976.8	NA	0.0000	-SN BR	9999	0	0	0	2100
2019/04/29 12:19:00	BASE	21.20	25	25.00	24	2.3	100	2.3	1	0	976.7	NA	0.0000	-SN BR	9999	0	0	0	2100
2019/04/29 12:20:00	BASE	22.04	26	25.00	24	2.3	100	2.3	1	0	976.7	NA	0.0000	-SN BR	9000	0	0	0	2200
2019/04/29 12:21:00	BASE	22.35	26	25.72	30	2.3	100	2.3	1	0	976.7	NA	0.0000	-SN	9000	0	0	0	2300
2019/04/29 12:22:00	BASE	22.69	25	25.72	30	2.3	100	2.3	1	0	976.7	NA	0.0000	-SN	6000	0	0	0	2300
2019/04/29 12:23:00	BASE	23.12	24	25.72	30	2.3	100	2.3	1	0	976.7	NA	0.0000	-SN BR	7000	520	0	0	0
2019/04/29 12:24:00	BASE	22.51	23	25.72	30	2.3	100	2.3	1	0	976.7	NA	0.0000	-SN	9999	0	0	0	2230
2019/04/29 12:25:00	BASE	21.56	23	25.72	30	2.4	100	2.4	1	0	976.7	NA	0.0000	-SN BR	9999	520	0	0	0
2019/04/29 12:26:00	BASE	21.18	23	25.72	30	2.4	100	2.4	1	0	976.7	NA	0.0000	-SN BR	6000	0	0	0	1940
2019/04/29 12:27:00	BASE	22.79	23	26.70	18	2.4	100	2.4	1	0	976.6	NA	0.0000	-SN BR	4800	0	0	0	1800
2019/04/29 12:28:00	BASE	23.44	22	26.70	18	2.3	100	2.3	1	0	976.7	NA	0.2540	-SN BR	5000	460	0	0	0
2019/04/29 12:29:00	BASE	22.45	21	26.70	18	2.3	100	2.3	2	0	976.7	NA	0.0000	-SN BR	6000	490	0	0	0
2019/04/29 12:30:00	BASE	21.91	18	26.70	18	2.3	100	2.3	2	0	976.8	NA	0.0000	-SN BR	8000	460	0	0	0
2019/04/29 12:31:00	BASE	22.51	18	26.70	18	2.2	100	2.2	2	0	976.7	NA	0.0000	-SN BR	8000	0	0	0	2070
2019/04/29 12:32:00	BASE	23.70	22	26.70	18	2.2	100	2.2	2	0	976.7	NA	0.0000	-SN BR	7000	0	0	0	2070
2019/04/29 12:33:00	BASE	24.23	25	28.50	23	2.2	100	2.2	2	0	976.6	NA	0.0000	-SN BR	7000	0	0	0	2170
2019/04/29 12:34:00	BASE	24.64	20	28.50	23	2.2	100	2.2	2	0	976.6	NA	0.0000	-SN BR	8000	0	0	0	2200
2019/04/29 12:35:00	BASE	24.38	17	28.50	23	2.2	100	2.2	2	0	976.7	NA	0.0000	-SN BR	8000	1050	0	0	0
2019/04/29 12:36:00	BASE	23.83	15	28.50	23	2.2	100	2.2	2	0	976.7	NA	0.0000	-SN BR	9000	0	0	0	2230
2019/04/29 12:37:00	BASE	22.99	14	28.50	23	2.2	100	2.2	3	0	976.9	NA	0.0000	-SN BR	5000	0	0	0	2170
2019/04/29 12:38:00	BASE	21.12	12	28.50	23	2.2	100	2.2	3	0	977.0	NA	0.0000	-SN BR	5000	490	0	0	0
2019/04/29 12:39:00	BASE	20.51	8	28.50	23	2.2	100	2.2	3	0	976.9	NA	0.0000	-SN BR	9000	560	0	0	0
2019/04/29 12:40:00	BASE	20.09	4	28.50	23	2.2	100	2.2	3	0	977.0	NA	0.0000	-SN BR	9999	0	0	0	2260
2019/04/29 12:41:00	BASE	18.50	4	28.50	23	2.2	100	2.2	3	0	977.0	NA	0.0000	-SN BR	9999	0	0	0	2460
2019/04/29 12:42:00	BASE	17.46	6	28.50	23	2.2	100	2.2	3	0	977.1	NA	0.0000	-SN BR	9999	0	0	0	2760
2019/04/29 12:43:00	BASE	16.87	10	26.29	18	2.2	100	2.2	3	0	977.1	NA	0.0000	-SN BR	9999	0	0	0	2720
2019/04/29 12:44:00	BASE	16.18	11	26.29	18	2.2	100	2.2	3	0	977.1	NA	0.0000	-SN BR	9999	0	0	0	2530
2019/04/29 12:45:00	BASE	15.35	10	25.93	14	2.2	100	2.2	4	0	977.0	NA	0.0000	-SN BR	9999	0	0	0	2850
2019/04/29 12:46:00	BASE	15.56	9	24.08	7	2.2	100	2.2	4	0	977.0	NA	0.0000	-SN	9999	0	0	0	2950
2019/04/29 12:47:00	BASE	15.80	9	24.08	7	2.2	100	2.2	4	0	977.0	NA	0.0000	-SN	9999	0	0	0	2950
2019/04/29 12:48:00	BASE	16.85	12	24.08	7	2.2	100	2.2	4	0	976.9	NA	0.0000	-SN	9999	660	0	0	0
2019/04/29 12:49:00	BASE	17.37	16	19.96	5	2.2	100	2.2	4	0	977.0	NA	0.0000	-SN	9999	0	0	0	3540
2019/04/29 12:50:00	BASE	17.09	19	19.34	5	2.2	100	2.2	4	0	977.0	NA	0.0000	-SN	9999	0	0	0	3080
2019/04/29 12:51:00	BASE	18.33	21	21.66	31	2.2	100	2.2	4	0	976.9	NA	0.0000		9999	0	0	0	2620
2019/04/29 12:52:00	BASE	18.74	21	21.66	31	2.3	100	2.3	4	0	976.9	NA	0.0000		9999	0	0	0	2720
2019/04/29 12:53:00	BASE	18.27	19	21.66	31	2.3	100	2.3	4	0	976.9	NA	0.0000	-SN	9999	0	0	0	2690
2019/04/29 12:54:00	BASE	18.12	19	21.66	31	2.3	100	2.3	4	0	976.9	NA	0.0000	-SN	9999	0	0	0	2760
2019/04/29 12:55:00	BASE	18.97	21	21.71	24	2.3	100	2.3	4	0	976.8	NA	0.0000		9999	0	0	0	2820
2019/04/29 12:56:00	BASE	20.34	23	22.38	24	2.3	100	2.3	5	0	976.8	NA	0.0000	-SN	9999	0	0	0	2890
2019/04/29 12:57:00	BASE	20.50	23	22.38	24	2.3	100	2.3	5	0	976.7	NA	0.0000	-SN	9999	0	0	0	2990
2019/04/29 12:58:00	BASE	19.87	21	22.38	24	2.3	100	2.3	5	0	976.8	NA	0.0000	-SN	9999	0	0	0	3080
2019/04/29 12:59:00	BASE	18.83	21	22.38	24	2.3	100	2.3	5	0	976.8	NA	0.0000	-SN	9999	0	0	0	3080
2019/04/29 13:00:00	BASE	19.10	21	22.38	24	2.3	100	2.3	5	0	976.8	NA	0.2540	-SN	9999	0	0	0	3220
2019/04/29 13:01:00	BASE	20.00	22	22.38	24	2.3	100	2.3	5	0	976.7	NA	0.0000	-SN	9999	0	0	0	3380
2019/04/29 13:02:00	BASE	20.52	23	22.94	33	2.3	100	2.3	5	0	976.7	NA	0.0000	-SN	9999	0	0	0	3280
2019/04/29 13:03:00	BASE	21.30	23	23.61	20	2.4	100	2.4	5	0	976.6	NA	0.0000		9999	0	0	0	3120
2019/04/29 13:04:00	BASE	21.77	22	23.61	20	2.4	100	2.4	5	0	976.6	NA	0.0000		9999	0	0	0	2990
2019/04/29 13:05:00	BASE	22.42	21	25.57	27	2.4	100	2.4	6	0	976.6	NA	0.0000		9999	0	0	0	3350
2019/04/29 13:06:00	BASE	23.09	21	25.57	27	2.4	100	2.4	6	0	976.6	NA	0.0000		9999	0	0	0	2950
2019/04/29 13:07:00	BASE	23.25	21	25.57	27	2.4	100	2.4	6	0	976.6	NA	0.0000		9999	0	0	0	3870
2019/04/29 13:08:00	BASE	23.25	21	25.57	27	2.4	100	2.4	6	0	976.6	NA	0.0000		9999	0	0	0	4100
2019/04/29 13:09:00	BASE	22.62	21	25.57	27	2.4	100	2.4	6	0	976.6	NA	0.0000		9999	0	0	0	3740
2019/04/29 13:10:00	BASE	22.16	21	25.57	27	2.4	100	2.4	7	0	976.6	NA	0.0000		9999	0	0	0	3670
2019/04/29 13:11:00	BASE	22.60	22	25.57	27	2.4	100	2.4	7	0	976.6	NA	0.0000		9999	0	0	0	3480
2019/04/29 13:12:00	BASE	22.64	22	25.57	27	2.4	100	2.4	7	0	976.6	NA	0.0000		9999	0	0	0	3510
2019/04/29 13:13:00	BASE	22.71	23	25.57	27	2.4	100	2.4	7	0	976.6	NA	0.0000		9999	0	0	0	3310
2019/04/29 13:14:00	BASE	23.71	23	26.24	22	2.4	100	2.4	7	0	976.5	NA	0.0000		9999	0	0	0	3410
2019/04/29 13:15:00	BASE	24.63	22	26.55	20	2.4	100	2.4	7	0	976.6	NA	0.0000		9999	0	0	0	3220
2019/04/29 13:16:00	BASE	24.60	22	26.55	20	2.4	100	2.4	7	0	976.6	NA	0.0000		9999	0	0	0	3050
2019/04/29 13:17:00	BASE	24.01	21	26.55	20	2.4	100	2.4	7	0	976.6	NA	0.0000	-SN	9999	0	0	0	2950
2019/04/29 13:18:00	BASE	23.36	20	26.55	20	2.4	100	2.4	7	0	976.7	NA	0.0000	-SN	9999	0	0	0	2620
2019/04/29 13:19:00	BASE	22.81	19	26.55	20	2.4	100	2.4	8	0	976.7	NA	0.0000	-SN	9999	0	0	0	2330
2019/04/29 13:20:00	BASE	21.54	19	26.55	20	2.4	100	2.4	9	0	976.8	NA	0.0000	-SN	9999	0	0	0	2330
2019/04/29 13:21:00	BASE	20.99	18	26.55	20	2.4	100	2.4	9	0	976.7	NA	0.0000	-SN	9999	0	0	0	2660
2019/04/29 13:22:00	BASE	22.35	17	26.55	20	2.4	100	2.4	9	0	976.7	NA	0.0000	-SN	9999	0	0	0	2560
2019/04/29 13:23:00	BASE	23.19	19	26.55	20	2.3	100	2.3	9	0	976.7	NA	0.0000	-SN	9999	0	0	0	2990
2019/04/29 13:24:00	BASE	23.01	20	26.55	20	2.3	100	2.3	9	0	976.7	NA	0.0000	-SN	9999	590	0	0	0
2019/04/29 13:25:00	BASE	23.04	20	25.98	25	2.3	100	2.3	9	0	976.7	NA	0.0000	-SN	9999	0	0	0	2850
2019/04/29 13:26:00	BASE	22.51	19	25.31	22	2.3	100	2.3	9	0	976.8	NA	0.0000	-SN	9999	0	0	0	2850
2019/04/29 13:27:00	BASE	22.10	19	25.31	22	2.3	100	2.3	9	0	976.8	NA	0.0000	-SN	9999	0	0	0	2850
2019/04/29 13:28:00	BASE	22.17	20	25.31	22	2.3	100	2.3	8	0	976.8	NA	0.0000	-SN	9999	0	0	0	2950
2019/04/29 13:29:00	BASE	22.36	21	25.31	22	2.2	100	2.2	8	0	976.8	NA	0.0000	-SN	9999	0	0	0	3150
2019/04/29 13:30:00	BASE	22.56	21	25.31	22	2.2	100	2.2	8	0	976.8	NA	0.0000	-SN	9999	0	0	0	3080
2019/04/29 13:31:00	BASE	22.31	21	25.31	22	2.2	100	2.2	8	0	976.8	NA	0.0000	-SN	9999	0	0	0	3220
2019/04/29 13:32:00	BASE	21.96	20	25.31	22	2.2	100	2.2	8	0	976.8	NA	0.0000	-SN	9999	0	0	0	2720
2019/04/29 13:33:00	BASE	21.46	19	25.31	22	2.2	100	2.2	8	0	976.8	NA	0.0000	-SN	9999	0	0	0	2620
2019/04/29 13:34:00	BASE	21.17	19	25.10	20	2.2	100	2.2	8	0	976.8	NA	0.0000	-SN	9999	0	0	0	2690
2019/04/29 13:35:00	BASE	21.22	17	24.74	22	2.2	100	2.2	8	0	976.8	NA	0.0000	-SN	9000	0	0	0	3020
2019/04/29 13:36:00	BASE	22.12	15	24.90	14	2.2	100	2.2	8	0	976.7	NA	0.0000	-SN	8000	0	0	0	3150
2019/04/29 13:37:00	BASE	22.70	16	24.90	14	2.2	100	2.2	8	0	976.7	NA	0.0000	-SN	9999	0	0	0	3180
2019/04/29 13:38:00	BASE	21.34	15	24.90	14	2.2	100	2.2	8	0	976.8	NA	0.0000	-SN	9999	0	0	0	3050
2019/04/29 13:39:00	BASE	19.53	16	24.90	14	2.2	100	2.2	8	0	976.9	NA	0.0000	-SN	9999	0	0	0	2990
2019/04/29 13:40:00	BASE	18.87	16	24.90	14	2.2	100	2.2	8	0	976.9	NA	0.0000	-SN	9999	0	0	0	2690
2019/04/29 13:41:00	BASE	19.19	14	24.90	14	2.2	100	2.2	8	0	976.9	NA	0.0000	-SN	9999	0	0	0	2660
2019/04/29 13:42:00	BASE	18.62	13	24.90	14	2.2	100	2.2	8	0	977.0	NA	0.0000	-SN	9999	0	0	0	2720
2019/04/29 13:43:00	BASE	18.23	15	24.90	14	2.2	100	2.2	8	0	977.0	NA	0.0000	-SN	9999	0	0	0	2590
2019/04/29 13:44:00	BASE	18.94	14	24.90	14	2.2	100	2.2	8	0	976.9	NA	0.0000	-SN	9999	0	0	0	2430
2019/04/29 13:45:00	BASE	18.65	13	24.90	14	2.2	100	2.2	8	0	976.9	NA	0.0000	-SN	9999	490	0	0	0
2019/04/29 13:46:00	BASE	18.67	13	24.13	17	2.2	100	2.2	8	0	976.9	NA	0.0000	-SN	9999	490	0	0	0
2019/04/29 13:47:00	BASE	19.40	12	22.74	14	2.2	100	2.2	8	0	976.9	NA	0.0000	-SN	9999	0	0	0	2170
2019/04/29 13:48:00	BASE	19.55	9	22.74	14	2.2	100	2.2	8	0	976.9	NA	0.0000	-SN	8000	460	0	0	0
2019/04/29 13:49:00	BASE	18.95	5	22.74	14	2.2	100	2.2	8	0	976.9	NA	0.0000	-SN	9000	460	0	0	0
2019/04/29 13:50:00	BASE	18.16	5	22.74	14	2.1	100	2.1	8	0	977.0	NA	0.0000	-SN	9999	590	0	0	0
2019/04/29 13:51:00	BASE	17.68	6	22.74	14	2.1	100	2.1	8	0	977.0	NA	0.0000	-SN	9999	520	0	0	0
2019/04/29 13:52:00	BASE	16.88	7	22.74	14	2.1	100	2.1	8	0	977.0	NA	0.0000	-SN	9999	560	0	0	0
2019/04/29 13:53:00	BASE	16.20	7	22.74	14	2.1	100	2.1	8	0	977.0	NA	0.0000	-SN	9999	0	0	0	2400
2019/04/29 13:54:00	BASE	16.35	7	22.74	14	2.1	100	2.1	8	0	977.0	NA	0.0000	-SN	9999	0	0	0	2430
2019/04/29 13:55:00	BASE	17.46	8	22.74	14	2.1	100	2.1	8	0	977.0	NA	0.0000	-SN	9999	430	0	0	0
2019/04/29 13:56:00	BASE	18.25	10	21.50	14	2.1	100	2.1	8	0	977.0	NA	0.0000	-SN	9999	390	0	0	0
2019/04/29 13:57:00	BASE	17.88	10	21.25	5	2.1	100	2.1	9	0	977.0	NA	0.0000	-SN	9999	390	0	0	0
2019/04/29 13:58:00	BASE	17.52	9	20.01	7	2.1	100	2.1	9	0	977.0	NA	0.0000	-SN	9999	430	0	0	0
2019/04/29 13:59:00	BASE	18.12	9	20.37	9	2.1	100	2.1	9	0	976.9	NA	0.0000	-SN	9999	0	0	0	2690
2019/04/29 14:00:00	BASE	18.65	10	20.47	17	2.1	100	2.1	9	0	977.0	NA	0.0000	-SN	9999	0	0	0	2590
2019/04/29 14:01:00	BASE	17.76	6	20.47	17	2.1	100	2.1	10	0	977.0	NA	0.0000	-SN	9999	0	0	0	2530
2019/04/29 14:02:00	BASE	16.19	359	20.47	17	2.1	100	2.1	10	0	977.1	NA	0.0000	-SN	9999	0	0	0	2790
2019/04/29 14:03:00	BASE	15.17	354	20.47	17	2.1	100	2.1	10	0	977.3	NA	0.0000	-SN	9999	2460	0	0	0
2019/04/29 14:04:00	BASE	14.35	343	20.47	17	2.0	100	2.0	10	0	977.4	NA	0.0000	-SN	9999	690	0	0	0
2019/04/29 14:05:00	BASE	11.50	317	20.47	17	1.9	100	1.9	9	0	977.5	NA	0.0000	-SN	9999	920	0	0	0
2019/04/29 14:06:00	BASE	7.39	294	20.47	17	1.6	100	1.6	8	0	977.6	NA	0.0000	-SN	9999	330	0	0	0
2019/04/29 14:07:00	BASE	6.52	275	20.47	17	1.3	100	1.3	8	0	977.6	NA	0.0000	-SN	4300	300	0	0	0
2019/04/29 14:08:00	BASE	9.04	260	20.47	17	1.0	100	1.0	8	0	977.5	NA	0.0000	-SN BR	2300	260	0	0	0
2019/04/29 14:09:00	BASE	10.81	253	20.47	17	0.6	100	0.6	8	0	977.5	NA	0.0000	-SN BR	1900	0	0	0	1310
2019/04/29 14:10:00	BASE	8.75	257	18.98	6	0.4	100	0.4	8	0	977.5	NA	0.0000	-SN BR	1500	0	0	0	1410
2019/04/29 14:11:00	BASE	7.85	260	17.03	1	0.3	100	0.3	8	0	977.5	NA	0.0000	-SN BR	1400	0	0	0	1410
2019/04/29 14:12:00	BASE	8.93	251	16.77	351	0.2	100	0.2	9	0	977.5	NA	0.0000	-SN BR	1200	0	0	0	1440
2019/04/29 14:13:00	BASE	8.38	251	16.77	351	0.1	100	0.1	9	0	977.5	NA	0.0000	-SN BR	1200	0	0	0	1380
2019/04/29 14:14:00	BASE	8.79	240	15.59	243	0.1	100	0.1	10	0	977.5	NA	0.0000	-SN BR	1200	0	0	0	1540
2019/04/29 14:15:00	BASE	10.03	233	15.59	243	0.0	100	0.0	10	0	977.6	NA	0.0000	-SN BR	1100	0	0	0	1150
2019/04/29 14:16:00	BASE	10.21	234	15.59	243	-0.1	100	-0.1	10	0	977.6	NA	0.0000	-SN BR	1100	0	0	0	1120
2019/04/29 14:17:00	BASE	11.10	229	15.59	243	-0.2	100	-0.2	10	0	977.6	NA	0.0000	-SN BR	0900	0	0	0	1150
2019/04/29 14:18:00	BASE	13.26	222	16.72	219	-0.3	100	-0.3	10	0	977.6	NA	0.0000	-SN BR	0900	0	0	0	950
2019/04/29 14:19:00	BASE	12.62	222	16.72	219	-0.4	100	-0.4	10	0	977.6	NA	0.0000	-SN BR	1200	0	0	0	1080
2019/04/29 14:20:00	BASE	13.02	226	17.29	223	-0.5	100	-0.5	10	0	977.5	NA	0.0000	-SN BR	1300	0	0	0	1250
2019/04/29 14:21:00	BASE	15.69	228	17.54	225	-0.6	100	-0.6	11	0	977.5	NA	0.2540	-SN BR	1400	0	0	0	1280
2019/04/29 14:22:00	BASE	17.13	227	19.96	224	-0.7	100	-0.7	11	0	977.4	NA	0.0000	-SN BR	1500	0	0	0	1250
2019/04/29 14:23:00	BASE	18.69	225	20.68	227	-0.7	100	-0.7	12	0	977.4	NA	0.0000	-SN BR	1700	0	0	0	1350
2019/04/29 14:24:00	BASE	19.80	220	22.17	220	-0.7	100	-0.7	12	0	977.4	NA	0.0000	-SN BR	1900	0	0	0	1440
2019/04/29 14:25:00	BASE	19.24	219	22.17	220	-0.8	100	-0.8	13	0	977.6	NA	0.0000	-SN BR	1700	0	0	0	1350
2019/04/29 14:26:00	BASE	18.89	221	22.17	220	-0.9	100	-0.9	14	0	977.5	NA	0.0000	-SN BR	1500	0	0	0	1380
2019/04/29 14:27:00	BASE	19.53	221	22.17	220	-0.9	100	-0.9	14	0	977.5	NA	0.0000	-SN BR	1700	0	0	0	1350
2019/04/29 14:28:00	BASE	20.02	220	22.48	220	-1.0	100	-1.0	14	0	977.5	NA	0.0000	-SN BR	1800	0	0	0	1350
2019/04/29 14:29:00	BASE	20.90	220	22.48	221	-1.1	100	-1.1	14	0	977.5	NA	0.0000	-SN BR	1700	0	0	0	1380
2019/04/29 14:30:00	BASE	20.36	221	22.48	221	-1.1	100	-1.1	14	0	977.6	NA	0.0000	-SN BR	1800	0	0	0	1180
2019/04/29 14:31:00	BASE	18.50	220	22.48	221	-1.2	100	-1.2	14	0	977.6	NA	0.0000	-SN BR	1800	0	0	0	1150
2019/04/29 14:32:00	BASE	18.43	219	22.64	223	-1.2	100	-1.2	14	0	977.5	NA	0.0000	-SN BR	1500	0	0	0	1180
2019/04/29 14:33:00	BASE	19.66	220	22.64	223	-1.3	100	-1.3	15	0	977.5	NA	0.0000	-SN BR	1500	0	0	0	1180
2019/04/29 14:34:00	BASE	20.21	218	22.89	214	-1.3	100	-1.3	15	0	977.5	NA	0.0000	-SN BR	1500	0	0	0	1120
2019/04/29 14:35:00	BASE	21.48	218	24.44	215	-1.4	100	-1.4	16	0	977.5	NA	0.0000	-SN BR	1400	0	0	0	1080
2019/04/29 14:36:00	BASE	21.82	217	24.44	215	-1.4	100	-1.4	17	0	977.6	NA	0.0000	-SN BR	1400	0	0	0	1020
2019/04/29 14:37:00	BASE	20.90	217	24.44	215	-1.5	100	-1.5	17	0	977.6	NA	0.0000	-SN BR	1600	0	0	0	1120
2019/04/29 14:38:00	BASE	20.13	218	24.44	215	-1.5	100	-1.5	17	0	977.7	NA	0.0000	-SN BR	1900	0	0	0	1050
2019/04/29 14:39:00	BASE	18.71	221	24.44	215	-1.6	100	-1.6	17	0	977.8	NA	0.0000	-SN BR	1700	0	0	0	1180
2019/04/29 14:40:00	BASE	19.35	224	24.44	215	-1.6	100	-1.6	16	0	977.8	NA	0.0000	-SN BR	1500	0	0	0	1120
2019/04/29 14:41:00	BASE	19.52	225	24.44	215	-1.6	100	-1.6	15	0	977.8	NA	0.0000	-SN BR	1800	0	0	0	1150
2019/04/29 14:42:00	BASE	19.50	225	24.44	215	-1.6	100	-1.6	15	0	977.7	NA	0.0000	-SN BR	2000	0	0	0	920
2019/04/29 14:43:00	BASE	19.61	224	24.44	215	-1.6	100	-1.6	15	0	977.8	NA	0.0000	-SN BR	2000	0	0	0	820
2019/04/29 14:44:00	BASE	18.86	222	24.44	215	-1.6	100	-1.6	14	0	977.7	NA	0.0000	-SN BR	2100	0	0	0	1210
2019/04/29 14:45:00	BASE	20.33	222	23.30	218	-1.6	100	-1.6	14	0	977.7	NA	0.0000	-SN BR	2000	0	0	0	1250
2019/04/29 14:46:00	BASE	21.73	221	24.74	218	-1.6	100	-1.6	14	0	977.7	NA	0.0000	-SN BR	1900	0	0	0	1280
2019/04/29 14:47:00	BASE	21.67	222	24.74	218	-1.6	100	-1.6	13	0	977.7	NA	0.0000	-SN BR	2100	0	0	0	1310
2019/04/29 14:48:00	BASE	21.46	221	24.85	214	-1.6	100	-1.6	13	0	977.7	NA	0.0000	-SN BR	2200	0	0	0	1310
2019/04/29 14:49:00	BASE	21.61	220	25.83	218	-1.6	100	-1.6	13	0	977.7	NA	0.0000	-SN BR	2000	0	0	0	1350
2019/04/29 14:50:00	BASE	22.18	221	25.83	218	-1.6	100	-1.6	13	0	977.7	NA	0.0000	-SN BR	1100	0	0	0	1380
2019/04/29 14:51:00	BASE	23.29	221	25.83	218	-1.7	100	-1.7	13	0	977.8	NA	0.0000	-SN BR	0800	0	0	0	1380
2019/04/29 14:52:00	BASE	23.09	222	25.83	218	-1.7	100	-1.7	13	0	977.8	NA	0.0000	-SN BR	0900	0	0	0	1410
2019/04/29 14:53:00	BASE	21.32	222	25.83	218	-1.7	100	-1.7	13	0	977.9	NA	0.0000	-SN BR	1300	0	0	0	1180
2019/04/29 14:54:00	BASE	21.75	223	25.83	218	-1.7	100	-1.7	14	0	977.8	NA	0.0000	-SN BR	1300	0	0	0	820
2019/04/29 14:55:00	BASE	22.21	222	25.83	218	-1.8	100	-1.8	14	0	977.9	NA	0.0000	-SN BR	0900	0	0	0	1350
2019/04/29 14:56:00	BASE	19.71	222	25.83	218	-1.8	100	-1.8	14	0	978.0	NA	0.0000	-SN BR	0800	0	0	0	1120
2019/04/29 14:57:00	BASE	18.75	223	25.83	218	-1.8	100	-1.8	15	0	978.0	NA	0.0000	-SN BR	1100	0	0	0	820
2019/04/29 14:58:00	BASE	20.86	223	25.83	218	-1.8	100	-1.8	15	0	977.9	NA	0.0000	-SN BR	1900	0	0	0	1380
2019/04/29 14:59:00	BASE	22.83	223	25.62	224	-1.8	100	-1.8	15	0	977.8	NA	0.0000	-SN BR	1800	0	0	0	1350
2019/04/29 15:00:00	BASE	24.48	220	27.78	213	-1.8	100	-1.8	15	0	977.8	NA	0.0000	-SN BR	1700	0	0	0	1310
2019/04/29 15:01:00	BASE	24.75	218	27.78	213	-1.9	100	-1.9	15	0	977.7	NA	0.0000	-SN BR	1400	0	0	0	1210
2019/04/29 15:02:00	BASE	23.13	217	27.78	213	-1.9	100	-1.9	15	0	977.8	NA	0.0000	-SN BR	0650	0	0	0	1150
2019/04/29 15:03:00	BASE	22.90	216	27.78	213	-1.9	100	-1.9	16	0	977.8	NA	0.0000	SN BR	0650	0	0	0	1180
2019/04/29 15:04:00	BASE	23.35	217	27.78	213	-1.9	100	-1.9	16	0	977.8	NA	0.0000	SN BR	1000	0	0	0	1180
2019/04/29 15:05:00	BASE	23.51	217	27.78	213	-1.9	100	-1.9	17	0	977.8	NA	0.0000	SN BR	1000	0	0	0	1180
2019/04/29 15:06:00	BASE	24.98	217	27.78	213	-1.9	100	-1.9	17	0	977.8	NA	0.0000	-SN BR	1000	0	0	0	1080
2019/04/29 15:07:00	BASE	25.96	217	27.78	213	-1.9	100	-1.9	18	0	977.8	NA	0.0000	SN BR	0900	0	0	0	1180
2019/04/29 15:08:00	BASE	24.69	219	27.78	213	-1.9	100	-1.9	19	0	978.0	NA	0.0000	SN BR	1000	0	0	0	980
2019/04/29 15:09:00	BASE	22.00	223	27.78	213	-2.0	100	-2.0	18	0	978.1	NA	0.0000	SN BR	0800	0	0	0	950
2019/04/29 15:10:00	BASE	20.07	226	27.47	219	-2.0	100	-2.0	18	0	978.2	NA	0.0000	SN BR	0800	0	0	0	790
2019/04/29 15:11:00	BASE	20.14	226	27.47	219	-2.0	100	-2.0	19	0	978.2	NA	0.0000	SN BR	1300	0	0	0	720
2019/04/29 15:12:00	BASE	20.93	223	27.47	219	-2.0	100	-2.0	20	0	978.1	NA	0.0000	SN BR	1200	0	0	0	690
2019/04/29 15:13:00	BASE	21.15	219	27.47	219	-1.9	100	-1.9	19	0	978.1	NA	0.0000	SN BR	1300	0	0	0	820
2019/04/29 15:14:00	BASE	20.87	221	27.47	219	-1.9	100	-1.9	19	0	978.1	NA	0.0000	SN BR	1100	0	0	0	790
2019/04/29 15:15:00	BASE	21.61	222	27.47	219	-1.9	100	-1.9	19	0	978.0	NA	0.0000	SN BR	0700	0	0	0	790
2019/04/29 15:16:00	BASE	23.22	218	27.01	218	-1.9	100	-1.9	18	0	978.1	NA	0.0000	SN BR	0450	0	0	0	690
2019/04/29 15:17:00	BASE	23.03	215	25.77	221	-1.9	100	-1.9	19	0	978.1	NA	0.0000	SN FZFG	0500	0	0	0	720
2019/04/29 15:18:00	BASE	22.85	213	25.57	217	-1.9	100	-1.9	18	0	978.1	NA	0.0000	SN FZFG	0350	0	0	0	950
2019/04/29 15:19:00	BASE	23.76	214	25.57	217	-1.9	100	-1.9	18	0	978.1	NA	0.0000	+SN FZFG	0250	0	0	0	890
2019/04/29 15:20:00	BASE	24.04	214	25.98	210	-2.0	100	-2.0	18	0	978.1	NA	0.0000	-SN FZFG	0200	0	0	0	790
2019/04/29 15:21:00	BASE	24.53	214	27.57	217	-2.0	100	-2.0	19	0	978.1	NA	0.0000	-SN FZFG	0200	0	0	0	750
2019/04/29 15:22:00	BASE	24.31	212	27.57	217	-2.1	100	-2.1	20	0	978.2	NA	0.0000	-SN FZFG	0200	0	0	0	750
2019/04/29 15:23:00	BASE	22.29	211	27.57	217	-2.1	100	-2.1	21	0	978.2	NA	0.0000	-SN FZFG	0300	0	0	0	750
2019/04/29 15:24:00	BASE	20.96	210	27.57	217	-2.1	100	-2.1	22	0	978.1	NA	0.0000	-SN FZFG	0600	0	0	0	690
2019/04/29 15:25:00	BASE	21.14	209	27.57	217	-2.1	100	-2.1	23	0	978.2	NA	0.0000	+SN FZFG	0250	0	0	0	690
2019/04/29 15:26:00	BASE	20.23	208	27.57	217	-2.0	100	-2.0	22	0	978.4	NA	0.0000	+SN FZFG	0300	0	0	0	660
2019/04/29 15:27:00	BASE	17.91	212	27.57	217	-2.0	100	-2.0	21	0	978.6	NA	0.0000	+SN FZFG	0550	0	0	0	620
2019/04/29 15:28:00	BASE	18.01	216	27.57	217	-2.0	100	-2.0	21	0	978.5	NA	0.0000	+SN FZFG	0650	0	0	0	660
2019/04/29 15:29:00	BASE	21.66	217	27.57	217	-2.0	100	-2.0	21	0	978.4	NA	0.0000	+SN FZFG	0900	0	0	0	690
2019/04/29 15:30:00	BASE	23.25	217	27.57	217	-2.0	100	-2.0	21	0	978.5	NA	0.0000	+SN FZFG	0450	0	0	0	620
2019/04/29 15:31:00	BASE	22.96	215	26.34	213	-2.0	100	-2.0	21	0	978.6	NA	0.0000	+SN FZFG	0300	0	0	0	690
2019/04/29 15:32:00	BASE	22.82	215	25.77	216	-2.1	100	-2.1	20	0	978.7	NA	0.0000	+SN FZFG	0300	0	0	0	790
2019/04/29 15:33:00	BASE	21.54	214	25.77	216	-2.1	100	-2.1	20	0	978.7	NA	0.0000	+SN FZFG	0400	0	0	0	890
2019/04/29 15:34:00	BASE	19.77	213	25.77	216	-2.1	100	-2.1	20	0	978.8	NA	0.0000	SN FZFG	1100	0	0	0	1020
2019/04/29 15:35:00	BASE	18.45	213	25.77	216	-2.1	100	-2.1	19	0	978.8	NA	0.0000	SN FZFG	0600	0	0	0	920
2019/04/29 15:36:00	BASE	17.43	217	25.77	216	-2.1	100	-2.1	18	0	978.9	NA	0.0000	SN FZFG	0650	0	0	0	750
2019/04/29 15:37:00	BASE	17.92	219	25.77	216	-2.1	100	-2.1	18	0	978.9	NA	0.0000	SN FZFG	1400	0	0	0	890
2019/04/29 15:38:00	BASE	18.83	220	25.77	216	-2.1	100	-2.1	19	0	978.9	NA	0.0000	SN FZFG	1600	0	0	0	950
2019/04/29 15:39:00	BASE	18.85	221	24.90	213	-2.1	100	-2.1	19	0	979.0	NA	0.0000	SN FZFG	1600	0	0	0	980
2019/04/29 15:40:00	BASE	18.72	221	24.18	217	-2.1	100	-2.1	19	0	979.0	NA	0.0000	SN FZFG	1900	0	0	0	980
2019/04/29 15:41:00	BASE	18.55	223	23.97	216	-2.1	100	-2.1	19	0	979.0	NA	0.0000	SN FZFG	1600	0	0	0	950
2019/04/29 15:42:00	BASE	19.14	224	22.74	213	-2.2	100	-2.2	18	0	979.0	NA	0.0000	SN BR	1500	0	0	0	890
2019/04/29 15:43:00	BASE	19.28	223	21.81	219	-2.1	100	-2.1	17	0	979.0	NA	0.0000	-SN BR	1700	0	0	0	920
2019/04/29 15:44:00	BASE	18.50	222	21.81	219	-2.1	100	-2.1	17	0	979.1	NA	0.0000	-SN BR	1600	0	0	0	850
2019/04/29 15:45:00	BASE	17.28	225	21.81	219	-2.1	100	-2.1	16	0	979.1	NA	0.0000	-SN BR	1500	0	0	0	720
2019/04/29 15:46:00	BASE	16.00	227	21.81	219	-2.1	100	-2.1	14	0	979.2	NA	0.0000	-SN BR	1500	0	0	0	690
2019/04/29 15:47:00	BASE	15.95	225	21.61	228	-2.1	100	-2.1	14	0	979.2	NA	0.0000	-SN BR	1300	0	0	0	790
2019/04/29 15:48:00	BASE	16.79	224	21.61	228	-2.1	100	-2.1	14	0	979.2	NA	0.0000	-SN BR	1200	0	0	0	820
2019/04/29 15:49:00	BASE	16.11	225	21.45	221	-2.1	100	-2.1	14	0	979.2	NA	0.0000	-SN BR	1200	0	0	0	720
2019/04/29 15:50:00	BASE	14.52	223	21.45	221	-2.1	100	-2.1	13	0	979.3	NA	0.0000	-SN BR	1300	0	0	0	720
2019/04/29 15:51:00	BASE	14.98	218	21.45	221	-2.1	100	-2.1	13	0	979.3	NA	0.0000	-SN BR	1100	0	0	0	750
2019/04/29 15:52:00	BASE	16.50	215	21.45	221	-2.1	100	-2.1	13	0	979.2	NA	0.0000	-SN BR	0900	0	0	0	850
2019/04/29 15:53:00	BASE	15.89	213	19.96	217	-2.1	100	-2.1	13	0	979.3	NA	0.0000	-SN BR	0800	0	0	0	850
2019/04/29 15:54:00	BASE	14.92	213	19.65	215	-2.1	100	-2.1	13	0	979.3	NA	0.0000	-SN BR	0900	0	0	0	790
2019/04/29 15:55:00	BASE	15.65	214	19.65	215	-2.1	100	-2.1	15	0	979.3	NA	0.0000	-SN BR	1200	0	0	0	820
2019/04/29 15:56:00	BASE	16.11	217	19.65	215	-2.1	100	-2.1	15	0	979.3	NA	0.0000	-SN BR	1300	0	0	0	1120
2019/04/29 15:57:00	BASE	15.23	223	19.65	215	-2.1	100	-2.1	15	0	979.3	NA	0.0000	-SN BR	1500	0	0	0	1350
2019/04/29 15:58:00	BASE	14.49	226	19.65	215	-2.1	100	-2.1	16	0	979.3	NA	0.0000	-SN BR	1900	0	0	0	1150
2019/04/29 15:59:00	BASE	14.34	225	19.65	215	-2.1	100	-2.1	15	0	979.3	NA	0.0000	-SN BR	1800	0	0	0	1280
2019/04/29 16:00:00	BASE	13.76	224	19.65	215	-2.1	100	-2.1	15	0	979.4	NA	0.2540	-SN BR	1600	0	0	0	980
2019/04/29 16:01:00	BASE	14.03	224	19.65	215	-2.1	100	-2.1	15	0	979.3	NA	0.0000	-SN BR	1300	0	0	0	1310
2019/04/29 16:02:00	BASE	15.04	225	18.42	215	-2.1	100	-2.1	14	0	979.4	NA	0.0000	-SN BR	1300	0	0	0	1020
2019/04/29 16:03:00	BASE	14.94	227	18.42	215	-2.1	100	-2.1	14	0	979.5	NA	0.0000	-SN BR	1400	0	0	0	1020
2019/04/29 16:04:00	BASE	13.74	227	18.42	215	-2.1	100	-2.1	14	0	979.5	NA	0.0000	-SN BR	1200	0	0	0	920
2019/04/29 16:05:00	BASE	13.64	227	16.77	223	-2.1	100	-2.1	13	0	979.5	NA	0.0000	-SN BR	1100	0	0	0	850
2019/04/29 16:06:00	BASE	14.54	226	16.51	221	-2.1	100	-2.1	13	0	979.5	NA	0.0000	-SN BR	1100	0	0	0	850
2019/04/29 16:07:00	BASE	14.23	225	16.51	221	-2.1	100	-2.1	12	0	979.5	NA	0.0000	-SN BR	1200	0	0	0	750
2019/04/29 16:08:00	BASE	13.72	226	16.51	221	-2.0	100	-2.0	12	0	979.5	NA	0.0000	-SN BR	1000	0	0	0	660
2019/04/29 16:09:00	BASE	14.56	225	16.98	221	-2.0	100	-2.0	13	0	979.5	NA	0.0000	-SN BR	0900	0	0	0	660
2019/04/29 16:10:00	BASE	16.42	222	18.57	219	-2.1	100	-2.1	12	0	979.5	NA	0.0000	-SN BR	1000	0	0	0	620
2019/04/29 16:11:00	BASE	16.78	224	18.57	219	-2.1	100	-2.1	13	0	979.5	NA	0.0000	-SN BR	1100	0	0	0	660
2019/04/29 16:12:00	BASE	15.38	227	18.57	219	-2.2	100	-2.2	14	0	979.6	NA	0.0000	-SN BR	1000	0	0	0	690
2019/04/29 16:13:00	BASE	13.15	229	18.57	219	-2.2	100	-2.2	15	0	979.6	NA	0.0000	+SN BR	0800	0	0	0	750
2019/04/29 16:14:00	BASE	12.30	231	18.57	219	-2.2	100	-2.2	16	0	979.6	NA	0.0000	+SN BR	0900	0	0	0	790
2019/04/29 16:15:00	BASE	13.29	235	18.57	219	-2.2	100	-2.2	17	0	979.6	NA	0.0000	+SN BR	1000	0	0	0	720
2019/04/29 16:16:00	BASE	13.25	238	18.57	219	-2.2	100	-2.2	18	0	979.7	NA	0.0000	+SN BR	0800	0	0	0	720
2019/04/29 16:17:00	BASE	12.58	238	18.57	219	-2.2	100	-2.2	19	0	979.7	NA	0.0000	+SN BR	0650	0	0	0	750
2019/04/29 16:18:00	BASE	12.04	236	18.57	219	-2.3	100	-2.3	19	0	979.8	NA	0.0000	SN FZFG	0800	0	0	0	750
2019/04/29 16:19:00	BASE	11.91	235	18.57	219	-2.3	100	-2.3	20	0	979.7	NA	0.0000	+SN BR	0900	0	0	0	820
2019/04/29 16:20:00	BASE	11.02	236	17.29	228	-2.3	100	-2.3	19	0	979.8	NA	0.0000	SN FZFG	0800	0	0	0	750
2019/04/29 16:21:00	BASE	10.26	237	17.13	232	-2.3	100	-2.3	18	0	979.8	NA	0.0000	SN FZFG	1000	0	0	0	790
2019/04/29 16:22:00	BASE	11.29	236	17.13	232	-2.2	100	-2.2	19	0	979.8	NA	0.0000	SN FZFG	1100	0	0	0	820
2019/04/29 16:23:00	BASE	13.44	231	17.13	232	-2.2	100	-2.2	21	0	979.8	NA	0.0000	SN BR	1300	0	0	0	1080
2019/04/29 16:24:00	BASE	13.98	228	16.05	236	-2.3	100	-2.3	21	0	979.8	NA	0.0000	SN BR	1600	0	0	0	1180
2019/04/29 16:25:00	BASE	12.03	231	16.05	236	-2.3	100	-2.3	20	0	979.8	NA	0.0000	SN BR	1500	0	0	0	1510
2019/04/29 16:26:00	BASE	9.58	236	16.05	236	-2.3	100	-2.3	19	0	979.9	NA	0.0000	SN BR	1700	0	0	0	850
2019/04/29 16:27:00	BASE	8.74	239	16.05	236	-2.2	100	-2.2	18	0	979.9	NA	0.0000	-SN BR	2000	0	0	0	1210
2019/04/29 16:28:00	BASE	9.98	238	16.05	236	-2.2	100	-2.2	18	0	979.9	NA	0.0000	-SN BR	2200	0	0	0	820
2019/04/29 16:29:00	BASE	11.79	234	16.05	236	-2.2	100	-2.2	18	0	979.9	NA	0.0000	-SN BR	2200	0	0	0	1080
2019/04/29 16:30:00	BASE	13.01	234	16.05	236	-2.2	100	-2.2	19	0	979.9	NA	0.0000	-SN BR	2100	0	0	0	1280
2019/04/29 16:31:00	BASE	12.91	239	16.05	236	-2.3	100	-2.3	18	0	979.9	NA	0.0000	-SN BR	2200	0	0	0	1280
2019/04/29 16:32:00	BASE	13.23	239	16.10	229	-2.3	100	-2.3	18	0	979.9	NA	0.0000	-SN BR	2200	0	0	0	1180
2019/04/29 16:33:00	BASE	12.64	239	16.10	229	-2.4	100	-2.4	17	0	979.9	NA	0.0000	-SN BR	2100	0	0	0	980
2019/04/29 16:34:00	BASE	10.24	236	16.10	229	-2.4	100	-2.4	17	0	979.9	NA	0.0000	-SN BR	2000	0	0	0	980
2019/04/29 16:35:00	BASE	11.45	228	16.10	229	-2.4	100	-2.4	17	0	979.9	NA	0.0000	-SN BR	1800	0	0	0	1080
2019/04/29 16:36:00	BASE	13.53	224	16.10	229	-2.4	100	-2.4	17	0	979.9	NA	0.0000	-SN BR	1700	0	0	0	920
2019/04/29 16:37:00	BASE	11.67	227	16.10	229	-2.3	100	-2.3	17	0	979.9	NA	0.0000	-SN BR	1400	0	0	0	920
2019/04/29 16:38:00	BASE	10.67	231	16.10	229	-2.3	100	-2.3	15	0	979.9	NA	0.0000	-SN BR	1200	0	0	0	920
2019/04/29 16:39:00	BASE	11.17	235	16.10	229	-2.3	100	-2.3	14	0	979.9	NA	0.0000	-SN BR	1200	0	0	0	750
2019/04/29 16:40:00	BASE	11.14	239	16.10	229	-2.3	100	-2.3	14	0	979.9	NA	0.0000	-SN BR	1000	0	0	0	750
2019/04/29 16:41:00	BASE	11.61	236	16.10	229	-2.2	100	-2.2	15	0	979.9	NA	0.0000	-SN BR	1000	0	0	0	850
2019/04/29 16:42:00	BASE	11.57	230	15.90	225	-2.2	100	-2.2	16	0	979.9	NA	0.0000	-SN BR	1200	0	0	0	980
2019/04/29 16:43:00	BASE	11.80	230	15.90	225	-2.2	100	-2.2	17	0	979.9	NA	0.0000	-SN BR	1200	0	0	0	1050
2019/04/29 16:44:00	BASE	13.55	229	16.57	220	-2.3	100	-2.3	17	0	979.9	NA	0.0000	-SN BR	1600	0	0	0	1210
2019/04/29 16:45:00	BASE	14.24	230	16.57	220	-2.3	100	-2.3	17	0	979.9	NA	0.0000	-SN BR	1900	0	0	0	1150
2019/04/29 16:46:00	BASE	13.63	231	16.57	220	-2.3	100	-2.3	18	0	979.9	NA	0.0000	-SN BR	1700	0	0	0	1210
2019/04/29 16:47:00	BASE	13.44	229	16.57	220	-2.4	100	-2.4	17	0	979.9	NA	0.0000	-SN BR	1700	0	0	0	1410
2019/04/29 16:48:00	BASE	12.20	231	16.57	220	-2.4	100	-2.4	17	0	979.9	NA	0.0000	-SN BR	1900	0	0	0	1050
2019/04/29 16:49:00	BASE	11.58	231	16.57	220	-2.4	100	-2.4	16	0	979.9	NA	0.0000	-SN BR	1700	0	0	0	1150
2019/04/29 16:50:00	BASE	11.92	231	16.57	220	-2.4	100	-2.4	16	0	979.9	NA	0.0000	-SN BR	1800	0	0	0	1280
2019/04/29 16:51:00	BASE	11.01	234	16.57	220	-2.4	100	-2.4	16	0	980.0	NA	0.0000	-SN BR	1900	0	0	0	1310
2019/04/29 16:52:00	BASE	11.50	233	16.57	220	-2.4	100	-2.4	16	0	980.0	NA	0.0000	-SN BR	1700	0	0	0	1280
2019/04/29 16:53:00	BASE	13.06	232	16.57	220	-2.4	100	-2.4	16	0	979.9	NA	0.0000	-SN BR	1900	0	0	0	1440
2019/04/29 16:54:00	BASE	12.82	235	15.79	226	-2.4	100	-2.4	16	0	980.0	NA	0.0000	-SN BR	2000	0	0	0	1050
2019/04/29 16:55:00	BASE	11.43	236	15.79	226	-2.4	100	-2.4	16	0	980.0	NA	0.0000	-SN BR	1900	0	0	0	1250
2019/04/29 16:56:00	BASE	11.08	238	15.79	226	-2.4	100	-2.4	16	0	980.0	NA	0.0000	-SN BR	2000	0	0	0	790
2019/04/29 16:57:00	BASE	11.66	237	15.79	226	-2.4	100	-2.4	16	0	980.0	NA	0.0000	-SN BR	2100	0	0	0	1180
2019/04/29 16:58:00	BASE	12.33	233	15.79	226	-2.4	100	-2.4	15	0	980.0	NA	0.0000	-SN BR	2200	0	0	0	1050
2019/04/29 16:59:00	BASE	11.79	234	15.79	226	-2.4	100	-2.4	15	0	980.1	NA	0.0000	-SN BR	2100	0	0	0	1210
2019/04/29 17:00:00	BASE	12.01	235	15.79	226	-2.4	100	-2.4	15	0	980.0	NA	0.0000	-SN BR	2100	0	0	0	1150
2019/04/29 17:01:00	BASE	12.50	231	15.79	226	-2.4	100	-2.4	15	0	980.1	NA	0.0000	-SN BR	2200	0	0	0	1480
2019/04/29 17:02:00	BASE	10.91	233	14.92	236	-2.4	100	-2.4	15	0	980.1	NA	0.0000	-SN BR	2200	0	0	0	1510
2019/04/29 17:03:00	BASE	9.95	238	14.92	236	-2.4	100	-2.4	15	0	980.1	NA	0.0000	-SN BR	2000	0	0	0	1150
2019/04/29 17:04:00	BASE	10.29	239	14.66	229	-2.4	100	-2.4	14	0	980.2	NA	0.0000	-SN BR	1900	0	0	0	920
2019/04/29 17:05:00	BASE	11.55	239	14.66	229	-2.4	100	-2.4	14	0	980.1	NA	0.0000	-SN BR	1900	0	0	0	1180
2019/04/29 17:06:00	BASE	12.48	240	15.64	231	-2.4	100	-2.4	14	0	980.1	NA	0.0000	-SN BR	1700	0	0	0	1120
2019/04/29 17:07:00	BASE	13.66	238	16.51	233	-2.4	100	-2.4	13	0	980.1	NA	0.0000	-SN BR	1400	0	0	0	1150
2019/04/29 17:08:00	BASE	14.41	233	16.51	233	-2.4	100	-2.4	13	0	980.1	NA	0.0000	-SN BR	1700	0	0	0	1180
2019/04/29 17:09:00	BASE	13.07	228	16.51	233	-2.5	100	-2.5	13	0	980.1	NA	0.0000	-SN BR	2000	0	0	0	1150
2019/04/29 17:10:00	BASE	12.04	230	16.51	233	-2.4	100	-2.4	11	0	980.1	NA	0.0000	-SN BR	1700	0	0	0	950
2019/04/29 17:11:00	BASE	10.69	238	16.51	233	-2.4	100	-2.4	11	0	980.1	NA	0.0000	-SN BR	1500	0	0	0	820
2019/04/29 17:12:00	BASE	9.66	247	16.51	233	-2.3	100	-2.3	10	0	980.2	NA	0.0000	-SN BR	1500	0	0	0	820
2019/04/29 17:13:00	BASE	10.77	249	16.51	233	-2.3	100	-2.3	10	0	980.2	NA	0.0000	-SN BR	1600	0	0	0	790
2019/04/29 17:14:00	BASE	12.17	243	16.51	233	-2.3	100	-2.3	10	0	980.2	NA	0.0000	-SN BR	2000	0	0	0	890
2019/04/29 17:15:00	BASE	13.00	239	16.51	233	-2.3	100	-2.3	10	0	980.2	NA	0.0000	-SN BR	2200	0	0	0	950
2019/04/29 17:16:00	BASE	14.23	238	18.01	237	-2.4	100	-2.4	10	0	980.1	NA	0.0000	-SN BR	2200	0	0	0	850
2019/04/29 17:17:00	BASE	15.55	235	18.01	237	-2.5	100	-2.5	11	0	980.1	NA	0.0000	-SN BR	2200	0	0	0	1020
2019/04/29 17:18:00	BASE	15.61	233	18.42	225	-2.5	100	-2.5	11	0	980.1	NA	0.0000	-SN BR	2200	0	0	0	890
2019/04/29 17:19:00	BASE	14.15	232	18.42	225	-2.5	100	-2.5	12	0	980.2	NA	0.0000	-SN BR	2600	0	0	0	1020
2019/04/29 17:20:00	BASE	14.23	231	18.42	225	-2.5	100	-2.5	13	0	980.2	NA	0.0000	-SN BR	2100	0	0	0	1050
2019/04/29 17:21:00	BASE	15.74	234	18.42	225	-2.5	100	-2.5	13	0	980.2	NA	0.0000	-SN BR	1900	0	0	0	920
2019/04/29 17:22:00	BASE	15.27	236	18.42	225	-2.6	100	-2.6	14	0	980.2	NA	0.0000	-SN BR	2300	0	0	0	890
2019/04/29 17:23:00	BASE	14.30	235	18.42	225	-2.6	100	-2.6	15	0	980.3	NA	0.0000	-SN BR	2200	0	0	0	1210
2019/04/29 17:24:00	BASE	13.26	237	18.42	225	-2.7	100	-2.7	14	0	980.3	NA	0.0000	-SN BR	2100	0	0	0	1150
2019/04/29 17:25:00	BASE	12.72	240	18.42	225	-2.7	100	-2.7	13	0	980.3	NA	0.0000	-SN BR	2100	0	0	0	850
2019/04/29 17:26:00	BASE	15.25	233	18.67	231	-2.7	100	-2.7	15	0	980.2	NA	0.0000	-SN BR	1900	0	0	0	1150
2019/04/29 17:27:00	BASE	15.73	230	18.67	231	-2.7	100	-2.7	15	0	980.3	NA	0.0000	-SN BR	2100	0	0	0	1350
2019/04/29 17:28:00	BASE	13.12	234	18.67	231	-2.7	100	-2.7	15	0	980.3	NA	0.0000	-SN BR	2100	0	0	0	1180
2019/04/29 17:29:00	BASE	13.06	239	18.67	231	-2.8	100	-2.8	14	0	980.3	NA	0.0000	-SN BR	2000	0	0	0	1020
2019/04/29 17:30:00	BASE	13.58	239	18.67	231	-2.8	100	-2.8	15	0	980.3	NA	0.0000	-SN BR	2200	0	0	0	1180
2019/04/29 17:31:00	BASE	14.54	236	18.67	231	-2.8	100	-2.8	15	0	980.2	NA	0.0000	-SN BR	2200	0	0	0	1210
2019/04/29 17:32:00	BASE	15.48	235	18.67	231	-2.8	100	-2.8	15	0	980.3	NA	0.0000	-SN BR	2000	0	0	0	1080
2019/04/29 17:33:00	BASE	14.45	235	18.67	231	-2.8	100	-2.8	15	0	980.3	NA	0.0000	-SN BR	1900	0	0	0	1120
2019/04/29 17:34:00	BASE	14.57	239	18.67	231	-2.8	100	-2.8	15	0	980.3	NA	0.0000	-SN BR	2000	0	0	0	1050
2019/04/29 17:35:00	BASE	14.93	239	18.67	231	-2.8	100	-2.8	15	0	980.3	NA	0.0000	-SN BR	2200	0	0	0	1180
2019/04/29 17:36:00	BASE	14.04	236	18.01	235	-2.8	100	-2.8	15	0	980.3	NA	0.0000	-SN BR	2200	0	0	0	1050
2019/04/29 17:37:00	BASE	14.97	235	18.01	235	-2.8	100	-2.8	15	0	980.2	NA	0.0000	-SN BR	2200	0	0	0	1120
2019/04/29 17:38:00	BASE	15.39	234	18.01	235	-2.8	100	-2.8	15	0	980.3	NA	0.0000	-SN BR	2200	0	0	0	1210
2019/04/29 17:39:00	BASE	13.88	235	18.01	235	-2.8	100	-2.8	16	0	980.3	NA	0.0000	-SN BR	2200	0	0	0	1280
2019/04/29 17:40:00	BASE	13.23	236	18.01	235	-2.8	100	-2.8	16	0	980.3	NA	0.0000	-SN BR	2500	0	0	0	1480
2019/04/29 17:41:00	BASE	14.02	232	17.65	229	-2.8	100	-2.8	16	0	980.3	NA	0.0000	-SN BR	2600	0	0	0	1610
2019/04/29 17:42:00	BASE	14.09	232	17.65	229	-2.8	100	-2.8	16	0	980.3	NA	0.0000	-SN BR	2400	0	0	0	1640
2019/04/29 17:43:00	BASE	13.32	233	17.65	229	-2.8	100	-2.8	16	0	980.3	NA	0.0000	-SN BR	2700	0	0	0	1610
2019/04/29 17:44:00	BASE	14.12	231	17.65	229	-2.8	100	-2.8	15	0	980.3	NA	0.0000	-SN BR	2800	0	0	0	1540
2019/04/29 17:45:00	BASE	15.30	230	17.65	229	-2.8	100	-2.8	15	0	980.3	NA	0.0000	-SN BR	2400	0	0	0	1510
2019/04/29 17:46:00	BASE	14.37	232	17.65	229	-2.8	100	-2.8	15	0	980.4	NA	0.0000	-SN BR	2000	0	0	0	1480
2019/04/29 17:47:00	BASE	13.16	234	17.08	234	-2.8	100	-2.8	15	0	980.3	NA	0.0000	-SN BR	2000	0	0	0	1480
2019/04/29 17:48:00	BASE	13.49	232	17.08	234	-2.8	100	-2.8	15	0	980.4	NA	0.0000	-SN BR	2100	0	0	0	1540
2019/04/29 17:49:00	BASE	12.92	228	17.08	234	-2.8	100	-2.8	15	0	980.4	NA	0.0000	-SN BR	2000	0	0	0	1310
2019/04/29 17:50:00	BASE	11.37	230	17.08	234	-2.8	100	-2.8	15	0	980.4	NA	0.0000	-SN BR	2100	0	0	0	890
2019/04/29 17:51:00	BASE	11.06	234	17.08	234	-2.7	100	-2.7	15	0	980.4	NA	0.0000	-SN BR	2100	0	0	0	1640
2019/04/29 17:52:00	BASE	12.21	237	17.08	234	-2.7	100	-2.7	14	0	980.4	NA	0.0000	-SN BR	2100	0	0	0	1410
2019/04/29 17:53:00	BASE	11.91	238	17.08	234	-2.7	100	-2.7	13	0	980.4	NA	0.0000	-SN BR	2000	0	0	0	1150
2019/04/29 17:54:00	BASE	11.31	238	17.08	234	-2.6	100	-2.6	14	0	980.5	NA	0.0000	-SN BR	2000	0	0	0	1310
2019/04/29 17:55:00	BASE	12.98	238	16.20	229	-2.6	100	-2.6	13	0	980.4	NA	0.0000	-SN BR	2300	0	0	0	1510
2019/04/29 17:56:00	BASE	13.13	236	16.20	229	-2.7	100	-2.7	14	0	980.4	NA	0.0000	-SN BR	2500	0	0	0	1250
2019/04/29 17:57:00	BASE	12.07	236	15.84	235	-2.6	100	-2.6	14	0	980.4	NA	0.0000	-SN BR	3300	0	0	0	2230
2019/04/29 17:58:00	BASE	13.01	237	16.05	235	-2.6	100	-2.6	14	0	980.4	NA	0.0000	-SN BR	4600	0	0	0	1710
2019/04/29 17:59:00	BASE	12.93	237	16.05	235	-2.6	100	-2.6	13	0	980.5	NA	0.0000	-SN BR	4400	0	0	0	1350
2019/04/29 18:00:00	BASE	11.02	240	16.05	235	-2.6	100	-2.6	12	0	980.5	NA	0.0000	-SN BR	3500	0	0	0	1150
2019/04/29 18:01:00	BASE	12.67	245	17.29	247	-2.6	100	-2.6	14	0	980.5	NA	0.0000	-SN BR	4200	0	0	0	1120
2019/04/29 18:02:00	BASE	15.03	246	17.29	247	-2.7	100	-2.7	15	0	980.5	NA	0.0000	-SN BR	6000	0	0	0	1670
2019/04/29 18:03:00	BASE	14.75	246	17.29	247	-2.7	100	-2.7	16	0	980.5	NA	0.0000	-SN BR	4700	0	0	0	1540
2019/04/29 18:04:00	BASE	14.34	243	17.29	247	-2.8	100	-2.8	16	0	980.5	NA	0.0000	-SN BR	5000	0	0	0	2330
2019/04/29 18:05:00	BASE	13.81	243	17.29	247	-2.9	100	-2.9	16	0	980.6	NA	0.0000	-SN BR	7000	0	0	0	1640
2019/04/29 18:06:00	BASE	14.24	247	17.29	247	-2.9	100	-2.9	15	0	980.5	NA	0.0000	-SN BR	6000	0	0	0	1770
2019/04/29 18:07:00	BASE	14.02	246	17.29	247	-2.9	100	-2.9	15	0	980.5	NA	0.0000	-SN BR	4400	0	0	0	2430
2019/04/29 18:08:00	BASE	13.31	242	17.29	247	-2.9	100	-2.9	14	0	980.5	NA	0.0000	-SN BR	3600	0	0	0	1710
2019/04/29 18:09:00	BASE	13.48	240	17.29	247	-2.9	100	-2.9	14	0	980.5	NA	0.0000	-SN BR	3200	0	0	0	2200
2019/04/29 18:10:00	BASE	13.24	241	17.29	247	-2.9	100	-2.9	13	0	980.5	NA	0.0000	-SN BR	2400	0	0	0	1480
2019/04/29 18:11:00	BASE	13.23	240	17.08	244	-2.9	100	-2.9	13	0	980.4	NA	0.0000	-SN BR	2000	0	0	0	1840
2019/04/29 18:12:00	BASE	12.35	239	17.08	244	-2.9	100	-2.9	13	0	980.4	NA	0.0000	-SN BR	2000	0	0	0	1610
2019/04/29 18:13:00	BASE	11.29	243	16.15	246	-2.9	100	-2.9	13	0	980.3	NA	0.0000	-SN BR	2100	0	0	0	1280
2019/04/29 18:14:00	BASE	12.31	246	16.15	246	-2.9	100	-2.9	13	0	980.6	NA	0.0000	-SN BR	2100	0	0	0	1080
2019/04/29 18:15:00	BASE	13.94	246	16.26	242	-2.8	100	-2.8	14	0	980.6	NA	0.0000	-SN BR	2600	0	0	0	1350
2019/04/29 18:16:00	BASE	14.06	244	16.26	242	-2.9	100	-2.9	15	0	980.6	NA	0.0000	-SN BR	3400	0	0	0	1210
2019/04/29 18:17:00	BASE	12.38	242	16.26	242	-2.9	100	-2.9	16	0	980.6	NA	0.0000	-SN BR	3300	0	0	0	1080
2019/04/29 18:18:00	BASE	10.78	239	16.26	242	-2.9	100	-2.9	16	0	980.6	NA	0.0000	-SN BR	3400	230	0	0	0
2019/04/29 18:19:00	BASE	10.94	241	16.26	242	-2.8	100	-2.8	17	0	980.6	NA	0.0000	-SN BR	3400	0	0	0	1180
2019/04/29 18:20:00	BASE	12.55	241	16.26	242	-2.8	100	-2.8	17	0	980.6	NA	0.0000	-SN BR	3100	0	0	0	1970
2019/04/29 18:21:00	BASE	12.63	237	16.26	242	-2.8	100	-2.8	16	0	980.6	NA	0.0000	-SN BR	3400	0	0	0	1900
2019/04/29 18:22:00	BASE	11.73	236	16.26	242	-2.8	100	-2.8	18	0	980.6	NA	0.0000	-SN BR	4300	0	0	0	1310
2019/04/29 18:23:00	BASE	11.99	235	16.93	233	-2.8	100	-2.8	18	0	980.6	NA	0.0000	-SN BR	2800	0	0	0	2200
2019/04/29 18:24:00	BASE	13.11	236	17.18	231	-2.8	100	-2.8	19	0	980.6	NA	0.0000	-SN BR	2500	0	0	0	2000
2019/04/29 18:25:00	BASE	13.41	239	17.18	231	-2.8	100	-2.8	20	0	980.6	NA	0.0000	-SN BR	3000	0	0	0	1970
2019/04/29 18:26:00	BASE	13.47	238	17.18	231	-2.8	100	-2.8	20	0	980.6	NA	0.0000	-SN BR	3300	0	0	0	1770
2019/04/29 18:27:00	BASE	13.96	240	17.18	231	-2.8	100	-2.8	21	0	980.5	NA	0.0000	-SN BR	4700	0	0	0	2200
2019/04/29 18:28:00	BASE	13.24	242	17.18	231	-2.8	100	-2.8	22	0	980.7	NA	0.0000	-SN BR	5000	0	0	0	2000
2019/04/29 18:29:00	BASE	11.96	238	17.18	231	-2.9	100	-2.9	21	0	980.5	NA	0.0000	-SN BR	4500	0	0	0	1940
2019/04/29 18:30:00	BASE	11.17	238	17.18	231	-2.9	100	-2.9	21	0	980.7	NA	0.0000	-SN BR	4400	0	0	0	1940
2019/04/29 18:31:00	BASE	11.74	238	17.18	231	-2.8	100	-2.8	19	0	980.7	NA	0.0000	-SN BR	4200	0	0	0	1970
2019/04/29 18:32:00	BASE	12.01	242	17.18	231	-2.8	100	-2.8	20	0	980.7	NA	0.0000	-SN BR	3800	0	0	0	1480
2019/04/29 18:33:00	BASE	11.40	246	17.18	231	-2.8	100	-2.8	18	0	980.8	NA	0.0000	-SN BR	4000	0	0	0	1480
2019/04/29 18:34:00	BASE	10.82	244	16.31	242	-2.8	100	-2.8	18	0	980.8	NA	0.0000	-SN BR	5000	0	0	0	1770
2019/04/29 18:35:00	BASE	11.46	245	16.31	242	-2.8	100	-2.8	18	0	980.8	NA	0.0000	-SN BR	4700	0	0	0	1350
2019/04/29 18:36:00	BASE	12.57	245	16.31	242	-2.8	100	-2.8	18	0	980.8	NA	0.0000	-SN BR	5000	0	0	0	2000
2019/04/29 18:37:00	BASE	12.07	242	15.54	241	-2.8	100	-2.8	18	0	980.8	NA	0.0000	-SN BR	7000	0	0	0	2170
2019/04/29 18:38:00	BASE	10.79	243	14.66	238	-2.8	100	-2.8	17	0	980.8	NA	0.0000	-SN BR	5000	0	0	0	2070
2019/04/29 18:39:00	BASE	11.16	246	14.66	238	-2.8	100	-2.8	16	0	980.9	NA	0.0000	-SN BR	4800	0	0	0	1970
2019/04/29 18:40:00	BASE	12.27	246	14.66	238	-2.8	100	-2.8	16	0	980.9	NA	0.0000	-SN BR	5000	0	0	0	1150
2019/04/29 18:41:00	BASE	12.00	245	14.46	244	-2.8	100	-2.8	17	0	980.9	NA	0.0000	-SN BR	6000	0	0	0	2130
2019/04/29 18:42:00	BASE	12.05	245	14.46	244	-2.8	100	-2.8	16	0	980.9	NA	0.0000	-SN BR	6000	0	0	0	2400
2019/04/29 18:43:00	BASE	12.29	241	14.46	244	-2.8	100	-2.8	16	0	980.9	NA	0.0000	-SN BR	7000	0	0	0	2100
2019/04/29 18:44:00	BASE	11.61	239	14.46	244	-2.8	100	-2.8	16	0	980.9	NA	0.0000	-SN BR	8000	0	0	0	1480
2019/04/29 18:45:00	BASE	11.61	244	14.46	244	-2.8	100	-2.8	16	0	980.9	NA	0.0000	-SN BR	8000	230	0	0	0
2019/04/29 18:46:00	BASE	11.94	246	13.84	247	-2.8	100	-2.8	16	0	980.9	NA	0.0000	-SN BR	7000	230	0	0	0
2019/04/29 18:47:00	BASE	11.45	241	13.84	247	-2.8	100	-2.8	17	0	980.9	NA	0.0000	-SN BR	9000	260	0	0	0
2019/04/29 18:48:00	BASE	10.88	238	13.84	247	-2.7	100	-2.7	17	0	980.9	NA	0.0000	-SN BR	9999	260	0	0	0
2019/04/29 18:49:00	BASE	10.91	237	13.84	247	-2.7	100	-2.7	16	0	980.9	NA	0.0000	-SN BR	9999	260	0	0	0
2019/04/29 18:50:00	BASE	11.79	232	13.84	227	-2.7	100	-2.7	13	0	980.9	NA	0.0000	-SN BR	9999	260	0	0	0
2019/04/29 18:51:00	BASE	11.80	234	13.84	227	-2.7	100	-2.7	12	0	980.9	NA	0.0000	-SN BR	9999	230	0	0	0
2019/04/29 18:52:00	BASE	11.56	241	13.84	231	-2.7	100	-2.7	12	0	980.8	NA	0.0000	-SN BR	9999	0	0	0	1440
2019/04/29 18:53:00	BASE	13.07	245	15.33	250	-2.7	100	-2.7	12	0	980.9	NA	0.0000	-SN BR	9999	0	0	0	1740
2019/04/29 18:54:00	BASE	13.93	246	15.33	250	-2.7	100	-2.7	12	0	980.9	NA	0.0000	-SN BR	9999	0	0	0	1770
2019/04/29 18:55:00	BASE	12.79	246	15.33	250	-2.7	100	-2.7	13	0	980.9	NA	0.0000	-SN	9999	0	0	0	1610
2019/04/29 18:56:00	BASE	12.59	241	15.33	250	-2.8	100	-2.8	13	0	980.8	NA	0.0000	-SN	9999	230	0	0	0
2019/04/29 18:57:00	BASE	13.02	237	15.69	234	-2.8	100	-2.8	12	0	980.8	NA	0.0000	-SN	9999	230	0	0	0
2019/04/29 18:58:00	BASE	15.21	236	19.86	232	-2.8	100	-2.8	12	0	980.7	NA	0.0000	-SN	9999	0	0	0	1410
2019/04/29 18:59:00	BASE	17.54	233	19.86	232	-2.8	100	-2.8	13	0	980.7	NA	0.0000	-SN	9999	0	0	0	1510
2019/04/29 19:00:00	BASE	16.70	233	19.86	232	-2.8	100	-2.8	13	0	980.8	NA	0.0000	-SN	9999	0	0	0	2990
2019/04/29 19:01:00	BASE	16.16	233	19.86	232	-2.9	100	-2.9	13	0	980.8	NA	0.0000	-SN	9999	260	0	0	0
2019/04/29 19:02:00	BASE	15.60	232	19.86	232	-2.9	100	-2.9	13	0	980.8	NA	0.0000	-SN	9999	230	0	0	0
2019/04/29 19:03:00	BASE	16.08	229	19.86	232	-2.9	100	-2.9	13	0	980.7	NA	0.0000	-SN	9999	300	0	0	0
2019/04/29 19:04:00	BASE	17.20	228	19.86	232	-2.9	100	-2.9	13	0	980.8	NA	0.0000	-SN	9999	0	0	0	3640
2019/04/29 19:05:00	BASE	16.35	230	19.86	232	-2.9	100	-2.9	12	0	980.8	NA	0.0000	-SN	9999	330	0	0	0
2019/04/29 19:06:00	BASE	16.14	230	19.86	232	-2.9	100	-2.9	12	0	980.8	NA	0.0000	-SN	9999	330	0	0	0
2019/04/29 19:07:00	BASE	16.16	228	19.86	232	-2.9	100	-2.9	12	0	980.8	NA	0.0000	-SN	9999	330	0	0	0
2019/04/29 19:08:00	BASE	15.48	233	18.83	230	-2.9	100	-2.9	12	0	980.8	NA	0.0000	-SN	9999	0	0	0	3250
2019/04/29 19:09:00	BASE	14.85	238	18.83	230	-2.9	100	-2.9	12	0	980.8	NA	0.0000	-SN	9999	300	0	0	0
2019/04/29 19:10:00	BASE	14.29	235	18.83	230	-2.9	100	-2.9	11	0	980.8	NA	0.0000	-SN	9999	300	0	0	0
2019/04/29 19:11:00	BASE	13.80	233	18.83	230	-2.9	100	-2.9	11	0	980.9	NA	0.0000		9999	330	0	0	0
2019/04/29 19:12:00	BASE	13.96	233	18.83	230	-2.9	100	-2.9	10	0	980.9	NA	0.0000		9999	300	0	0	0
2019/04/29 19:13:00	BASE	13.93	230	18.52	228	-2.9	100	-2.9	10	0	980.9	NA	0.0000		9999	300	0	0	0
2019/04/29 19:14:00	BASE	14.12	230	18.52	228	-2.9	100	-2.9	10	0	980.9	NA	0.0000		9999	300	0	0	0
2019/04/29 19:15:00	BASE	15.96	230	18.52	228	-2.8	100	-2.8	10	0	980.9	NA	0.0000		9999	330	0	0	0
2019/04/29 19:16:00	BASE	17.05	230	18.52	228	-2.9	100	-2.9	10	0	980.9	NA	0.0000		9999	0	0	0	3710
2019/04/29 19:17:00	BASE	16.75	233	18.42	234	-2.9	100	-2.9	10	0	980.9	NA	0.0000		9999	0	0	0	3540
2019/04/29 19:18:00	BASE	16.06	232	18.42	221	-3.0	100	-3.0	10	0	980.9	NA	0.0000		9999	0	0	0	3710
2019/04/29 19:19:00	BASE	16.30	230	18.42	221	-3.0	100	-3.0	10	0	980.9	NA	0.0000		9999	0	0	0	3740
2019/04/29 19:20:00	BASE	16.86	231	18.42	221	-3.0	100	-3.0	9	0	980.9	NA	0.0000		9999	360	0	0	0
2019/04/29 19:21:00	BASE	15.95	231	18.42	221	-3.0	100	-3.0	9	0	980.9	NA	0.0000		9999	0	0	0	3710
2019/04/29 19:22:00	BASE	16.25	233	19.14	230	-3.0	100	-3.0	9	0	980.9	NA	0.0000		9999	360	0	0	0
2019/04/29 19:23:00	BASE	15.76	232	19.14	230	-3.0	100	-3.0	9	0	980.9	NA	0.0000		9999	0	0	0	3640
2019/04/29 19:24:00	BASE	14.61	229	19.14	230	-3.0	100	-3.0	8	0	980.9	NA	0.0000		9999	360	0	0	0
2019/04/29 19:25:00	BASE	14.39	230	19.14	230	-3.0	100	-3.0	8	0	980.9	NA	0.0000		9999	0	0	0	3580
2019/04/29 19:26:00	BASE	14.56	229	19.14	230	-3.0	100	-3.0	8	0	980.9	NA	0.0000		9999	0	0	0	3670
2019/04/29 19:27:00	BASE	14.85	228	19.14	230	-3.0	100	-3.0	8	0	980.9	NA	0.0000		9999	0	0	0	3670
2019/04/29 19:28:00	BASE	15.42	233	19.14	230	-2.9	100	-2.9	8	0	980.9	NA	0.0000		9999	0	0	0	3900
2019/04/29 19:29:00	BASE	16.08	229	19.14	230	-2.9	100	-2.9	8	0	980.9	NA	0.0000		9999	0	0	0	4000
2019/04/29 19:30:00	BASE	16.19	225	19.14	230	-3.0	100	-3.0	8	0	980.9	NA	0.0000		9999	0	0	0	4000
2019/04/29 19:31:00	BASE	16.40	229	19.14	230	-3.0	100	-3.0	8	0	980.9	NA	0.0000		9999	0	0	0	4070
2019/04/29 19:32:00	BASE	15.63	228	18.57	230	-3.0	100	-3.0	7	0	981.0	NA	0.0000		9999	0	0	0	4170
2019/04/29 19:33:00	BASE	13.79	227	18.57	230	-2.9	100	-2.9	7	0	981.0	NA	0.0000		9999	620	0	0	0
2019/04/29 19:34:00	BASE	12.65	231	18.57	230	-2.9	100	-2.9	7	0	981.0	NA	0.0000		9000	3150	0	0	0
2019/04/29 19:35:00	BASE	13.48	233	18.57	230	-2.9	100	-2.9	7	0	981.0	NA	0.0000	BR	9000	390	0	0	0
2019/04/29 19:36:00	BASE	13.94	233	18.57	230	-2.8	100	-2.8	6	0	981.0	NA	0.0000	BR	9000	390	0	0	0
2019/04/29 19:37:00	BASE	13.50	232	18.57	230	-2.8	100	-2.8	6	0	981.0	NA	0.0000	BR	9000	850	0	0	0
2019/04/29 19:38:00	BASE	13.85	231	18.57	230	-2.8	100	-2.8	6	0	981.0	NA	0.0000	BR	9000	3150	0	0	0
2019/04/29 19:39:00	BASE	13.57	229	18.57	230	-2.9	100	-2.9	6	0	981.0	NA	0.0000	BR	9000	1570	3120	0	0
2019/04/29 19:40:00	BASE	14.21	227	18.47	231	-2.8	100	-2.8	5	0	981.0	NA	0.0000	BR	8000	3050	0	0	0
2019/04/29 19:41:00	BASE	14.73	230	17.80	233	-2.8	100	-2.8	5	0	981.0	NA	0.0000	BR	8000	3080	0	0	0
2019/04/29 19:42:00	BASE	13.28	231	17.80	233	-2.8	100	-2.8	5	0	981.0	NA	0.0000	BR	8000	720	0	0	0
2019/04/29 19:43:00	BASE	13.66	229	17.80	233	-2.8	100	-2.8	5	0	981.0	NA	0.0000	BR	8000	3250	0	0	0
2019/04/29 19:44:00	BASE	13.40	226	17.80	233	-2.8	100	-2.8	5	0	981.0	NA	0.0000	BR	7000	3510	0	0	0
2019/04/29 19:45:00	BASE	13.69	223	17.80	233	-2.9	100	-2.9	4	0	981.0	NA	0.0000	BR	7000	3480	0	0	0
2019/04/29 19:46:00	BASE	15.22	222	17.80	233	-2.8	100	-2.8	4	0	981.0	NA	0.0000	BR	7000	3580	0	0	0
2019/04/29 19:47:00	BASE	14.62	220	17.80	233	-2.9	100	-2.9	4	0	981.0	NA	0.0000	BR	7000	0	0	0	4330
2019/04/29 19:48:00	BASE	13.92	221	17.80	233	-2.8	100	-2.8	4	0	981.1	NA	0.0000	BR	7000	3480	0	0	0
2019/04/29 19:49:00	BASE	13.84	222	17.80	233	-2.8	100	-2.8	4	0	981.1	NA	0.0000	BR	7000	3540	0	0	0
2019/04/29 19:50:00	BASE	13.75	219	17.34	221	-2.8	100	-2.8	3	0	981.1	NA	0.0000	BR	6000	3770	0	0	0
2019/04/29 19:51:00	BASE	13.99	219	17.34	221	-2.8	100	-2.8	3	0	981.2	NA	0.0000	BR	6000	0	0	0	4330
2019/04/29 19:52:00	BASE	14.06	221	17.34	221	-2.8	100	-2.8	3	0	981.2	NA	0.0000	BR	6000	620	0	0	0
2019/04/29 19:53:00	BASE	13.59	221	17.34	221	-2.8	100	-2.8	3	0	981.2	NA	0.0000	BR	6000	0	0	0	4330
2019/04/29 19:54:00	BASE	12.76	216	17.34	221	-2.8	100	-2.8	3	0	981.2	NA	0.0000	BR	6000	0	0	0	4300
2019/04/29 19:55:00	BASE	12.89	215	16.57	219	-2.8	100	-2.8	3	0	981.2	NA	0.0000	BR	6000	0	0	0	4100
2019/04/29 19:56:00	BASE	13.83	214	16.10	213	-2.8	100	-2.8	2	0	981.1	NA	0.0000	BR	6000	1670	0	0	0
2019/04/29 19:57:00	BASE	14.16	213	16.10	213	-2.8	100	-2.8	2	0	981.2	NA	0.0000	BR	5000	0	0	0	4040
2019/04/29 19:58:00	BASE	14.44	215	16.10	213	-2.8	100	-2.8	2	0	981.0	NA	0.0000	UP BR	5000	0	0	0	4100
2019/04/29 19:59:00	BASE	14.63	215	16.10	213	-2.8	100	-2.8	2	0	980.8	NA	0.0000	UP BR	5000	0	0	0	4200
2019/04/29 20:00:00	BASE	14.81	215	16.46	215	-2.8	100	-2.8	2	0	981.2	NA	0.0000	UP BR	5000	1840	0	0	0
2019/04/29 20:01:00	BASE	14.30	215	16.46	215	-2.8	100	-2.8	2	0	981.2	NA	0.0000	UP BR	5000	0	0	0	4200
2019/04/29 20:02:00	BASE	13.51	216	16.46	215	-2.8	100	-2.8	2	0	981.2	NA	0.0000	UP BR	5000	0	0	0	4200
2019/04/29 20:03:00	BASE	14.31	218	16.46	215	-2.8	100	-2.8	2	0	981.2	NA	0.0000	UP BR	5000	0	0	0	4230
2019/04/29 20:04:00	BASE	14.64	217	16.46	215	-2.8	100	-2.8	3	0	981.2	NA	0.0000	UP BR	5000	390	0	0	0
2019/04/29 20:05:00	BASE	13.69	215	16.46	215	-2.8	100	-2.8	3	0	981.2	NA	0.0000	UP BR	5000	0	0	0	4100
2019/04/29 20:06:00	BASE	12.97	212	16.46	215	-2.8	100	-2.8	3	0	981.2	NA	0.0000	UP BR	5000	390	0	0	0
2019/04/29 20:07:00	BASE	12.13	213	16.46	215	-2.8	100	-2.8	4	0	981.2	NA	0.0000	UP BR	6000	0	0	0	4270
2019/04/29 20:08:00	BASE	11.16	216	16.46	215	-2.8	100	-2.8	3	0	981.2	NA	0.0000	UP BR	9000	0	0	0	4300
2019/04/29 20:09:00	BASE	10.84	214	16.46	215	-2.7	100	-2.7	3	0	981.2	NA	0.0000	UP BR	9000	0	0	0	4590
2019/04/29 20:10:00	BASE	11.57	211	16.26	213	-2.7	100	-2.7	3	0	981.2	NA	0.0000	UP BR	9000	0	0	0	4890
2019/04/29 20:11:00	BASE	12.42	210	16.26	213	-2.7	100	-2.7	3	0	981.2	NA	0.0000	UP BR	9000	0	0	0	4990
2019/04/29 20:12:00	BASE	12.38	211	16.26	213	-2.7	100	-2.7	2	0	981.2	NA	0.0000	UP BR	9000	2920	0	0	0
2019/04/29 20:13:00	BASE	12.12	210	16.26	213	-2.7	100	-2.7	2	0	981.2	NA	0.0000	UP BR	9000	2950	0	0	0
2019/04/29 20:14:00	BASE	11.67	206	15.43	215	-2.7	100	-2.7	2	0	981.2	NA	0.0000	UP BR	8000	0	0	0	5050
2019/04/29 20:15:00	BASE	11.38	203	15.43	215	-2.8	100	-2.8	1	0	981.2	NA	0.0000	UP BR	8000	460	0	0	0
2019/04/29 20:16:00	BASE	12.02	203	15.43	215	-2.8	100	-2.8	1	0	981.2	NA	0.0000	UP BR	8000	620	0	0	0
2019/04/29 20:17:00	BASE	12.57	204	15.43	215	-2.8	100	-2.8	1	0	981.2	NA	0.0000	BR	8000	660	0	0	0
2019/04/29 20:18:00	BASE	11.85	203	15.43	215	-2.7	100	-2.7	1	0	981.2	NA	0.0000	BR	8000	890	0	0	0
2019/04/29 20:19:00	BASE	10.43	199	15.43	215	-2.7	100	-2.7	1	0	981.2	NA	0.0000	BR	8000	2460	0	0	0
2019/04/29 20:20:00	BASE	10.51	198	15.43	215	-2.7	100	-2.7	1	0	981.2	NA	0.0000	BR	9999	2230	0	0	0
2019/04/29 20:21:00	BASE	10.96	204	15.43	215	-2.7	100	-2.7	1	0	981.3	NA	0.0000	BR	9999	2100	0	0	0
2019/04/29 20:22:00	BASE	10.44	206	13.68	215	-2.7	100	-2.7	1	0	981.3	NA	0.0000	BR	9999	2490	0	0	0
2019/04/29 20:23:00	BASE	9.24	200	13.53	207	-2.7	100	-2.7	1	0	981.4	NA	0.0000	UP BR	7000	2170	0	0	0
2019/04/29 20:24:00	BASE	8.10	200	13.53	207	-2.6	100	-2.6	0	0	981.4	NA	0.0000	UP BR	7000	2400	0	0	0
2019/04/29 20:25:00	BASE	8.52	201	13.53	207	-2.7	100	-2.7	0	0	981.4	NA	0.0000	UP BR	7000	2230	0	0	0
2019/04/29 20:26:00	BASE	8.79	200	13.53	207	-2.6	100	-2.6	0	0	981.3	NA	0.0000	UP BR	7000	2560	0	0	0
2019/04/29 20:27:00	BASE	8.00	199	13.27	206	-2.6	100	-2.6	0	0	981.4	NA	0.0000	UP BR	7000	2260	0	0	0
2019/04/29 20:28:00	BASE	7.26	202	13.17	202	-2.6	100	-2.6	0	0	981.4	NA	0.0000	UP BR	7000	2100	0	0	0
2019/04/29 20:29:00	BASE	7.10	205	13.17	202	-2.6	100	-2.6	0	0	981.4	NA	0.0000	UP BR	7000	2170	0	0	0
2019/04/29 20:30:00	BASE	7.14	201	12.55	216	-2.6	100	-2.6	0	0	981.4	NA	0.0000	UP BR	7000	1640	2200	0	0
2019/04/29 20:31:00	BASE	8.13	203	11.37	211	-2.5	100	-2.5	0	0	981.4	NA	0.0000	UP BR	7000	2200	0	0	0
2019/04/29 20:32:00	BASE	8.91	207	9.88	212	-2.5	100	-2.5	0	0	981.4	NA	0.0000	UP BR	7000	2360	0	0	0
2019/04/29 20:33:00	BASE	8.24	205	9.88	212	-2.5	100	-2.5	0	0	981.4	NA	0.0000	UP BR	7000	2430	0	0	0
2019/04/29 20:34:00	BASE	7.83	207	9.88	212	-2.5	100	-2.5	0	0	981.4	NA	0.0000	UP BR	7000	2330	0	0	0
2019/04/29 20:35:00	BASE	7.88	213	9.88	212	-2.5	100	-2.5	0	0	981.4	NA	0.0000	BR	9999	2330	0	0	0
2019/04/29 20:36:00	BASE	7.68	212	9.88	212	-2.4	100	-2.4	0	0	981.4	NA	0.0000	BR	9999	2460	0	0	0
2019/04/29 20:37:00	BASE	8.67	216	11.42	232	-2.4	100	-2.4	0	0	981.4	NA	0.0000	BR	9999	2300	0	0	0
2019/04/29 20:38:00	BASE	10.33	230	12.30	225	-2.4	100	-2.4	0	0	981.4	NA	0.0000	BR	9999	2300	0	0	0
2019/04/29 20:39:00	BASE	11.74	233	14.56	238	-2.3	100	-2.3	0	0	981.3	NA	0.0000	BR	9999	2400	0	0	0
2019/04/29 20:40:00	BASE	13.19	234	16.51	235	-2.2	100	-2.2	0	0	981.3	NA	0.0000		9999	2360	0	0	0
2019/04/29 20:41:00	BASE	13.85	235	16.51	235	-2.2	100	-2.2	0	0	981.3	NA	0.0000		9999	2590	0	0	0
2019/04/29 20:42:00	BASE	13.69	232	16.51	235	-2.1	100	-2.1	0	0	981.3	NA	0.0000		9999	0	0	0	3940
2019/04/29 20:43:00	BASE	13.93	230	16.51	235	-2.1	100	-2.1	0	0	981.3	NA	0.0000		9999	2660	0	0	0
2019/04/29 20:44:00	BASE	14.39	228	16.51	235	-2.1	100	-2.2	0	0	981.4	NA	0.0000		9999	2330	0	0	0
2019/04/29 20:45:00	BASE	14.03	229	16.51	235	-2.1	99	-2.2	0	0	981.4	NA	0.0000		9999	2460	0	0	0
2019/04/29 20:46:00	BASE	13.85	229	16.51	235	-2.1	98	-2.3	0	0	981.3	NA	0.0000		9999	2690	0	0	0
2019/04/29 20:47:00	BASE	14.46	230	16.51	235	-2.0	97	-2.4	0	0	981.3	NA	0.0000		9999	2360	0	0	0
2019/04/29 20:48:00	BASE	14.57	232	16.51	235	-2.0	96	-2.6	0	0	981.3	NA	0.0000		9999	2560	3350	0	0
2019/04/29 20:49:00	BASE	14.29	234	16.98	235	-2.0	95	-2.7	0	0	981.3	NA	0.0000		9999	2530	0	0	0
2019/04/29 20:50:00	BASE	14.78	234	16.98	235	-2.0	94	-2.9	0	0	981.3	NA	0.0000		9999	2820	0	0	0
2019/04/29 20:51:00	BASE	13.59	235	16.98	235	-2.0	93	-3.0	0	0	981.3	NA	0.0000		9999	2790	0	0	0
2019/04/29 20:52:00	BASE	11.99	239	16.98	235	-2.0	92	-3.2	0	0	981.3	NA	0.0000		9999	2660	0	0	0
2019/04/29 20:53:00	BASE	11.82	241	16.98	235	-2.0	91	-3.3	0	0	981.3	NA	0.0000		9999	2560	0	0	0
2019/04/29 20:54:00	BASE	11.96	240	16.98	235	-2.0	90	-3.4	0	0	981.3	NA	0.0000		9999	2620	0	0	0
2019/04/29 20:55:00	BASE	12.61	234	16.98	235	-2.0	89	-3.5	0	0	981.3	NA	0.0000		9999	2790	0	0	0
2019/04/29 20:56:00	BASE	14.50	226	17.59	225	-2.0	89	-3.6	0	0	981.2	NA	0.0000		9999	2400	3080	0	0
2019/04/29 20:57:00	BASE	16.41	225	17.85	226	-2.0	88	-3.6	0	0	981.2	NA	0.0000		9999	2430	3180	0	0
2019/04/29 20:58:00	BASE	15.88	225	17.85	226	-1.9	88	-3.6	0	0	981.3	NA	0.0000		9999	2720	0	0	0
2019/04/29 20:59:00	BASE	14.60	226	17.85	226	-1.9	88	-3.7	0	0	981.3	NA	0.0000		9999	2720	0	0	0
2019/04/29 21:00:00	BASE	14.89	227	17.85	226	-1.9	88	-3.7	0	0	981.3	NA	0.0000		9999	2790	0	0	0
2019/04/29 21:01:00	BASE	15.86	225	17.85	226	-1.9	87	-3.8	0	0	981.2	NA	0.0000		9999	3050	0	0	0
2019/04/29 21:02:00	BASE	15.75	226	17.85	226	-1.9	87	-3.8	0	0	981.3	NA	0.0000		9999	2460	3480	0	0
2019/04/29 21:03:00	BASE	14.13	230	17.85	226	-1.9	87	-3.8	0	0	981.4	NA	0.0000		9999	3540	0	0	0
2019/04/29 21:04:00	BASE	14.19	228	17.85	226	-1.9	86	-3.9	0	0	981.3	NA	0.0000		9999	3020	4070	0	0
2019/04/29 21:05:00	BASE	15.21	227	17.85	226	-1.9	86	-3.9	0	0	981.3	NA	0.0000		9999	2990	0	0	0
2019/04/29 21:06:00	BASE	14.95	228	17.85	226	-1.9	86	-4.0	0	0	981.3	NA	0.0000		9999	3480	0	0	0
2019/04/29 21:07:00	BASE	14.81	227	17.75	221	-1.9	86	-4.0	0	0	981.3	NA	0.0000		9999	3480	4430	0	0
2019/04/29 21:08:00	BASE	14.69	229	17.75	221	-2.0	85	-4.1	0	0	981.4	NA	0.0000		9999	4430	0	0	0
2019/04/29 21:09:00	BASE	13.74	230	17.75	221	-2.0	85	-4.1	0	0	981.4	NA	0.0000		9999	4460	0	0	0
2019/04/29 21:10:00	BASE	13.62	228	17.75	221	-2.0	85	-4.2	0	0	981.3	NA	0.0000		9999	3540	0	0	0
2019/04/29 21:11:00	BASE	14.39	227	17.54	229	-2.0	85	-4.2	0	0	981.3	NA	0.0000		9999	3870	4820	0	0
2019/04/29 21:12:00	BASE	13.83	226	17.18	226	-2.0	85	-4.2	0	0	981.4	NA	0.0000		9999	4530	0	0	0
2019/04/29 21:13:00	BASE	14.24	227	17.18	226	-2.0	84	-4.2	0	0	981.3	NA	0.0000		9999	4630	0	0	0
2019/04/29 21:14:00	BASE	14.74	230	16.67	224	-2.0	84	-4.3	0	0	981.3	NA	0.0000		9999	4720	0	0	0
2019/04/29 21:15:00	BASE	14.38	230	16.67	224	-2.0	84	-4.3	0	0	981.3	NA	0.0000		9999	6200	0	0	0
2019/04/29 21:16:00	BASE	14.91	227	16.87	223	-2.0	84	-4.3	0	0	981.3	NA	0.0000		9999	6200	0	0	0
2019/04/29 21:17:00	BASE	15.00	224	16.87	223	-2.0	84	-4.4	0	0	981.4	NA	0.0000		9999	6040	0	0	0
2019/04/29 21:18:00	BASE	13.88	223	16.87	223	-1.9	83	-4.4	0	0	981.4	NA	0.0000		9999	5940	0	0	0
2019/04/29 21:19:00	BASE	13.05	224	16.87	223	-1.9	83	-4.4	0	0	981.4	NA	0.0000		9999	5870	0	0	0
2019/04/29 21:20:00	BASE	14.17	226	16.87	223	-1.9	83	-4.4	0	0	981.3	NA	0.0000		9999	2560	0	0	0
2019/04/29 21:21:00	BASE	14.85	224	16.87	223	-1.9	83	-4.4	0	0	981.4	NA	0.0000		9999	2920	0	0	0
2019/04/29 21:22:00	BASE	13.35	222	16.87	223	-1.9	83	-4.4	0	0	981.4	NA	0.0000		9999	3220	0	0	0
2019/04/29 21:23:00	BASE	12.73	225	16.87	223	-1.9	83	-4.4	0	0	981.4	NA	0.0000		9999	2530	0	0	0
2019/04/29 21:24:00	BASE	12.40	232	16.87	223	-1.9	83	-4.4	0	0	981.4	NA	0.0000		9999	2530	0	0	0
2019/04/29 21:25:00	BASE	12.24	234	16.87	223	-1.9	83	-4.4	0	0	981.4	NA	0.0000		9999	2590	0	0	0
2019/04/29 21:26:00	BASE	12.04	234	16.77	221	-1.9	83	-4.3	0	0	981.4	NA	0.0000		9999	2490	0	0	0
2019/04/29 21:27:00	BASE	12.65	233	16.77	221	-1.9	84	-4.3	0	0	981.3	NA	0.0000		9999	3710	0	0	0
2019/04/29 21:28:00	BASE	13.96	229	16.77	221	-1.9	84	-4.3	0	0	981.4	NA	0.0000		9999	2530	0	0	0
2019/04/29 21:29:00	BASE	14.34	227	16.77	221	-1.9	84	-4.3	0	0	981.4	NA	0.0000		9999	4760	0	0	0
2019/04/29 21:30:00	BASE	15.11	227	16.36	226	-1.9	84	-4.3	0	0	981.3	NA	0.0000		9999	2790	0	0	0
2019/04/29 21:31:00	BASE	15.01	228	16.36	226	-2.0	84	-4.3	0	0	981.3	NA	0.0000		9999	2820	0	0	0
2019/04/29 21:32:00	BASE	14.56	227	16.36	226	-2.0	84	-4.3	0	0	981.4	NA	0.0000		9999	3080	0	0	0
2019/04/29 21:33:00	BASE	14.57	224	16.36	226	-2.0	84	-4.3	0	0	981.4	NA	0.0000		9999	5150	0	0	0
2019/04/29 21:34:00	BASE	14.69	228	16.87	235	-2.0	84	-4.4	0	0	981.4	NA	0.0000		9999	2620	3480	0	0
2019/04/29 21:35:00	BASE	14.37	235	16.87	235	-2.0	83	-4.4	0	0	981.4	NA	0.0000		9999	2820	0	0	0
2019/04/29 21:36:00	BASE	12.94	237	16.87	235	-2.0	83	-4.5	0	0	981.4	NA	0.0000		9999	2660	5250	0	0
2019/04/29 21:37:00	BASE	11.31	236	16.87	235	-2.0	83	-4.5	0	0	981.4	NA	0.0000		9999	2890	0	0	0
2019/04/29 21:38:00	BASE	11.50	236	16.87	235	-2.0	83	-4.6	0	0	981.4	NA	0.0000		9999	4860	0	0	0
2019/04/29 21:39:00	BASE	11.80	236	16.87	235	-2.0	82	-4.6	0	0	981.4	NA	0.0000		9999	2790	4890	0	0
2019/04/29 21:40:00	BASE	12.55	229	16.87	235	-2.0	82	-4.7	0	0	981.4	NA	0.0000		9999	4890	0	0	0
2019/04/29 21:41:00	BASE	13.93	223	16.87	235	-2.0	82	-4.7	0	0	981.4	NA	0.0000		9999	2890	0	0	0
2019/04/29 21:42:00	BASE	13.86	223	16.87	235	-2.0	81	-4.8	0	0	981.4	NA	0.0000		9999	2920	0	0	0
2019/04/29 21:43:00	BASE	14.33	222	16.87	235	-2.0	81	-4.8	0	0	981.4	NA	0.0000		9999	3220	4890	0	0
2019/04/29 21:44:00	BASE	14.51	220	16.31	235	-2.0	81	-4.8	0	0	981.4	NA	0.0000		9999	4890	0	0	0
2019/04/29 21:45:00	BASE	13.61	222	16.05	225	-2.0	81	-4.8	0	0	981.4	NA	0.0000		9999	4950	0	0	0
2019/04/29 21:46:00	BASE	13.26	230	16.05	225	-2.0	81	-4.7	0	0	981.4	NA	0.0000		9999	4950	0	0	0
2019/04/29 21:47:00	BASE	13.81	227	16.05	221	-2.0	82	-4.7	0	0	981.4	NA	0.0000		9999	4990	0	0	0
2019/04/29 21:48:00	BASE	14.36	223	16.05	221	-2.0	82	-4.7	0	0	981.4	NA	0.0000		9999	5020	0	0	0
2019/04/29 21:49:00	BASE	14.34	224	16.05	221	-2.0	82	-4.6	0	0	981.4	NA	0.0000		9999	3050	5090	0	0
2019/04/29 21:50:00	BASE	13.75	225	16.05	221	-2.0	83	-4.6	0	0	981.5	NA	0.0000		9999	5050	0	0	0
2019/04/29 21:51:00	BASE	13.05	230	16.05	221	-2.0	83	-4.5	0	0	981.5	NA	0.0000		9999	5020	0	0	0
2019/04/29 21:52:00	BASE	12.61	236	16.05	221	-2.0	83	-4.5	0	0	981.4	NA	0.0000		9999	2820	0	0	0
2019/04/29 21:53:00	BASE	13.97	234	16.77	229	-2.0	83	-4.5	0	0	981.4	NA	0.0000		9999	2890	0	0	0
2019/04/29 21:54:00	BASE	14.41	231	16.77	233	-2.0	83	-4.5	0	0	981.4	NA	0.0000		9999	5150	0	0	0
2019/04/29 21:55:00	BASE	12.52	234	16.77	233	-2.0	83	-4.6	0	0	981.5	NA	0.0000		9999	2790	0	0	0
2019/04/29 21:56:00	BASE	12.37	236	16.77	233	-2.0	82	-4.6	0	0	981.4	NA	0.0000		9999	5220	0	0	0
2019/04/29 21:57:00	BASE	12.55	240	16.77	233	-2.0	82	-4.6	0	0	981.4	NA	0.0000		9999	2760	0	0	0
2019/04/29 21:58:00	BASE	12.17	239	16.77	233	-2.0	82	-4.7	0	0	981.5	NA	0.0000		9999	5180	0	0	0
2019/04/29 21:59:00	BASE	12.83	234	16.77	233	-2.0	82	-4.7	0	0	981.4	NA	0.0000		9999	2760	0	0	0
2019/04/29 22:00:00	BASE	12.98	235	16.77	233	-2.0	81	-4.8	0	0	981.4	NA	0.0000		9999	2820	0	0	0
2019/04/29 22:01:00	BASE	12.95	234	16.77	233	-2.0	81	-4.8	0	0	981.4	NA	0.0000		9999	6170	0	0	0
2019/04/29 22:02:00	BASE	12.80	233	16.77	233	-2.0	81	-4.8	0	0	981.4	NA	0.0000		9999	2920	5320	0	0
2019/04/29 22:03:00	BASE	12.59	233	16.77	233	-2.0	81	-4.8	0	0	981.4	NA	0.0000		9999	2720	0	0	0
2019/04/29 22:04:00	BASE	11.97	237	16.15	228	-2.0	81	-4.8	0	0	981.5	NA	0.0000		9999	2790	0	0	0
2019/04/29 22:05:00	BASE	11.35	240	16.15	228	-2.0	81	-4.8	0	0	981.5	NA	0.0000		9999	2790	3480	0	0
2019/04/29 22:06:00	BASE	11.41	235	16.15	228	-2.0	81	-4.8	0	0	981.4	NA	0.0000		9999	2820	0	0	0
2019/04/29 22:07:00	BASE	12.91	225	16.20	218	-2.0	81	-4.8	0	0	981.4	NA	0.0000		9999	2660	0	0	0
2019/04/29 22:08:00	BASE	13.31	222	16.20	218	-2.0	81	-4.8	0	0	981.4	NA	0.0000		9999	2660	0	0	0
2019/04/29 22:09:00	BASE	12.62	232	16.20	218	-1.9	81	-4.8	0	0	981.5	NA	0.0000		9999	2620	0	0	0
2019/04/29 22:10:00	BASE	13.33	236	16.20	218	-1.9	81	-4.8	0	0	981.5	NA	0.0000		9999	2660	0	0	0
2019/04/29 22:11:00	BASE	14.28	231	16.82	230	-1.9	81	-4.8	0	0	981.4	NA	0.0000		9999	2820	0	0	0
2019/04/29 22:12:00	BASE	14.40	229	16.82	230	-2.0	81	-4.8	0	0	981.5	NA	0.0000		9999	2790	0	0	0
2019/04/29 22:13:00	BASE	13.85	235	17.85	241	-2.0	81	-4.8	0	0	981.4	NA	0.0000		9999	2790	0	0	0
2019/04/29 22:14:00	BASE	13.73	240	17.85	241	-2.0	81	-4.8	0	0	981.5	NA	0.0000		9999	2850	0	0	0
2019/04/29 22:15:00	BASE	12.96	237	17.85	241	-2.0	81	-4.9	0	0	981.5	NA	0.0000		9999	2790	0	0	0
2019/04/29 22:16:00	BASE	12.89	237	17.85	241	-2.0	81	-4.9	0	0	981.5	NA	0.0000		9999	2950	0	0	0
2019/04/29 22:17:00	BASE	14.14	237	17.85	241	-2.0	80	-4.9	0	0	981.4	NA	0.0000		9999	6000	0	0	0
2019/04/29 22:18:00	BASE	14.85	232	17.85	241	-2.0	80	-5.0	0	0	981.4	NA	0.0000		9999	5280	0	0	0
2019/04/29 22:19:00	BASE	15.15	231	17.85	241	-2.0	80	-5.0	0	0	981.4	NA	0.0000		9999	2820	0	0	0
2019/04/29 22:20:00	BASE	15.28	228	17.85	241	-2.0	80	-5.0	0	0	981.4	NA	0.0000		9999	3120	0	0	0
2019/04/29 22:21:00	BASE	15.30	225	17.85	241	-2.0	80	-5.0	0	0	981.4	NA	0.0000		9999	5450	0	0	0
2019/04/29 22:22:00	BASE	15.18	227	17.85	241	-2.0	79	-5.1	0	0	981.4	NA	0.0000		9999	5020	0	0	0
2019/04/29 22:23:00	BASE	14.63	231	17.54	233	-2.0	79	-5.1	0	0	981.4	NA	0.0000		9999	4720	0	0	0
2019/04/29 22:24:00	BASE	13.97	233	17.54	233	-1.9	78	-5.2	0	0	981.4	NA	0.0000		9999	5350	0	0	0
2019/04/29 22:25:00	BASE	14.85	228	18.26	228	-2.0	78	-5.3	0	0	981.4	NA	0.0000		9999	5640	0	0	0
2019/04/29 22:26:00	BASE	16.35	226	18.26	228	-2.0	78	-5.3	0	0	981.4	NA	0.0000		9999	6690	0	0	0
2019/04/29 22:27:00	BASE	15.39	229	18.26	228	-2.0	78	-5.3	0	0	981.4	NA	0.0000		9999	6920	0	0	0
2019/04/29 22:28:00	BASE	15.72	231	18.31	229	-2.0	78	-5.3	0	0	981.4	NA	0.0000		9999	7250	0	0	0
2019/04/29 22:29:00	BASE	16.16	230	18.31	229	-2.0	78	-5.4	0	0	981.4	NA	0.0000		9999	6170	0	0	0
2019/04/29 22:30:00	BASE	14.53	226	18.31	229	-2.0	77	-5.4	0	0	981.4	NA	0.0000		9999	5580	6140	0	0
2019/04/29 22:31:00	BASE	14.69	223	18.31	229	-2.0	77	-5.4	0	0	981.4	NA	0.0000		9999	5580	6270	0	0
2019/04/29 22:32:00	BASE	16.18	227	18.31	229	-2.0	77	-5.4	0	0	981.4	NA	0.0000		9999	5610	6460	0	0
2019/04/29 22:33:00	BASE	15.25	228	18.31	229	-1.9	77	-5.5	0	0	981.5	NA	0.0000		9999	5640	6230	6760	0
2019/04/29 22:34:00	BASE	14.38	225	18.31	229	-1.9	77	-5.4	0	0	981.4	NA	0.0000		9999	5640	6230	0	0
2019/04/29 22:35:00	BASE	15.10	229	18.31	229	-1.9	77	-5.4	0	0	981.5	NA	0.0000		9999	3120	5610	0	0
2019/04/29 22:36:00	BASE	15.46	235	18.31	229	-2.0	78	-5.4	0	0	981.4	NA	0.0000		9999	2690	0	0	0
2019/04/29 22:37:00	BASE	15.58	237	18.31	229	-2.0	78	-5.3	0	0	981.4	NA	0.0000		9999	3080	0	0	0
2019/04/29 22:38:00	BASE	15.19	235	18.06	223	-2.0	78	-5.3	0	0	981.4	NA	0.0000		9999	5580	6690	0	0
2019/04/29 22:39:00	BASE	14.57	228	18.06	223	-2.0	78	-5.3	0	0	981.5	NA	0.0000		9999	2690	0	0	0
2019/04/29 22:40:00	BASE	14.48	226	18.06	223	-2.0	78	-5.2	0	0	981.5	NA	0.0000		9999	3310	0	0	0
2019/04/29 22:41:00	BASE	15.21	229	17.65	240	-2.0	78	-5.2	0	0	981.5	NA	0.0000		9999	3480	6460	0	0
2019/04/29 22:42:00	BASE	16.12	227	18.06	222	-1.9	79	-5.2	0	0	981.5	NA	0.0000		9999	6370	0	0	0
2019/04/29 22:43:00	BASE	16.11	224	18.06	222	-1.9	79	-5.1	0	0	981.5	NA	0.0000		9999	6370	0	0	0
2019/04/29 22:44:00	BASE	16.24	225	18.16	228	-2.0	79	-5.1	0	0	981.5	NA	0.0000		9999	5910	0	0	0
2019/04/29 22:45:00	BASE	16.31	229	18.16	228	-2.0	79	-5.2	0	0	981.5	NA	0.0000		9999	3480	6400	0	0
2019/04/29 22:46:00	BASE	14.93	232	18.16	228	-2.0	78	-5.3	0	0	981.5	NA	0.0000		9999	3540	5940	0	0
2019/04/29 22:47:00	BASE	14.50	232	18.16	228	-2.0	78	-5.3	0	0	981.5	NA	0.0000		9999	5580	0	0	0
2019/04/29 22:48:00	BASE	14.79	230	18.16	228	-1.9	77	-5.4	0	0	981.5	NA	0.0000		9999	5940	0	0	0
2019/04/29 22:49:00	BASE	14.44	229	18.16	228	-1.9	77	-5.4	0	0	981.5	NA	0.0000		9999	5910	0	0	0
2019/04/29 22:50:00	BASE	13.85	226	18.16	228	-1.9	77	-5.4	0	0	981.5	NA	0.0000		9999	5810	0	0	0
2019/04/29 22:51:00	BASE	13.64	226	18.16	228	-1.9	78	-5.3	0	0	981.5	NA	0.0000		9999	7050	0	0	0
2019/04/29 22:52:00	BASE	13.70	226	18.16	228	-1.9	78	-5.2	0	0	981.5	NA	0.0000		9999	4920	0	0	0
2019/04/29 22:53:00	BASE	15.02	224	18.16	228	-1.9	79	-5.1	0	0	981.5	NA	0.0000		9999	4920	0	0	0
2019/04/29 22:54:00	BASE	15.96	224	17.49	226	-1.9	79	-5.0	0	0	981.5	NA	0.0000		9999	7090	0	0	0
2019/04/29 22:55:00	BASE	15.27	225	17.49	226	-1.9	80	-5.0	0	0	981.5	NA	0.0000		9999	6920	0	0	0
2019/04/29 22:56:00	BASE	15.69	224	17.49	226	-1.9	80	-5.0	0	0	981.5	NA	0.0000		9999	7050	0	0	0
2019/04/29 22:57:00	BASE	15.68	225	17.49	226	-2.0	79	-5.1	0	0	981.4	NA	0.0000		9999	3670	0	0	0
2019/04/29 22:58:00	BASE	14.39	226	17.49	226	-2.0	79	-5.1	0	0	981.5	NA	0.0000		9999	3670	0	0	0
2019/04/29 22:59:00	BASE	13.40	226	17.49	226	-2.0	79	-5.1	0	0	981.5	NA	0.0000		9999	3640	0	0	0
2019/04/29 23:00:00	BASE	12.97	226	17.49	226	-1.9	79	-5.1	0	0	981.5	NA	0.0000		9999	2490	0	0	0
2019/04/29 23:01:00	BASE	14.47	226	17.49	226	-1.9	79	-5.1	0	0	981.5	NA	0.0000		9999	2560	3670	0	0
2019/04/29 23:02:00	BASE	15.56	222	17.49	226	-1.9	79	-5.0	0	0	981.5	NA	0.0000		9999	3640	0	0	0
2019/04/29 23:03:00	BASE	15.54	219	17.44	229	-1.9	80	-4.9	0	0	981.5	NA	0.0000		9999	3640	0	0	0
2019/04/29 23:04:00	BASE	15.17	225	17.44	229	-1.9	80	-4.9	0	0	981.5	NA	0.0000		9999	2460	3870	0	0
2019/04/29 23:05:00	BASE	14.82	230	17.44	229	-1.9	80	-4.9	0	0	981.5	NA	0.0000		9999	4760	0	0	0
2019/04/29 23:06:00	BASE	15.54	228	17.44	229	-2.0	80	-4.9	0	0	981.4	NA	0.0000		9999	2430	0	0	0
2019/04/29 23:07:00	BASE	16.10	225	17.80	223	-1.9	80	-4.9	0	0	981.4	NA	0.0000		9999	2460	0	0	0
2019/04/29 23:08:00	BASE	16.20	225	17.80	223	-2.0	80	-4.9	0	0	981.4	NA	0.0000		9999	4590	0	0	0
2019/04/29 23:09:00	BASE	15.93	223	17.80	223	-2.0	80	-5.0	0	0	981.4	NA	0.0000		9999	4460	0	0	0
2019/04/29 23:10:00	BASE	16.23	225	18.11	227	-2.0	80	-5.0	0	0	981.4	NA	0.0000		9999	4430	0	0	0
2019/04/29 23:11:00	BASE	15.99	229	18.11	227	-2.0	80	-5.0	0	0	981.4	NA	0.0000		9999	4430	0	0	0
2019/04/29 23:12:00	BASE	15.67	228	18.11	227	-2.0	80	-5.0	0	0	981.4	NA	0.0000		9999	4460	0	0	0
2019/04/29 23:13:00	BASE	15.57	230	18.11	227	-2.0	80	-5.0	0	0	981.4	NA	0.0000		9999	4460	0	0	0
2019/04/29 23:14:00	BASE	15.81	232	18.11	227	-2.0	80	-5.0	0	0	981.4	NA	0.0000		9999	4630	0	0	0
2019/04/29 23:15:00	BASE	16.37	231	18.26	223	-2.0	80	-5.1	0	0	981.3	NA	0.0000		9999	4690	0	0	0
2019/04/29 23:16:00	BASE	16.67	229	18.26	223	-2.0	79	-5.1	0	0	981.3	NA	0.0000		9999	4760	0	0	0
2019/04/29 23:17:00	BASE	16.39	228	18.26	223	-2.0	79	-5.1	0	0	981.3	NA	0.0000		9999	4990	0	0	0
2019/04/29 23:18:00	BASE	15.05	224	18.26	223	-2.0	79	-5.2	0	0	981.3	NA	0.0000		9999	5020	0	0	0
2019/04/29 23:19:00	BASE	14.72	222	18.26	223	-2.0	79	-5.1	0	0	981.3	NA	0.0000		9999	4860	0	0	0
2019/04/29 23:20:00	BASE	15.13	222	18.26	223	-2.0	79	-5.1	0	0	981.3	NA	0.0000		9999	4690	0	0	0
2019/04/29 23:21:00	BASE	14.41	224	18.26	223	-2.0	79	-5.1	0	0	981.3	NA	0.0000		9999	4690	0	0	0
2019/04/29 23:22:00	BASE	14.10	223	18.26	223	-2.0	79	-5.1	0	0	981.2	NA	0.0000		9999	7190	0	0	0
2019/04/29 23:23:00	BASE	14.73	222	18.26	223	-1.9	79	-5.1	0	0	981.2	NA	0.0000		9999	7190	0	0	0
2019/04/29 23:24:00	BASE	14.73	225	18.26	223	-1.9	79	-5.1	0	0	981.2	NA	0.0000		9999	6300	0	0	0
2019/04/29 23:25:00	BASE	14.97	226	17.90	226	-1.9	79	-5.1	0	0	981.2	NA	0.0000		9999	4860	0	0	0
2019/04/29 23:26:00	BASE	16.05	225	17.85	227	-2.0	79	-5.2	0	0	981.2	NA	0.0000		9999	4920	0	0	0
2019/04/29 23:27:00	BASE	17.15	224	18.42	224	-2.0	79	-5.2	0	0	981.2	NA	0.0000		9999	6890	0	0	0
2019/04/29 23:28:00	BASE	17.32	224	18.42	224	-2.0	78	-5.3	0	0	981.2	NA	0.0000		9999	4040	0	0	0
2019/04/29 23:29:00	BASE	16.80	224	18.42	224	-2.0	78	-5.3	0	0	981.2	NA	0.0000		9999	4170	0	0	0
2019/04/29 23:30:00	BASE	16.87	225	18.42	224	-2.0	77	-5.4	0	0	981.2	NA	0.0000		9999	3770	0	0	0
2019/04/29 23:31:00	BASE	16.49	225	18.42	224	-2.0	77	-5.6	0	0	981.2	NA	0.0000		9999	4530	0	0	0
2019/04/29 23:32:00	BASE	15.37	221	18.42	224	-2.0	76	-5.6	0	0	981.2	NA	0.0000		9999	4530	0	0	0
2019/04/29 23:33:00	BASE	14.98	222	18.42	224	-2.0	76	-5.6	0	0	981.2	NA	0.0000		9999	4430	0	0	0
2019/04/29 23:34:00	BASE	15.90	225	18.42	224	-2.0	76	-5.6	0	0	981.2	NA	0.0000		9999	0	0	0	4490
2019/04/29 23:35:00	BASE	16.02	225	18.42	224	-2.0	76	-5.6	0	0	981.2	NA	0.0000		9999	0	0	0	490
2019/04/29 23:36:00	BASE	14.76	227	18.42	224	-2.0	77	-5.6	0	0	981.3	NA	0.0000		9999	4130	0	0	0
2019/04/29 23:37:00	BASE	14.17	228	18.26	224	-2.0	77	-5.5	0	0	981.3	NA	0.0000		9999	4200	0	0	0
2019/04/29 23:38:00	BASE	14.55	230	18.26	224	-2.0	77	-5.5	0	0	981.3	NA	0.0000		9999	2400	0	0	0
2019/04/29 23:39:00	BASE	14.69	228	18.26	224	-2.0	77	-5.4	0	0	981.3	NA	0.0000		9999	2590	0	0	0
2019/04/29 23:40:00	BASE	14.79	223	17.65	233	-2.0	78	-5.3	0	0	981.3	NA	0.0000		9999	3080	0	0	0
2019/04/29 23:41:00	BASE	15.19	220	17.65	233	-2.0	78	-5.3	0	0	981.3	NA	0.0000		9999	2690	3310	0	0
2019/04/29 23:42:00	BASE	15.82	218	17.65	217	-2.0	79	-5.2	0	0	981.2	NA	0.0000		9999	2990	6560	0	0
2019/04/29 23:43:00	BASE	15.68	219	17.65	217	-2.0	79	-5.2	0	0	981.2	NA	0.0000		9999	2920	0	0	0
2019/04/29 23:44:00	BASE	15.79	220	17.65	217	-2.0	79	-5.2	0	0	981.2	NA	0.0000		9999	3150	0	0	0
2019/04/29 23:45:00	BASE	16.71	221	17.65	217	-2.0	78	-5.3	0	0	981.2	NA	0.0000		9999	3020	0	0	0
2019/04/29 23:46:00	BASE	15.47	221	17.65	217	-2.1	78	-5.4	0	0	981.2	NA	0.0000		9999	2990	0	0	0
2019/04/29 23:47:00	BASE	14.88	223	17.65	217	-2.1	78	-5.5	0	0	981.2	NA	0.0000		9999	3120	0	0	0
2019/04/29 23:48:00	BASE	15.12	227	17.65	217	-2.1	77	-5.5	0	0	981.2	NA	0.0000		9999	2760	0	0	0
2019/04/29 23:49:00	BASE	14.24	228	17.65	217	-2.1	77	-5.5	0	0	981.2	NA	0.0000		9999	4590	0	0	0
2019/04/29 23:50:00	BASE	14.26	227	17.65	217	-2.0	78	-5.4	0	0	981.2	NA	0.0000		9999	2690	0	0	0
2019/04/29 23:51:00	BASE	14.15	229	17.65	217	-2.0	78	-5.4	0	0	981.2	NA	0.0000		9999	2490	0	0	0
2019/04/29 23:52:00	BASE	15.00	227	17.59	219	-2.0	78	-5.4	0	0	981.2	NA	0.0000		9999	2400	3250	0	0
2019/04/29 23:53:00	BASE	16.49	224	17.75	223	-2.0	78	-5.3	0	0	981.2	NA	0.0000		9999	2620	0	0	0
2019/04/29 23:54:00	BASE	15.74	222	17.75	223	-2.1	79	-5.3	0	0	981.2	NA	0.0000		9999	3120	0	0	0
2019/04/29 23:55:00	BASE	15.17	223	17.75	225	-2.0	79	-5.2	0	0	981.2	NA	0.0000		9999	2720	0	0	0
2019/04/29 23:56:00	BASE	16.93	224	19.81	220	-2.1	79	-5.2	0	0	981.1	NA	0.0000		9999	2850	0	0	0
2019/04/29 23:57:00	BASE	18.04	221	19.81	220	-2.1	79	-5.3	0	0	981.1	NA	0.0000		9999	4530	0	0	0
2019/04/29 23:58:00	BASE	17.17	219	19.81	220	-2.1	78	-5.4	0	0	981.1	NA	0.0000		9999	4490	0	0	0
2019/04/29 23:59:00	BASE	16.71	217	19.81	220	-2.1	77	-5.6	0	0	981.1	NA	0.0000		9999	2820	0	0	0